[[{"header":{"parameterUnit":"m.s-1","parameterCategory":1,"la1":30.6,"la2":29.2853,"lo1":-89.7004,"lo2":-87.6739,"dy":0.0162,"dx":0.0183,"nx":112,"ny":82,"refTime":"2023-02-22T18:00:00:Z","depth":0,"parameterNumber":2,"parameterNumberName":"U-component_of_WINDS"},"data":[0.0,0.0,0.0,0.0,0.0,0.0,0.0,0.0,0.0,0.0,0.0,0.0,0.0,0.0,0.0,0.0,0.0,0.0,0.0,0.0,0.0,0.0,0.0,0.0,0.0,0.0,0.0,0.0,0.0,0.0,0.0,0.0,0.0,0.0,0.0,0.0,0.0,0.0,0.0,0.0,0.0,0.0,0.0,0.0,0.0,0.0,0.0,0.0,0.0,0.0,0.0,0.0,0.0,0.0,0.0,0.0,0.0,0.0,0.0,0.0,0.0,0.0,0.0,0.0,0.0,0.0,0.0,0.0,0.0,0.0,0.0,0.0,0.0,0.0,0.0,0.0,0.0,0.0,0.0,0.0,0.0,0.0,0.0,0.0,0.0,0.0,0.0,0.0,0.0,0.0,-4.3281,-4.3237,-4.2612,-4.1864,-4.1061,-4.0981,-4.0932,-4.0809,0.0,0.0,0.0,0.0,0.0,0.0,0.0,0.0,0.0,0.0,0.0,0.0,0.0,0.0,0.0,0.0,0.0,0.0,0.0,0.0,0.0,0.0,0.0,0.0,0.0,0.0,0.0,0.0,0.0,0.0,0.0,0.0,0.0,0.0,0.0,0.0,0.0,0.0,0.0,0.0,0.0,0.0,0.0,0.0,0.0,0.0,0.0,0.0,0.0,0.0,0.0,0.0,0.0,0.0,0.0,0.0,0.0,0.0,0.0,0.0,0.0,0.0,0.0,0.0,0.0,0.0,0.0,0.0,0.0,0.0,0.0,0.0,0.0,0.0,0.0,0.0,0.0,0.0,0.0,0.0,0.0,0.0,0.0,0.0,0.0,0.0,0.0,0.0,0.0,0.0,0.0,0.0,0.0,0.0,0.0,0.0,0.0,0.0,0.0,0.0,0.0,0.0,0.0,0.0,-4.2183,-4.1619,-4.1398,-4.1216,-4.1016,-4.0953,-4.0878,-4.0803,0.0,0.0,0.0,0.0,0.0,0.0,0.0,0.0,0.0,0.0,0.0,0.0,0.0,0.0,0.0,0.0,0.0,0.0,0.0,0.0,0.0,0.0,0.0,0.0,0.0,0.0,0.0,0.0,0.0,0.0,0.0,0.0,0.0,0.0,0.0,0.0,0.0,0.0,0.0,0.0,0.0,0.0,0.0,0.0,0.0,0.0,0.0,0.0,0.0,0.0,0.0,0.0,0.0,0.0,0.0,0.0,0.0,0.0,0.0,0.0,0.0,0.0,0.0,0.0,0.0,0.0,0.0,0.0,0.0,0.0,0.0,0.0,0.0,0.0,0.0,0.0,0.0,0.0,0.0,0.0,0.0,0.0,0.0,0.0,0.0,0.0,0.0,0.0,0.0,0.0,0.0,0.0,0.0,0.0,0.0,0.0,0.0,0.0,0.0,0.0,0.0,0.0,0.0,-4.1568,-4.1493,-4.123,-4.1143,-4.1074,-4.1016,-4.0941,-4.0863,-4.0803,-4.0797,0.0,0.0,0.0,0.0,0.0,0.0,0.0,0.0,0.0,0.0,0.0,0.0,0.0,0.0,0.0,0.0,0.0,0.0,0.0,0.0,0.0,0.0,0.0,0.0,0.0,0.0,0.0,0.0,0.0,0.0,0.0,0.0,0.0,0.0,0.0,0.0,0.0,0.0,0.0,0.0,0.0,0.0,0.0,0.0,0.0,0.0,0.0,0.0,0.0,0.0,0.0,0.0,0.0,0.0,0.0,0.0,0.0,0.0,0.0,0.0,0.0,0.0,0.0,0.0,0.0,0.0,0.0,0.0,0.0,0.0,0.0,0.0,0.0,0.0,0.0,0.0,0.0,0.0,0.0,0.0,0.0,0.0,0.0,0.0,0.0,0.0,0.0,0.0,0.0,0.0,0.0,0.0,0.0,0.0,0.0,0.0,0.0,0.0,0.0,0.0,0.0,0.0,-4.1072,-4.1142,-4.117,-4.1116,-4.1057,-4.0974,-4.0911,-4.0856,-4.0803,-4.0797,0.0,0.0,0.0,0.0,0.0,0.0,0.0,0.0,0.0,0.0,0.0,0.0,0.0,0.0,0.0,0.0,0.0,0.0,0.0,0.0,0.0,0.0,0.0,0.0,0.0,0.0,0.0,0.0,0.0,0.0,0.0,0.0,0.0,0.0,0.0,0.0,0.0,0.0,0.0,0.0,0.0,0.0,0.0,0.0,0.0,0.0,0.0,0.0,0.0,0.0,0.0,0.0,0.0,0.0,0.0,0.0,0.0,0.0,0.0,0.0,0.0,0.0,0.0,0.0,0.0,0.0,0.0,0.0,0.0,0.0,0.0,0.0,0.0,0.0,0.0,0.0,0.0,0.0,0.0,0.0,0.0,0.0,0.0,0.0,0.0,0.0,0.0,0.0,0.0,0.0,0.0,0.0,0.0,0.0,0.0,0.0,0.0,0.0,0.0,0.0,0.0,0.0,-4.1114,-4.117,-4.1115,-4.1054,-4.097,-4.0906,-4.0859,-4.0803,-4.0797,-4.0797,0.0,0.0,0.0,0.0,0.0,0.0,0.0,0.0,0.0,0.0,0.0,0.0,0.0,0.0,0.0,0.0,0.0,0.0,0.0,0.0,0.0,0.0,0.0,0.0,0.0,0.0,0.0,0.0,0.0,0.0,0.0,0.0,0.0,0.0,0.0,0.0,0.0,0.0,0.0,0.0,0.0,0.0,0.0,0.0,0.0,0.0,0.0,0.0,0.0,0.0,0.0,0.0,0.0,0.0,0.0,0.0,0.0,0.0,0.0,0.0,0.0,0.0,0.0,0.0,0.0,0.0,0.0,0.0,0.0,0.0,0.0,0.0,0.0,0.0,0.0,0.0,0.0,0.0,0.0,0.0,0.0,0.0,0.0,0.0,0.0,0.0,0.0,0.0,0.0,0.0,0.0,0.0,0.0,0.0,0.0,0.0,0.0,0.0,0.0,0.0,0.0,0.0,-4.1078,-4.1145,-4.1168,-4.1066,-4.0981,-4.0953,-4.0867,-4.0797,-4.0797,0.0,0.0,0.0,0.0,0.0,0.0,0.0,0.0,0.0,0.0,0.0,0.0,0.0,0.0,0.0,0.0,0.0,0.0,0.0,0.0,0.0,0.0,0.0,0.0,0.0,0.0,0.0,0.0,0.0,0.0,0.0,0.0,0.0,0.0,0.0,0.0,0.0,0.0,0.0,0.0,0.0,0.0,0.0,0.0,0.0,0.0,0.0,0.0,0.0,0.0,0.0,0.0,0.0,0.0,0.0,0.0,0.0,0.0,0.0,0.0,0.0,0.0,0.0,0.0,0.0,0.0,0.0,0.0,0.0,0.0,0.0,0.0,0.0,0.0,0.0,0.0,0.0,0.0,0.0,0.0,0.0,0.0,0.0,0.0,0.0,0.0,0.0,0.0,0.0,0.0,0.0,0.0,0.0,0.0,0.0,0.0,0.0,0.0,0.0,0.0,0.0,0.0,-4.1007,-4.1076,-4.1144,-4.1169,-4.1081,-4.1006,-4.096,-4.0883,-4.082,-4.0797,0.0,0.0,0.0,0.0,0.0,0.0,0.0,0.0,0.0,0.0,0.0,0.0,0.0,0.0,0.0,0.0,0.0,0.0,0.0,0.0,0.0,0.0,0.0,0.0,0.0,0.0,0.0,0.0,0.0,0.0,0.0,0.0,0.0,0.0,0.0,0.0,0.0,0.0,0.0,0.0,0.0,0.0,0.0,0.0,0.0,0.0,0.0,0.0,0.0,0.0,0.0,0.0,0.0,0.0,0.0,0.0,0.0,0.0,0.0,0.0,0.0,0.0,0.0,0.0,0.0,0.0,0.0,0.0,0.0,0.0,0.0,0.0,0.0,0.0,0.0,0.0,0.0,0.0,0.0,0.0,0.0,0.0,0.0,0.0,0.0,0.0,0.0,0.0,0.0,0.0,0.0,0.0,0.0,0.0,0.0,0.0,0.0,0.0,0.0,0.0,0.0,0.0,-4.1003,-4.1115,-4.117,-4.1112,-4.1109,-4.1054,-4.0906,-4.0907,-4.0863,0.0,0.0,0.0,0.0,0.0,0.0,0.0,0.0,0.0,0.0,0.0,0.0,0.0,0.0,0.0,0.0,0.0,0.0,0.0,0.0,0.0,0.0,0.0,0.0,0.0,0.0,0.0,0.0,0.0,0.0,0.0,0.0,0.0,0.0,0.0,0.0,0.0,0.0,0.0,0.0,0.0,0.0,0.0,0.0,0.0,0.0,0.0,0.0,0.0,0.0,0.0,0.0,0.0,0.0,0.0,0.0,0.0,0.0,0.0,0.0,0.0,0.0,0.0,0.0,0.0,0.0,0.0,0.0,0.0,0.0,0.0,0.0,0.0,0.0,0.0,0.0,0.0,0.0,0.0,0.0,0.0,0.0,0.0,0.0,0.0,0.0,0.0,0.0,0.0,0.0,0.0,0.0,0.0,0.0,0.0,0.0,0.0,0.0,0.0,0.0,0.0,0.0,0.0,-4.1074,-4.1145,-4.1191,-4.117,-4.1121,-4.1068,-4.0986,-4.0979,-4.092,-4.0809,0.0,0.0,0.0,0.0,0.0,0.0,0.0,0.0,0.0,0.0,0.0,0.0,0.0,0.0,0.0,0.0,0.0,0.0,0.0,0.0,0.0,0.0,0.0,0.0,0.0,0.0,0.0,0.0,0.0,0.0,0.0,0.0,0.0,0.0,0.0,0.0,0.0,0.0,0.0,0.0,0.0,0.0,0.0,0.0,0.0,0.0,0.0,0.0,0.0,0.0,0.0,0.0,0.0,0.0,0.0,0.0,0.0,0.0,0.0,0.0,0.0,0.0,0.0,0.0,0.0,0.0,0.0,0.0,0.0,0.0,0.0,0.0,0.0,0.0,0.0,0.0,0.0,0.0,0.0,0.0,0.0,0.0,0.0,0.0,0.0,0.0,0.0,0.0,0.0,0.0,0.0,0.0,0.0,0.0,0.0,0.0,0.0,0.0,0.0,0.0,0.0,0.0,-4.1091,-4.1168,-4.1191,-4.1191,-4.1169,-4.1114,-4.1054,-4.105,-4.0974,-4.0846,0.0,0.0,0.0,0.0,0.0,0.0,0.0,0.0,0.0,0.0,0.0,0.0,0.0,0.0,0.0,0.0,0.0,0.0,0.0,0.0,0.0,0.0,0.0,0.0,0.0,0.0,0.0,0.0,0.0,0.0,0.0,0.0,0.0,0.0,0.0,0.0,0.0,0.0,0.0,0.0,0.0,0.0,0.0,0.0,0.0,0.0,0.0,0.0,0.0,0.0,0.0,0.0,0.0,0.0,0.0,0.0,0.0,0.0,0.0,0.0,0.0,0.0,0.0,0.0,0.0,0.0,0.0,0.0,0.0,0.0,0.0,0.0,0.0,0.0,0.0,0.0,0.0,0.0,0.0,0.0,0.0,0.0,0.0,0.0,0.0,0.0,0.0,0.0,0.0,0.0,0.0,0.0,0.0,0.0,0.0,0.0,0.0,0.0,0.0,0.0,0.0,0.0,-4.1116,-4.1168,-4.1191,-4.1191,-4.1191,-4.117,-4.1112,-4.1112,-4.1059,-4.0915,0.0,0.0,0.0,0.0,0.0,0.0,0.0,0.0,0.0,0.0,0.0,0.0,0.0,0.0,0.0,0.0,0.0,0.0,0.0,0.0,0.0,0.0,0.0,0.0,0.0,0.0,0.0,0.0,0.0,0.0,0.0,0.0,0.0,0.0,0.0,0.0,0.0,0.0,0.0,0.0,0.0,0.0,0.0,0.0,0.0,0.0,0.0,0.0,0.0,0.0,0.0,0.0,0.0,0.0,0.0,0.0,0.0,0.0,0.0,0.0,-4.5747,0.0,0.0,0.0,0.0,0.0,0.0,0.0,0.0,0.0,0.0,0.0,0.0,0.0,0.0,0.0,0.0,0.0,0.0,0.0,0.0,0.0,0.0,0.0,0.0,0.0,0.0,0.0,0.0,0.0,0.0,0.0,0.0,0.0,0.0,0.0,0.0,0.0,0.0,0.0,0.0,0.0,-4.1171,-4.1191,-4.1191,-4.1191,-4.1191,-4.117,-4.1112,-4.1146,-4.1117,-4.0997,-4.099,0.0,0.0,0.0,0.0,0.0,0.0,0.0,0.0,0.0,0.0,0.0,0.0,0.0,0.0,0.0,0.0,0.0,0.0,0.0,0.0,0.0,0.0,0.0,0.0,0.0,0.0,0.0,0.0,0.0,0.0,0.0,0.0,0.0,0.0,0.0,0.0,0.0,0.0,0.0,0.0,0.0,0.0,0.0,0.0,0.0,0.0,0.0,0.0,0.0,0.0,0.0,0.0,0.0,0.0,0.0,0.0,0.0,0.0,0.0,0.0,-4.574,0.0,0.0,0.0,0.0,0.0,0.0,0.0,0.0,0.0,0.0,0.0,0.0,0.0,0.0,0.0,0.0,0.0,0.0,0.0,0.0,0.0,0.0,0.0,0.0,0.0,0.0,0.0,0.0,0.0,0.0,0.0,0.0,0.0,0.0,0.0,0.0,0.0,0.0,0.0,0.0,-4.1191,-4.1191,-4.1191,-4.1191,-4.1191,-4.1191,-4.1147,-4.1171,-4.1167,-4.104,-4.1054,0.0,0.0,0.0,0.0,0.0,0.0,0.0,0.0,0.0,0.0,0.0,0.0,0.0,0.0,0.0,0.0,0.0,0.0,0.0,0.0,0.0,0.0,0.0,0.0,0.0,0.0,0.0,0.0,0.0,0.0,0.0,0.0,0.0,0.0,0.0,0.0,0.0,0.0,0.0,0.0,0.0,0.0,0.0,0.0,0.0,0.0,0.0,0.0,0.0,0.0,0.0,0.0,0.0,-4.5594,-4.5594,-4.5594,-4.5594,-4.5594,-4.5594,-4.5594,-4.5657,-4.5769,-4.5709,0.0,0.0,0.0,0.0,0.0,0.0,0.0,0.0,0.0,0.0,0.0,0.0,0.0,0.0,0.0,0.0,0.0,0.0,0.0,0.0,0.0,0.0,0.0,0.0,-4.1191,-4.1191,-4.1191,0.0,0.0,0.0,0.0,0.0,0.0,0.0,0.0,0.0,0.0,0.0,-4.1191,-4.1191,-4.1191,-4.1191,-4.1191,-4.1191,-4.1191,-4.1191,-4.1171,-4.1117,-4.1112,-4.1054,0.0,0.0,0.0,0.0,0.0,0.0,0.0,0.0,0.0,0.0,0.0,0.0,0.0,0.0,0.0,0.0,0.0,0.0,0.0,0.0,0.0,0.0,0.0,0.0,0.0,0.0,0.0,0.0,0.0,0.0,0.0,0.0,-4.4742,-4.5031,0.0,0.0,0.0,0.0,0.0,0.0,0.0,0.0,0.0,0.0,0.0,0.0,0.0,-4.5594,-4.5594,-4.5594,-4.5594,-4.5594,-4.5594,-4.5594,-4.5594,-4.5594,-4.5594,-4.5594,-4.5594,0.0,-4.5585,-4.5076,0.0,0.0,0.0,0.0,0.0,0.0,0.0,0.0,0.0,0.0,0.0,0.0,0.0,0.0,0.0,0.0,0.0,0.0,0.0,0.0,0.0,0.0,-4.1191,-4.1191,-4.1191,-4.1191,0.0,-4.1191,-4.1191,-4.1191,-4.1191,0.0,0.0,0.0,0.0,0.0,0.0,0.0,-4.1191,-4.1191,-4.1191,-4.1191,-4.1191,-4.1191,-4.1191,-4.1191,-4.1191,-4.1191,-4.1122,-4.1068,-4.0981,-4.0932,0.0,0.0,0.0,0.0,0.0,0.0,0.0,0.0,0.0,0.0,0.0,0.0,0.0,0.0,0.0,0.0,0.0,0.0,0.0,0.0,0.0,0.0,0.0,0.0,0.0,0.0,0.0,0.0,0.0,-4.4688,-4.4896,-4.5019,-4.5253,-4.5476,0.0,0.0,0.0,0.0,0.0,0.0,0.0,0.0,0.0,-4.6317,-4.6336,-4.6547,-4.699,-4.7009,-4.7009,-4.7009,-4.7009,-4.7009,-4.7009,-4.7009,-4.7009,-4.6971,-4.6528,-4.6336,-4.6277,-4.5608,-4.5054,-4.4565,0.0,0.0,0.0,0.0,-4.199,-4.1678,-4.1676,-4.1442,-4.1131,-4.1111,0.0,0.0,0.0,0.0,0.0,0.0,0.0,0.0,0.0,0.0,-4.1191,-4.1191,-4.1191,-4.1191,-4.1191,-4.1191,-4.1191,0.0,-4.1191,-4.1191,-4.1191,0.0,0.0,0.0,0.0,-4.1191,-4.1191,-4.1191,-4.1191,-4.1191,-4.1191,-4.1191,-4.1191,-4.1191,-4.1191,-4.1191,-4.117,-4.1139,-4.1064,-4.102,-4.0956,0.0,0.0,0.0,0.0,0.0,0.0,0.0,0.0,0.0,0.0,0.0,0.0,0.0,0.0,0.0,0.0,0.0,0.0,0.0,0.0,0.0,0.0,0.0,0.0,0.0,0.0,0.0,0.0,-4.4908,-4.5052,-4.5191,-4.539,-4.5522,0.0,0.0,0.0,0.0,0.0,0.0,-4.622,-4.624,-4.6547,-4.7201,-4.7212,-4.749,-4.8086,-4.8105,-4.8105,-4.8105,-4.8105,-4.8105,-4.8105,-4.8105,-4.8105,-4.8067,-4.7471,-4.7212,-4.7114,-4.5954,-4.5112,-4.4494,-4.3805,-4.319,-4.2635,-4.2004,-4.1772,-4.1771,-4.1771,-4.1771,-4.1733,-4.1501,-4.1287,-4.1132,-4.1172,0.0,0.0,0.0,0.0,-4.1191,-4.1191,-4.1191,-4.1191,-4.1191,-4.1191,-4.1191,-4.1191,-4.1191,-4.1191,0.0,-4.1191,-4.1191,-4.1191,0.0,0.0,0.0,-4.1191,-4.1191,-4.1191,-4.1191,-4.1191,-4.1191,-4.1191,-4.1191,-4.1191,-4.1191,-4.1191,-4.1191,-4.1191,-4.117,-4.1091,-4.108,-4.1011,-4.0893,0.0,0.0,0.0,0.0,0.0,0.0,0.0,0.0,0.0,0.0,0.0,0.0,0.0,0.0,0.0,0.0,0.0,0.0,0.0,0.0,0.0,0.0,0.0,0.0,0.0,0.0,0.0,0.0,0.0,-4.5129,-4.5211,0.0,0.0,0.0,0.0,-4.6778,-4.6827,-4.7182,-4.7932,-4.7971,-4.799,-4.8048,-4.8048,-4.8067,-4.8105,-4.8105,-4.8105,-4.8105,-4.8105,-4.8105,-4.8105,-4.8105,-4.8105,-4.8105,-4.8067,-4.8048,-4.7865,-4.5525,-4.4537,-4.444,-4.3838,-4.358,-4.3539,-4.3565,-4.357,-4.3567,-4.3567,-4.3567,-4.3431,-4.2595,-4.1816,-4.1191,-4.1191,-4.1191,0.0,0.0,-4.1191,-4.1191,-4.1191,-4.1191,-4.1191,-4.1191,-4.1191,-4.1191,-4.1191,-4.1191,-4.1191,0.0,-4.1191,-4.1191,-4.1191,0.0,-4.1191,-4.1191,-4.1191,-4.1191,-4.1191,-4.1191,-4.1191,-4.1191,-4.1191,-4.1191,-4.1191,-4.1191,-4.1191,-4.1191,-4.1191,-4.117,-4.1091,-4.1047,-4.0963,-4.0907,-4.0843,0.0,0.0,0.0,0.0,0.0,0.0,0.0,0.0,0.0,0.0,0.0,0.0,0.0,0.0,0.0,0.0,0.0,0.0,0.0,0.0,0.0,0.0,0.0,0.0,0.0,0.0,0.0,0.0,-4.5955,-4.6195,0.0,-4.7154,-4.7201,-4.7336,-4.7663,-4.7682,-4.7798,-4.8086,-4.8105,-4.8355,-4.8913,-4.9471,-5.0029,-5.0538,-5.0538,-5.0538,-5.0538,-5.0029,-4.976,-4.976,-4.976,-4.976,-4.974,-4.9183,-4.8933,-4.8826,-4.7441,-4.631,-4.5334,-4.4588,-4.4033,-4.3674,-4.3685,-4.3706,-4.3705,-4.3705,-4.3705,-4.3646,-4.3337,-4.3046,-4.2812,-4.2812,-4.2422,-4.1973,-4.1973,-4.1601,-4.1191,-4.1191,-4.1191,-4.1191,-4.1191,-4.1191,-4.1191,-4.1191,-4.1191,-4.1191,-4.1191,-4.1191,-4.1191,-4.1191,-4.1191,-4.1191,-4.1191,-4.1191,-4.1191,-4.1191,-4.1191,-4.1191,-4.1191,-4.1191,-4.1191,-4.1191,-4.1191,-4.1191,-4.1191,-4.1191,-4.1191,-4.1169,-4.1143,-4.1074,-4.0976,-4.0945,-4.0888,0.0,0.0,0.0,0.0,0.0,0.0,0.0,0.0,0.0,0.0,0.0,0.0,0.0,0.0,0.0,0.0,0.0,0.0,0.0,0.0,0.0,0.0,0.0,0.0,0.0,-4.5524,-4.5988,-4.6922,-4.7204,-4.7625,-4.8471,-4.8548,-4.8779,-4.9327,-4.9385,-4.951,-4.9798,-4.9817,-5.0087,-5.0664,-5.1241,-5.1798,-5.2327,-5.2327,-5.2192,-5.1885,-5.1356,-5.0952,-5.0712,-5.0712,-5.0712,-5.0673,-5.0087,-4.9837,-4.9788,-4.896,-4.8052,-4.7048,-4.5993,-4.531,-4.4891,-4.4659,-4.4585,-4.4584,-4.4584,-4.437,-4.4138,-4.4138,-4.3945,-4.3691,-4.3691,-4.3301,-4.2832,-4.2832,-4.2441,-4.2031,-4.2031,-4.2031,-4.2031,-4.2031,-4.2031,-4.2031,-4.2031,-4.2031,-4.2031,-4.2031,-4.1582,-4.1191,-4.1191,-4.1191,-4.1191,-4.1191,-4.1191,-4.1191,-4.1191,-4.1191,-4.1191,-4.1191,-4.1191,-4.1191,-4.1191,-4.1191,-4.1191,-4.1191,-4.1191,-4.1191,-4.1191,-4.1167,-4.1083,-4.0994,-4.0961,-4.0888,-4.0797,0.0,0.0,0.0,0.0,0.0,0.0,0.0,0.0,0.0,0.0,0.0,0.0,0.0,0.0,0.0,0.0,0.0,0.0,0.0,0.0,0.0,0.0,0.0,-4.6502,-4.6522,-4.6969,-4.8039,-4.8182,-4.8529,-4.9433,-4.951,-5.0183,-5.1827,-5.1942,-5.2308,-5.3145,-5.3203,-5.3203,-5.3203,-5.3241,-5.3241,-5.3241,-5.3241,-5.2818,-5.1981,-5.1923,-5.1491,-5.075,-5.0712,-5.0712,-5.0712,-5.0712,-5.0712,-5.0635,-4.9854,-4.9589,-4.9478,-4.7938,-4.733,-4.7276,-4.6625,-4.6364,-4.6341,-4.6302,-4.5759,-4.5039,-4.5038,-4.4472,-4.3789,-4.3789,-4.3769,-4.373,-4.373,-4.3711,-4.3691,-4.3691,-4.3691,-4.3691,-4.3691,-4.3691,-4.3691,-4.3691,-4.3691,-4.3691,-4.3691,-4.2383,-4.1289,-4.1289,-4.1269,-4.123,-4.123,-4.1211,0.0,-4.1191,-4.1191,-4.1191,-4.1191,-4.1191,-4.1191,-4.1191,-4.1191,-4.1191,-4.1191,-4.1191,-4.1191,-4.1191,-4.1074,-4.0997,-4.099,-4.0877,-4.0797,-4.0797,0.0,0.0,0.0,0.0,0.0,0.0,0.0,0.0,0.0,0.0,0.0,0.0,0.0,0.0,0.0,0.0,0.0,0.0,0.0,0.0,0.0,-4.6471,-4.6724,-4.6543,-4.7163,-4.8241,-4.9798,-4.999,-5.0548,-5.201,-5.2164,-5.2356,-5.2818,-5.2837,-5.2953,-5.3203,-5.3203,-5.3203,-5.3203,-5.3818,-5.4145,-5.4145,-5.4145,-5.403,-5.378,-5.25,-5.1769,-5.1548,-5.0971,-5.0712,-5.0712,-5.0712,-5.0712,-5.0673,-5.0452,-5.0401,-5.0314,-4.8831,-4.8272,-4.8291,-4.8218,-4.7793,-4.7148,-4.6523,-4.6133,-4.5937,-4.5937,-4.5781,-4.5586,-4.5586,-4.5137,-4.4648,-4.4648,-4.4199,-4.3691,-4.3691,-4.3691,-4.3691,-4.3691,-4.3691,-4.3691,-4.3691,-4.3691,-4.3691,-4.3691,-4.332,-4.3008,-4.3008,-4.248,-4.207,-4.207,-4.1562,0.0,-4.1191,-4.1191,-4.1191,-4.1191,-4.1191,-4.1191,-4.1191,-4.1191,-4.1191,-4.1191,-4.1191,-4.1191,-4.1191,-4.1169,-4.1106,-4.0994,-4.0877,-4.0797,0.0,0.0,0.0,0.0,0.0,0.0,0.0,0.0,0.0,0.0,0.0,0.0,0.0,0.0,0.0,0.0,0.0,0.0,0.0,0.0,0.0,0.0,-4.7914,-4.8433,-4.8286,-4.8808,-4.9837,-5.1529,-5.1741,-5.226,-5.3606,-5.3741,-5.3876,-5.4222,-5.4241,-5.4241,-5.4241,-5.4241,-5.4241,-5.4241,-5.4741,-5.4991,-5.4991,-5.4991,-5.4818,-5.4472,-5.3106,-5.225,-5.1865,-5.1068,-5.0712,-5.0712,-5.0712,-5.0712,-5.0712,-5.0712,-5.073,0.0,0.0,0.0,0.0,0.0,-4.8574,-4.8066,-4.7558,-4.7148,-4.6836,-4.6836,-4.6601,-4.6308,-4.6308,-4.5957,-4.5547,-4.5547,-4.5176,-4.4785,-4.4785,-4.4785,-4.4785,-4.4785,-4.4785,-4.4785,-4.4785,-4.4492,-4.4355,-4.4726,-4.4492,0.0,-4.4726,-4.3769,-4.2949,-4.2949,-4.2558,-4.2246,-4.2246,-4.2246,-4.2246,-4.2246,-4.1914,-4.1699,-4.1699,-4.1387,0.0,0.0,0.0,-4.117,-4.1116,-4.1115,0.0,0.0,0.0,-4.0797,-4.0797,0.0,0.0,0.0,-4.0797,-4.0752,0.0,0.0,0.0,0.0,0.0,0.0,0.0,0.0,0.0,0.0,0.0,0.0,0.0,0.0,0.0,0.0,-4.9683,-5.0808,-5.1097,-5.1135,-5.1683,-5.3164,-5.3356,-5.3683,-5.4549,-5.4645,-5.4934,-5.5645,-5.5703,-5.5703,-5.5703,-5.5703,0.0,0.0,0.0,-5.5703,-5.5703,-5.5703,-5.5338,-5.4626,-5.3664,-5.2799,-5.2019,-5.1106,-5.0712,-5.0712,-5.0712,-5.0712,-5.0712,-5.0712,-5.073,-5.0722,-5.0044,-4.9901,-4.9991,-4.929,-4.9043,-4.9023,-4.8926,0.0,0.0,-4.7754,-4.7168,-4.6445,-4.6445,-4.6387,-4.6308,-4.6308,-4.6308,-4.6308,-4.6308,-4.6308,-4.6308,-4.6308,-4.6308,-4.6308,-4.6308,-4.5683,-4.5371,-4.6152,-4.5683,-4.5391,-4.6172,-4.4941,-4.3848,-4.3848,-4.3769,-4.3691,-4.3691,-4.3691,-4.3691,-4.3691,0.0,0.0,-4.2558,-4.1797,-4.1348,-4.1348,-4.125,-4.1145,-4.1037,-4.1019,-4.0949,-4.082,-4.0809,-4.0797,-4.0797,-4.0797,-4.0797,-4.0797,-4.0797,-4.0752,0.0,0.0,0.0,0.0,0.0,0.0,0.0,0.0,0.0,0.0,0.0,0.0,0.0,0.0,0.0,-4.9933,-5.0481,-5.1424,-5.3472,-5.376,-5.3895,-5.4203,-5.4241,-5.4568,-5.5395,-5.5472,-5.553,-5.5684,-5.5703,-5.5703,-5.5703,-5.5703,-5.5703,-5.5703,-5.5703,-5.5703,-5.5703,-5.5703,-5.5607,-5.5453,0.0,0.0,-5.2895,-5.1395,-5.0712,-5.0712,-5.0712,-5.0712,-5.0712,-5.0712,-5.073,-5.0797,-5.0875,-5.0982,-5.1012,-5.0234,-4.9941,-4.9844,-4.9141,-4.8789,-4.8652,-4.8652,-4.8066,-4.7344,-4.7344,-4.6855,0.0,-4.6308,-4.6308,-4.6308,-4.6308,-4.6308,-4.6308,-4.6308,-4.6308,-4.6308,-4.6308,-4.6172,-4.6094,-4.6269,-4.6152,-4.6094,-4.6269,-4.5449,-4.4746,-4.4746,-4.4141,-4.3691,-4.3691,-4.3691,-4.3691,-4.3691,-4.3555,-4.3457,-4.3457,-4.2656,-4.2168,-4.2168,-4.1562,-4.1191,-4.1168,-4.1061,-4.0997,-4.0968,-4.0856,-4.0797,-4.0797,-4.0797,-4.0797,-4.0797,-4.0797,-4.0752,0.0,0.0,0.0,0.0,0.0,0.0,0.0,0.0,0.0,0.0,0.0,-4.7778,-4.8644,0.0,-4.9952,-5.1664,-5.2318,-5.3049,-5.4318,-5.4857,-5.5107,-5.5107,-5.5107,-5.5261,-5.5665,-5.5703,-5.5703,-5.5703,-5.5703,-5.5703,-5.5703,-5.5703,-5.5703,-5.5703,-5.5703,-5.5703,-5.5703,-5.5703,-5.5703,-5.5684,-5.4434,-5.3857,-5.3799,-5.2087,-5.1298,-5.1279,-5.0856,-5.0712,-5.0693,-5.075,-5.0791,-5.0859,-5.1108,-5.1249,-5.1261,-5.0916,-5.0801,-5.0742,-5.0293,-4.9883,-4.9551,-4.9551,-4.8965,-4.8242,-4.8242,-4.7637,-4.6953,-4.6953,-4.6641,-4.6308,-4.6308,-4.6308,-4.6308,-4.6308,-4.6308,-4.6308,-4.6308,-4.5957,-4.5781,-4.6211,-4.5957,-4.5781,-4.6211,-4.5937,-4.5644,-4.5644,-4.5273,-4.5,-4.5,-4.5,-4.5,-4.5,-4.4609,-4.4355,-4.4355,-4.3555,-4.3047,-4.3047,-4.2266,-4.1775,-4.1695,-4.1259,-4.0976,-4.0907,-4.0837,-4.0797,-4.0797,-4.0797,-4.0797,-4.0797,-4.0778,-4.0707,0.0,0.0,0.0,0.0,0.0,0.0,0.0,-4.6624,-4.7135,-4.7135,-4.7913,-4.9029,-5.0442,-5.0981,-5.1683,-5.3203,-5.4049,-5.4549,-5.4703,-5.528,-5.5703,-5.5703,-5.5703,-5.5703,-5.5703,-5.5703,-5.5703,-5.5703,-5.5703,-5.5703,-5.5703,-5.5703,-5.5703,-5.5703,-5.5703,-5.5703,-5.5703,-5.5703,-5.5703,-5.5684,-5.4876,-5.4491,-5.4453,-5.2876,-5.2154,-5.2115,-5.1298,-5.0933,-5.0923,-5.0816,-5.083,-5.0905,-5.1108,-5.1195,-5.1222,-5.1359,-5.1406,-5.1406,-5.1406,-5.0976,-5.043,-5.043,-4.9844,-4.9141,-4.9141,-4.8535,-4.7851,-4.7851,-4.7226,-4.6543,-4.6543,-4.6426,-4.6308,-4.6308,-4.6308,-4.6308,-4.6308,-4.5742,-4.5469,-4.6152,-4.5723,-4.5488,-4.6172,-4.6308,-4.6308,-4.6308,-4.6308,-4.6308,-4.6308,-4.6308,-4.6308,-4.6308,-4.5664,-4.5176,-4.5019,-4.4355,-4.3887,-4.3711,-4.3047,-4.261,-4.2482,-4.1838,-4.1435,-4.1317,-4.1138,-4.1029,-4.1029,-4.0874,-4.0797,-4.0797,-4.0733,-4.0661,-4.5806,-4.6163,-4.6759,-4.6759,-4.7298,-4.7817,0.0,-4.7894,-4.7971,-4.7971,-4.926,-5.0481,-5.0654,-5.1914,-5.3241,-5.4203,-5.4434,-5.4741,-5.5472,-5.5645,-5.5703,-5.5703,-5.5703,-5.5703,-5.5703,-5.5703,-5.5703,-5.5703,-5.5703,-5.5703,-5.5703,-5.5703,-5.5703,-5.5703,-5.5703,-5.5703,-5.5703,-5.5703,-5.5703,-5.5684,-5.4876,-5.4491,-5.4472,-5.351,-5.3049,-5.301,-5.2135,-5.1769,-5.1712,-5.101,-5.0749,-5.0822,-5.1033,-5.1146,-5.1222,-5.1359,-5.1406,-5.1406,-5.1406,-5.1348,-5.1269,-5.1269,-5.0723,-5.0058,-5.0058,-4.9453,-4.875,-4.875,-4.8125,-4.7441,-4.7441,-4.6875,-4.6308,-4.6308,-4.6308,-4.6308,-4.6308,-4.6211,-4.6172,-4.6289,-4.6211,-4.6191,-4.6289,-4.6308,-4.6308,-4.6308,-4.6308,-4.6308,-4.6308,-4.6308,-4.6308,-4.6308,-4.6211,-4.584,-4.5078,-4.4902,-4.4512,-4.375,-4.3613,-4.3512,-4.3443,-4.3304,-4.3195,-4.3116,-4.2297,-4.1874,-4.1854,-4.1145,-4.0797,-4.0797,-4.0733,-4.0661,-4.7144,-4.7317,-4.7605,-4.7605,-4.7855,-4.8105,-4.8105,-4.849,-4.899,-4.951,-5.0567,-5.1702,-5.2722,-5.3472,-5.4222,-5.5049,-5.5203,-5.5318,-5.5645,-5.5703,-5.5703,-5.5703,-5.5703,-5.5703,-5.5703,-5.5703,-5.5703,-5.5703,-5.5703,-5.5703,-5.5703,-5.5703,-5.5703,-5.5703,-5.5703,-5.5703,-5.5703,-5.5703,-5.5703,-5.5703,-5.5357,-5.5203,-5.5164,-5.4337,-5.3683,-5.3183,-5.2818,-5.2654,-5.2587,-5.179,-5.1515,-5.159,-5.1222,-5.1168,-5.1274,-5.1363,-5.1406,-5.1406,-5.1406,-5.1406,-5.1406,-5.1406,-5.1172,-5.0898,-5.0898,-5.0312,-4.9668,-4.9668,-4.9023,-4.8242,-4.7734,-4.7324,-4.6933,-4.6426,-4.6308,-4.6308,-4.6308,-4.6308,-4.6308,-4.6308,-4.6308,-4.6308,-4.6308,-4.6308,-4.6308,-4.6308,-4.6308,-4.6308,-4.6308,-4.6308,-4.6308,-4.6308,-4.6308,-4.6152,-4.5781,-4.5762,-4.5605,-4.5234,-4.4746,-4.4408,-4.4292,-4.3779,-4.3447,-4.3348,-4.2963,-4.2763,-4.2763,-4.2415,-4.2241,-4.2241,-4.2189,-4.2149,-4.8105,-4.8279,-4.8529,-4.8759,-4.899,-4.9221,-4.9452,-4.999,-5.0625,-5.126,-5.2049,-5.301,-5.426,-5.4684,-5.5011,-5.5607,-5.5703,-5.5703,-5.5703,-5.5703,-5.5703,-5.5703,-5.5703,-5.5703,-5.5703,-5.5703,-5.5703,-5.5703,-5.5703,-5.5703,-5.5703,-5.5703,-5.5703,-5.5703,-5.5703,-5.5703,-5.5703,-5.5703,-5.5703,-5.5703,-5.5703,-5.5703,-5.5684,-5.5088,-5.4491,-5.3876,-5.3645,-5.3568,-5.3491,-5.2666,-5.2277,-5.2116,-5.1622,-5.137,-5.1284,-5.1364,-5.1406,-5.1406,-5.1406,-5.1406,-5.1406,-5.1406,-5.1406,-5.1406,-5.1406,-5.0996,-5.0527,-5.0527,-4.9922,-4.9101,-4.8476,-4.7969,-4.7441,-4.6816,-4.6465,-4.6308,-4.6308,-4.6308,-4.6308,-4.6308,-4.6308,-4.6308,-4.6308,-4.6308,-4.6308,-4.6308,-4.6308,-4.6308,-4.6308,-4.6308,-4.6308,-4.6308,-4.6308,-4.6308,-4.6308,-4.6308,-4.6308,-4.6308,-4.5703,-4.5303,-4.5157,-4.4543,-4.415,-4.3988,-4.3769,-4.3653,-4.3653,-4.3421,-4.3305,-4.3305,-4.3232,-4.3199,-4.8105,-4.8721,-4.9548,-5.0423,-5.1202,-5.2,-5.2856,-5.3068,-5.3087,-5.3126,-5.3818,-5.4434,-5.4491,-5.5145,-5.5665,-5.5703,-5.5703,-5.5703,-5.5703,-5.5703,-5.5703,-5.5703,-5.5703,-5.5703,-5.5703,-5.5703,-5.5703,-5.5703,-5.5703,-5.5703,-5.5703,-5.5703,-5.5703,-5.5703,-5.5703,-5.5703,-5.5703,-5.5703,-5.5703,-5.5703,-5.5703,-5.5703,-5.5703,-5.5665,-5.5645,-5.5568,-5.4799,-5.4453,-5.4395,-5.353,-5.2743,-5.2101,-5.222,-5.1823,-5.1225,-5.1359,-5.1406,-5.1406,-5.1406,-5.1406,-5.1406,-5.1406,-5.1406,-5.1406,-5.1406,-5.1387,-5.1367,-5.1367,-5.0781,-5.0156,-5.0137,-4.8867,-4.7598,-4.7578,-4.6914,-4.6308,-4.6308,-4.6308,-4.6308,-4.6308,-4.6308,-4.6308,-4.6308,-4.6308,-4.6308,-4.6308,-4.6308,-4.6308,-4.6308,-4.6308,-4.6308,-4.6308,-4.6308,-4.6308,-4.6308,-4.6308,-4.6308,-4.6308,-4.6289,-4.6201,-4.6066,-4.6043,-4.592,-4.5736,-4.4968,-4.4555,-4.4555,-4.3711,-4.3305,-4.3305,-4.3232,-4.3199,-5.0491,-5.0827,-5.1279,-5.2145,-5.2568,-5.2837,-5.3126,-5.3203,-5.3356,-5.3933,-5.4299,-5.4664,-5.5203,-5.5511,-5.5703,-5.5703,-5.5703,-5.5703,-5.5703,-5.5703,-5.5703,-5.5703,-5.5703,-5.5703,-5.5703,-5.5703,-5.5703,-5.5703,-5.5703,-5.5703,-5.5703,-5.5703,-5.5703,-5.5703,-5.5703,-5.5703,-5.5703,-5.5703,-5.5703,-5.5703,-5.5703,-5.5703,-5.5703,-5.5703,-5.5703,-5.5684,-5.5415,-5.5299,-5.5222,-5.4395,-5.3976,-5.372,-5.269,-5.2223,-5.2077,-5.1578,-5.1406,-5.1406,-5.1406,-5.1406,-5.1406,-5.1406,-5.1406,-5.1406,-5.1406,-5.1406,-5.1406,-5.1406,-5.1211,-5.0879,-5.0332,-4.9766,-4.9023,-4.7871,-4.7383,-4.6992,-4.6426,-4.6308,-4.6308,-4.6308,-4.6308,-4.6308,-4.6308,-4.6308,-4.6308,-4.6308,-4.6308,-4.6308,-4.6308,-4.6308,-4.6308,-4.6308,-4.6308,-4.6308,-4.6308,-4.6308,-4.6308,-4.6308,-4.6308,-4.624,-4.6105,-4.6098,-4.6017,-4.5794,-4.5529,-4.5394,-4.5394,-4.5104,-4.4949,-4.4949,-4.4942,-4.4935,-5.175,-5.2135,-5.2558,-5.3453,-5.3664,-5.3741,-5.403,-5.3876,-5.3818,-5.4376,-5.4241,-5.4184,-5.4703,-5.5049,-5.5261,-5.5261,-5.5511,-5.5703,-5.5703,-5.5703,-5.5703,-5.5703,-5.5703,-5.5703,-5.5703,-5.5703,-5.5703,-5.5703,-5.5703,-5.5703,-5.5703,-5.5703,-5.5703,-5.5703,-5.5703,-5.5703,-5.5703,-5.5703,-5.5703,-5.5703,-5.5703,-5.5703,-5.5703,-5.5703,-5.5703,-5.5703,-5.5703,-5.5703,-5.5665,-5.5145,-5.4824,-5.4564,-5.3604,-5.2964,-5.2503,-5.2046,-5.168,-5.1406,-5.1406,-5.1406,-5.1406,-5.1406,-5.1406,-5.1406,-5.1406,-5.1406,-5.1406,-5.1406,-5.1406,-5.1289,-5.0762,-5.043,-4.9922,-4.8808,-4.8281,-4.7832,-4.6953,-4.6758,-4.668,-4.6367,-4.6308,-4.6308,-4.6308,-4.6308,-4.6308,-4.6308,-4.6308,-4.6308,-4.6308,-4.6308,-4.6308,-4.6308,-4.6308,-4.6308,-4.6308,-4.6308,-4.6308,-4.6308,-4.6308,-4.624,-4.6105,-4.6098,-4.6017,-4.5794,-4.5807,-4.5807,-4.5807,-4.551,-4.5374,-4.5355,-4.5045,-4.491,-5.2,-5.2635,-5.3472,-5.4337,-5.4549,-5.4761,-5.553,-5.5068,-5.4491,-5.4491,-5.3818,-5.3203,-5.3203,-5.3876,-5.4453,-5.4491,-5.5145,-5.5645,-5.5684,-5.5703,-5.5703,-5.5703,-5.5703,-5.5703,-5.5703,-5.5703,-5.5703,-5.5703,0.0,-5.5703,-5.5703,-5.5703,-5.5703,-5.5703,-5.5703,-5.5703,-5.5703,-5.5703,-5.5703,-5.5703,-5.5703,-5.5703,-5.5703,-5.5703,-5.5703,-5.5703,-5.5703,-5.5703,-5.5703,-5.5703,-5.5285,-5.4679,-5.4841,-5.394,-5.2579,-5.2668,-5.2148,-5.1406,-5.1406,-5.1406,-5.1406,-5.1406,-5.1406,-5.1406,-5.1406,-5.1406,-5.1406,-5.1406,-5.1406,-5.1406,-5.1406,-5.082,-5.0254,-5.0215,-4.957,-4.873,-4.7851,-4.7637,-4.7363,-4.6523,-4.6328,-4.6308,-4.6308,-4.6308,-4.6308,-4.6308,-4.6308,-4.6308,-4.6308,-4.6308,-4.6308,-4.6308,-4.6308,-4.6308,-4.6308,-4.6308,-4.6308,-4.6308,-4.6308,-4.624,-4.6105,-4.6098,-4.6017,-4.5794,-4.5807,-4.5807,-4.5807,-4.4987,-4.4594,-4.4574,-4.3711,-4.3305,-5.3491,-5.3991,-5.4376,-5.5184,-5.5395,-5.5453,-5.5645,-5.5068,-5.4491,-5.4491,-5.3818,-5.3203,-5.3203,-5.3376,-5.3741,-5.4395,-5.4664,-5.5011,-5.5607,-5.5703,-5.5703,-5.5703,-5.5703,-5.5703,-5.5703,-5.5703,-5.5703,-5.5703,-5.5703,-5.5703,-5.5703,-5.5703,-5.5703,-5.5703,-5.5703,-5.5703,-5.5703,-5.5703,-5.5703,-5.5703,-5.5703,-5.5703,-5.5703,-5.5703,-5.5703,-5.5703,-5.5703,-5.5703,-5.5703,-5.5703,-5.5651,-5.5509,-5.5074,-5.429,-5.3339,-5.2862,-5.2148,-5.1406,-5.1406,-5.1406,-5.1406,-5.1406,-5.1406,-5.1406,-5.1406,-5.1406,-5.1406,-5.1406,-5.1406,-5.1406,-5.1406,-5.125,-5.0937,-5.0332,-5.0039,-4.9629,-4.8769,-4.8066,-4.7539,-4.7305,-4.6738,-4.6308,-4.6308,-4.6308,-4.6308,-4.6308,-4.6308,-4.6308,-4.6308,-4.6308,-4.6308,-4.6308,-4.6308,-4.6308,-4.6308,-4.6308,-4.6308,-4.6308,-4.6308,-4.624,-4.6105,-4.6098,-4.6017,-4.5794,-4.5807,-4.5807,-4.5807,-4.4987,-4.4594,-4.4574,-4.3711,-4.3305,-5.4222,-5.4761,-5.5145,-5.5588,-5.5703,-5.5607,-5.5241,-5.453,-5.3818,-5.3433,-5.2683,-5.2106,-5.2106,-5.2395,-5.2799,-5.328,-5.3991,-5.4664,-5.5107,-5.5472,-5.5703,-5.5703,-5.5703,-5.5703,-5.5703,-5.5703,-5.5703,-5.5703,-5.5703,-5.5703,-5.5703,-5.5703,-5.5703,-5.5703,-5.5703,-5.5703,-5.5703,-5.5703,-5.5703,-5.5703,-5.5703,-5.5703,-5.5703,-5.5703,-5.5703,-5.5703,0.0,-5.5703,-5.5703,-5.5703,-5.5756,-5.5837,-5.5579,-5.4748,-5.3673,-5.3389,-5.248,-5.1406,-5.1406,-5.1406,-5.1406,-5.1406,-5.1406,-5.1406,-5.1406,-5.1406,-5.1406,-5.1406,-5.1406,-5.1406,-5.1406,-5.1406,-5.1289,-5.082,-5.0723,-5.0508,-4.9648,-4.9082,-4.8516,-4.7754,-4.7207,-4.6758,-4.6367,-4.6308,-4.6308,-4.6308,-4.6308,-4.6308,-4.6308,-4.6308,-4.6308,-4.6308,-4.6308,-4.6308,-4.6308,-4.6308,-4.6308,-4.6308,-4.6308,-4.624,-4.6105,-4.6098,-4.6017,-4.5794,-4.5807,-4.5633,-4.5278,-4.4446,-4.3827,-4.344,-4.2609,-4.2202,-5.4626,-5.5164,-5.5703,-5.5703,-5.5703,-5.5491,-5.4684,-5.3837,-5.2953,-5.2077,-5.126,-5.0712,-5.0712,-5.1279,-5.1769,-5.1885,-5.3164,-5.4241,-5.4472,-5.5107,-5.5568,-5.5684,-5.5703,-5.5703,-5.5703,-5.5703,-5.5703,-5.5703,-5.5703,-5.5703,-5.5703,-5.5703,-5.5703,-5.5703,-5.5703,-5.5703,-5.5703,-5.5703,-5.5703,-5.5703,-5.5703,-5.5703,-5.5703,-5.5703,-5.5703,-5.5703,-5.5703,-5.5703,-5.5703,-5.5703,-5.5745,-5.5817,-5.6097,-5.5171,-5.3715,-5.3935,-5.2891,-5.1406,-5.1406,-5.1406,-5.1406,-5.1406,-5.1406,-5.1406,-5.1406,-5.1406,-5.1406,-5.1406,-5.1406,-5.1406,-5.1406,-5.1406,-5.1406,-5.1406,-5.1406,-5.1211,-5.0508,-5.0273,-4.9726,-4.8086,-4.7676,-4.7363,-4.6601,-4.6387,-4.6308,-4.6308,-4.6308,-4.6308,-4.6308,-4.6308,-4.6269,-4.6133,-4.6133,-4.6133,-4.6133,-4.6133,-4.6172,-4.6289,-4.6308,-4.624,-4.6105,-4.6098,-4.6017,-4.5794,-4.5807,-4.5394,-4.4594,-4.373,-4.286,-4.197,-4.1164,-4.0797,-5.5299,-5.5588,-5.5703,-5.5703,-5.5703,-5.5491,-5.4684,-5.3837,-5.2953,-5.2077,-5.126,-5.0712,-5.0712,-5.0808,-5.1125,-5.1788,-5.2154,-5.2856,-5.4299,-5.4626,-5.4953,-5.5607,-5.5703,-5.5703,-5.5703,-5.5703,-5.5703,-5.5703,-5.5703,-5.5703,-5.5703,-5.5703,-5.5703,-5.5703,-5.5703,-5.5703,-5.5703,-5.5703,-5.5703,-5.5703,-5.5703,-5.5703,-5.5703,-5.5703,-5.5703,-5.5703,-5.5703,0.0,-5.5703,-5.5703,-5.5745,-5.5817,-5.6097,-5.5171,-5.3715,-5.3935,-5.2891,-5.1406,-5.1406,-5.1406,-5.1406,-5.1406,-5.1406,-5.1406,-5.1406,-5.1406,-5.1406,-5.1406,-5.1406,-5.1406,-5.1406,-5.1406,-5.1406,-5.1406,-5.1406,-5.1367,-5.1211,-5.0664,-4.9902,-4.8867,-4.8086,-4.7558,-4.7402,-4.6777,-4.6308,-4.6308,-4.6308,-4.6308,-4.6308,-4.6308,-4.6016,-4.5293,-4.5234,-4.5234,-4.5234,-4.5234,-4.5527,-4.625,-4.6308,-4.624,-4.6105,-4.6098,-4.6017,-4.5794,-4.5807,-4.5394,-4.4594,-4.373,-4.286,-4.197,-4.1164,-4.0797,-5.5472,-5.5703,-5.5703,-5.5703,-5.5395,-5.4857,-5.401,-5.3145,-5.2154,-5.0875,-5.0298,-5.001,-5.001,-5.001,-5.0298,-5.1144,-5.1625,-5.2192,-5.3029,-5.3933,-5.4645,-5.503,-5.5453,-5.5703,-5.5703,-5.5703,-5.5703,-5.5703,-5.5703,-5.5703,-5.5703,-5.5703,-5.5703,-5.5703,-5.5703,-5.5703,-5.5703,-5.5703,-5.5703,-5.5703,-5.5703,-5.5703,-5.5703,-5.5703,-5.5703,-5.5703,-5.5703,-5.5728,-5.5808,-5.5737,-5.5748,-5.5855,-5.5993,-5.5345,-5.4295,-5.4001,-5.312,-5.2012,-5.1562,-5.1406,-5.1406,-5.1406,-5.1406,-5.1406,-5.1406,-5.1406,-5.1406,-5.1406,-5.1406,-5.1406,-5.1406,-5.1406,-5.1406,-5.1406,-5.1406,-5.1406,-5.1406,-5.1094,-5.0586,-4.9746,-4.9238,-4.8652,-4.7754,-4.7246,-4.6816,-4.6367,-4.6308,-4.6308,-4.6308,-4.6308,-4.6133,-4.5723,-4.5273,-4.5,-4.5,-4.457,-4.4492,-4.4922,-4.5371,-4.5557,-4.542,-4.5864,-4.6017,-4.5794,-4.5394,-4.4755,-4.3924,-4.3053,-4.2183,-4.1371,-4.099,-4.0797,-5.5261,-5.5568,-5.5665,-5.5491,-5.4972,-5.4222,-5.3164,-5.226,-5.1221,-4.9702,-4.924,-4.9125,-4.9125,-4.926,-4.9625,-5.0308,-5.1106,-5.1692,-5.1885,-5.3241,-5.428,-5.4472,-5.5203,-5.5703,-5.5703,-5.5703,-5.5703,-5.5703,-5.5703,-5.5703,-5.5703,-5.5703,-5.5703,-5.5703,-5.5703,-5.5703,-5.5703,-5.5703,-5.5703,-5.5703,-5.5703,-5.5703,-5.5703,-5.5703,-5.5703,-5.5703,-5.5703,-5.5768,-5.5855,-5.5738,-5.5768,-5.5863,-5.5883,-5.5486,-5.481,-5.407,-5.3338,-5.2578,-5.1699,-5.1406,-5.1406,-5.1406,-5.1406,-5.1406,-5.1406,-5.1406,-5.1406,-5.1406,-5.1406,-5.1406,-5.1406,-5.1406,-5.1406,-5.1406,-5.1406,-5.1406,-5.1406,-5.1406,-5.1211,-5.0586,-5.0312,-4.9766,-4.8398,-4.7851,-4.7363,-4.668,-4.6426,-4.6308,-4.6308,-4.6308,-4.6308,-4.6308,-4.5527,-4.4922,-4.4746,-4.4082,-4.3691,-4.3691,-4.4336,-4.4658,-4.4523,-4.5183,-4.5453,-4.5265,-4.4639,-4.3885,-4.3015,-4.2338,-4.1583,-4.0797,-4.0797,-4.0797,-5.4587,-5.5145,-5.5511,-5.478,-5.4549,-5.4068,-5.2404,-5.1395,-5.0529,-4.9586,-4.8779,-4.8221,-4.8221,-4.8875,-4.9433,0.0,0.0,-5.1068,-5.1788,-5.2712,-5.3606,-5.4414,-5.5203,-5.5703,-5.5703,-5.5703,-5.5703,-5.5703,-5.5703,-5.5703,-5.5703,-5.5703,-5.5703,-5.5703,-5.5703,-5.5703,-5.5703,-5.5703,-5.5703,-5.5703,-5.5703,-5.5703,-5.5703,-5.5703,-5.5703,-5.5703,-5.5703,-5.5714,0.0,-5.5714,-5.5714,-5.5728,-5.5859,-5.5491,-5.4803,-5.4066,-5.3334,-5.2576,-5.1699,-5.1406,-5.1406,-5.1406,-5.1406,-5.1406,-5.1406,-5.1406,-5.1406,-5.1406,-5.1406,-5.1406,-5.1406,-5.1406,-5.1406,-5.1406,-5.1406,-5.1406,-5.1406,-5.1406,-5.1387,-5.1308,-5.0703,-5.0156,-4.998,-4.8652,-4.7578,-4.748,-4.6816,-4.6308,-4.6308,-4.6308,-4.6308,-4.6308,-4.5527,-4.4687,-4.3887,-4.375,-4.3691,-4.3691,-4.3789,-4.376,-4.363,-4.3705,-4.3664,-4.3524,-4.346,-4.2995,-4.2125,-4.2048,-4.1583,-4.0797,-4.0797,-4.0797,-5.3568,-5.3953,-5.4126,-5.3799,-5.3318,-5.275,-5.2058,-5.0875,-4.9663,-4.8798,-4.7971,-4.7394,-4.7394,-4.7663,0.0,0.0,0.0,0.0,-5.1068,-5.1895,-5.2741,-5.3606,-5.4453,-5.5164,-5.5645,-5.5703,-5.5703,-5.5703,-5.5703,-5.5703,-5.5703,-5.5703,-5.5703,-5.5703,-5.5703,-5.5703,-5.5703,-5.5703,-5.5703,-5.5703,-5.5703,-5.5703,-5.5703,-5.5703,-5.5703,-5.5703,-5.5703,-5.5738,0.0,-5.5717,-5.5748,-5.5817,-5.5798,-5.5666,-5.535,-5.4119,-5.3533,-5.3173,-5.1852,-5.1406,-5.1406,-5.1406,-5.1406,-5.1406,-5.1406,-5.1406,-5.1406,-5.1406,-5.1406,-5.1406,-5.1406,-5.1406,-5.1406,-5.1406,-5.1406,-5.1406,-5.1406,-5.1406,-5.1406,-5.1406,-5.1133,-5.0762,-5.0273,-4.9199,-4.8203,-4.7676,-4.6855,-4.6308,-4.6308,-4.6308,-4.6308,-4.6308,-4.5527,-4.4863,-4.4512,-4.3516,-4.293,-4.293,-4.293,-4.2862,-4.2715,-4.3215,-4.343,-4.3311,-4.2783,-4.2357,-4.2009,-4.1506,-4.1106,-4.0797,-4.0797,-4.0797,-5.2587,-5.301,-5.3145,-5.2876,-5.2346,-5.1769,-5.1269,-5.0048,-4.8779,-4.7932,-4.7086,-4.6528,-4.6528,-4.674,0.0,0.0,0.0,-4.9606,-5.0231,-5.1241,-5.2135,-5.2731,-5.3818,-5.4722,-5.528,-5.5549,-5.5703,-5.5703,-5.5703,-5.5703,-5.5703,-5.5703,-5.5703,-5.5703,-5.5703,-5.5703,-5.5703,-5.5703,-5.5703,-5.5703,-5.5703,-5.5703,-5.5703,-5.5703,-5.5703,-5.5703,-5.5703,-5.5758,0.0,-5.5728,-5.5758,-5.5836,-5.5747,-5.5654,-5.5381,-5.4071,-5.3512,-5.3231,-5.1863,-5.1404,-5.1405,-5.1406,-5.1406,-5.1406,-5.1406,-5.1406,-5.1406,-5.1406,-5.1406,-5.1406,-5.1406,-5.1406,-5.1406,-5.1406,-5.1406,-5.1406,-5.1406,-5.1406,-5.1406,-5.1406,-5.1406,-5.1211,-5.0644,-4.9844,-4.8984,-4.8125,-4.7246,-4.6582,-4.6328,-4.6308,-4.6308,-4.6308,-4.5742,-4.5273,-4.5019,-4.3867,-4.2949,-4.2422,-4.2402,-4.2237,-4.1854,-4.2435,-4.2691,-4.2557,-4.1951,-4.1641,-4.1641,-4.1087,-4.0797,-4.0797,-4.0797,-4.0797,-5.1692,-5.2538,-5.2991,-5.2135,-5.1904,-5.1462,-4.9798,-4.8759,-4.7894,-4.7077,-4.622,-4.5614,-4.5614,-4.6317,0.0,0.0,0.0,0.0,-4.9413,-5.0856,-5.1904,-5.1904,-5.3433,-5.4491,-5.4511,-5.5222,-5.5703,-5.5703,-5.5703,0.0,-5.5703,-5.5703,-5.5703,-5.5703,-5.5703,-5.5703,-5.5703,-5.5703,-5.5703,-5.5703,-5.5703,-5.5703,-5.5703,-5.5703,-5.5703,-5.5703,-5.5703,-5.5703,0.0,-5.5703,-5.5703,-5.5695,-5.5703,-5.5307,-5.4614,-5.387,-5.3132,-5.2415,-5.166,-5.1402,-5.1405,-5.1405,-5.1406,-5.1406,-5.1406,-5.1406,-5.1406,-5.1406,-5.1406,-5.1406,-5.1406,-5.1406,-5.1406,-5.1406,-5.1406,-5.1406,-5.1406,-5.1406,-5.1406,-5.1406,-5.1406,-5.1406,-5.1387,-5.0723,-4.9883,-4.9023,-4.8144,-4.7266,-4.6406,-4.6308,-4.6308,-4.6308,-4.6289,-4.5937,-4.5078,-4.498,-4.4238,-4.2519,-4.2402,-4.1983,-4.1055,-4.101,-4.096,-4.0842,-4.0816,-4.0816,-4.0816,-4.0797,-4.0797,-4.0797,-4.0797,-4.0797,-4.924,-4.951,-4.9644,-4.9375,-4.9288,-4.9163,-4.8625,-4.7875,-4.7212,-4.6942,-4.6201,-4.5594,-4.5594,-4.5825,0.0,0.0,0.0,0.0,0.0,-5.0375,-5.1279,-5.1827,-5.3433,-5.4722,-5.5261,-5.5549,-5.5703,-5.5703,-5.5703,-5.5703,-5.5703,-5.5703,-5.5703,-5.5703,-5.5703,-5.5703,-5.5703,-5.5703,-5.5703,-5.5703,-5.5703,-5.5703,-5.5703,-5.5703,-5.5703,-5.5703,-5.5703,-5.5703,-5.5703,-5.5703,-5.5703,-5.5703,-5.5703,-5.5236,-5.4468,-5.3746,-5.2997,-5.2256,-5.1515,-5.1316,-5.1397,-5.1403,-5.1405,-5.1406,-5.1406,-5.1406,-5.1406,-5.1406,-5.1406,-5.1406,-5.1406,-5.1406,-5.1406,-5.1406,-5.1406,-5.1406,-5.1406,-5.1406,-5.1406,-5.1406,-5.1406,-5.1406,-5.1406,-5.0723,-5.0117,-4.9824,-4.8535,-4.75,-4.7226,-4.668,-4.6308,-4.6308,-4.6308,-4.6191,-4.5918,-4.5332,-4.4766,-4.4219,-4.3066,-4.2237,-4.1838,-4.1286,-4.0941,-4.0803,-4.0797,-4.0797,-4.0797,-4.0797,-4.0797,-4.0797,-4.0797,-4.0797,0.0,-4.8105,-4.8105,-4.8105,-4.8105,-4.8029,-4.7721,-4.725,-4.6817,-4.649,-4.597,-4.5594,-4.5594,-4.5594,0.0,0.0,0.0,0.0,0.0,-4.9933,-5.1125,-5.225,-5.3356,-5.4453,-5.5588,-5.5703,-5.5703,-5.5703,-5.5703,-5.5703,-5.5703,-5.5703,-5.5703,-5.5703,-5.5703,-5.5703,-5.5703,-5.5703,-5.5703,-5.5703,-5.5703,-5.5703,-5.5703,-5.5703,-5.5703,-5.5703,-5.5703,-5.5703,0.0,-5.5703,-5.5703,-5.5665,-5.5376,-5.4741,-5.3916,-5.3189,-5.2448,-5.1758,-5.1343,-5.1291,-5.1391,-5.1399,-5.1403,-5.1405,-5.1406,-5.1406,-5.1406,-5.1406,-5.1406,-5.1406,-5.1406,-5.1406,-5.1406,-5.1406,-5.1406,-5.1406,-5.1406,-5.1406,-5.1406,-5.1406,-5.1406,-5.1406,-5.1406,-5.0976,-5.0547,-5.0254,-4.9004,-4.7969,-4.7637,-4.6836,-4.6308,-4.6308,-4.6308,-4.6308,-4.6308,-4.5801,-4.5351,-4.5019,-4.3984,-4.3041,-4.2264,-4.173,-4.1268,-4.0848,-4.0802,-4.0797,-4.0797,-4.0797,-4.0797,-4.0797,-4.0797,-4.0797,0.0,0.0,0.0,-4.7913,-4.7913,-4.774,-4.699,-4.6817,0.0,-4.5768,-4.5594,-4.5594,-4.5594,-4.5594,-4.5594,0.0,0.0,-4.8105,-4.8105,-4.9606,-5.1318,-5.301,-5.3203,-5.3857,-5.553,-5.5703,-5.5703,-5.5703,-5.5703,-5.5703,-5.5703,-5.5703,-5.5703,-5.5703,-5.5703,-5.5703,-5.5703,-5.5703,-5.5703,-5.5703,-5.5703,-5.5703,-5.5703,-5.5703,-5.5703,0.0,-5.5703,-5.5703,-5.5703,-5.5703,-5.5703,-5.5607,-5.4799,-5.3972,-5.3107,-5.2361,-5.1627,-5.102,-5.1141,-5.1277,-5.1408,-5.1409,-5.1398,-5.1405,-5.1406,-5.1406,-5.1406,-5.1406,-5.1406,-5.1406,-5.1406,-5.1406,-5.1406,-5.1406,-5.1406,-5.1406,-5.1406,-5.1406,-5.1406,-5.1406,-5.1406,-5.1387,-5.1328,-5.1367,-5.1133,-5.0312,-4.9512,-4.8672,-4.7793,-4.6933,-4.6367,-4.6308,-4.6308,-4.6308,-4.6308,-4.6308,-4.5957,-4.5137,-4.5039,-4.4236,-4.2552,-4.2295,-4.1816,-4.0995,-4.0856,-4.0797,-4.0797,-4.0797,-4.0797,-4.0797,-4.0797,-4.0797,0.0,0.0,0.0,0.0,0.0,0.0,0.0,0.0,0.0,0.0,0.0,-4.5594,-4.5594,-4.5594,-4.5594,-4.5594,-4.7009,-4.8105,-4.8105,-4.9606,-5.1318,-5.301,-5.3203,-5.3857,-5.553,-5.5703,-5.5703,-5.5703,-5.5703,-5.5703,-5.5703,-5.5703,-5.5703,-5.5703,-5.5703,-5.5703,-5.5703,-5.5703,-5.5703,-5.5703,-5.5703,-5.5703,-5.5703,-5.5703,-5.5703,-5.5703,-5.5703,-5.5703,-5.5703,-5.5703,-5.5703,-5.5607,-5.4799,-5.3972,-5.3106,-5.2271,-5.1548,-5.1008,-5.1036,-5.1207,-5.14,-5.1407,-5.1398,-5.1405,-5.1405,-5.1406,-5.1406,-5.1406,-5.1406,-5.1406,-5.1406,-5.1406,-5.1406,-5.1406,-5.1406,-5.1406,-5.1406,-5.1406,-5.1406,-5.1406,-5.1406,-5.1191,-5.0586,-5.0996,-5.1133,-5.0312,-5.0039,-4.957,-4.8711,-4.7832,-4.7031,-4.6367,-4.6308,-4.6308,-4.6308,-4.6308,-4.6211,-4.6016,-4.5371,-4.4759,-4.4223,-4.2916,-4.2062,-4.1749,-4.1119,-4.0797,-4.0797,-4.0797,-4.0797,-4.0797,-4.0797,-4.0797,0.0,0.0,0.0,0.0,0.0,0.0,0.0,0.0,0.0,0.0,0.0,-4.5594,-4.5594,-4.5594,-4.5594,-4.5594,-4.7009,-4.8375,-4.9183,-5.0106,-5.1318,-5.301,-5.3203,-5.3857,0.0,-5.5703,-5.5703,-5.5703,-5.5703,-5.5703,-5.5703,-5.5703,-5.5703,-5.5703,-5.5703,-5.5703,-5.5703,-5.5703,-5.5703,-5.5703,-5.5703,-5.5703,-5.5703,-5.5703,-5.5703,-5.5703,-5.5703,-5.5703,-5.5703,-5.5703,-5.5472,-5.5068,-5.4222,-5.3376,-5.25,-5.1664,-5.1183,-5.0966,-5.0984,-5.1187,-5.1396,-5.1407,-5.1396,-5.1402,-5.1404,-5.1406,-5.1406,-5.1406,-5.1406,-5.1406,-5.1406,-5.1406,-5.1406,-5.1406,-5.1406,-5.1406,-5.1406,-5.1406,-5.1406,-5.1406,-5.1406,-5.1269,-5.082,-5.0801,-5.0703,-5.0273,-4.9863,-4.9297,-4.8418,-4.7891,-4.7266,-4.6387,-4.6308,-4.6308,-4.6308,-4.6308,-4.6308,-4.6308,-4.5859,-4.5388,-4.4914,-4.3933,-4.2948,-4.2015,-4.1222,-4.0797,-4.0797,-4.0797,-4.0797,-4.0797,-4.0797,-4.0797,0.0,0.0,0.0,0.0,0.0,0.0,0.0,0.0,0.0,0.0,0.0,0.0,-4.5594,-4.5594,-4.5633,-4.5787,-4.7201,-4.8856,-5.0481,-5.0712,-5.1318,-5.301,-5.3203,0.0,-5.553,-5.5703,-5.5703,-5.5703,-5.5703,-5.5703,-5.5703,-5.5703,-5.5703,-5.5703,-5.5703,-5.5703,-5.5703,-5.5703,-5.5703,-5.5703,-5.5703,-5.5703,-5.5703,-5.5703,-5.5703,-5.5703,0.0,0.0,-5.5684,-5.5568,-5.5126,-5.4395,-5.3395,-5.2538,-5.1788,-5.0991,-5.0775,-5.0898,-5.1004,-5.1195,-5.1396,-5.1405,-5.1393,-5.1399,-5.1403,-5.1405,-5.1406,-5.1406,-5.1406,-5.1406,-5.1406,-5.1406,-5.1406,-5.1406,-5.1406,-5.1406,-5.1406,-5.1406,-5.1406,-5.1406,-5.1406,-5.1367,-5.123,-5.0742,-5.0293,-5.0039,-4.9492,-4.873,-4.7734,-4.7598,-4.7266,-4.6387,-4.6308,-4.6308,-4.6308,-4.6308,-4.6308,-4.6308,-4.6308,-4.5898,-4.5017,-4.4846,-4.397,-4.2228,-4.1525,-4.1184,-4.1184,-4.1184,-4.1184,-4.1184,-4.1184,-4.1184,-4.5429,-4.5457,-4.5522,-4.5586,0.0,0.0,0.0,0.0,0.0,0.0,0.0,0.0,0.0,-4.5594,-4.5845,-4.6586,-4.8105,-4.9548,-5.0558,-5.0712,-5.1318,-5.301,0.0,-5.3857,-5.553,-5.5703,-5.5703,-5.5703,-5.5703,-5.5703,-5.5703,-5.5703,-5.5703,-5.5703,-5.5703,-5.5703,-5.5703,-5.5703,-5.5703,-5.5703,-5.5703,-5.5703,-5.5703,-5.5703,-5.5703,-5.5703,0.0,-5.5703,-5.5645,-5.4972,-5.4607,-5.4337,-5.2741,-5.2019,-5.1788,-5.0991,-5.0775,-5.0932,-5.1118,-5.1262,-5.1394,-5.1396,-5.1408,-5.1398,-5.1399,-5.1404,-5.1406,-5.1406,-5.1406,-5.1406,-5.1406,-5.1406,-5.1406,-5.1406,-5.1406,-5.1406,-5.1406,-5.1406,-5.1406,-5.1406,-5.1406,-5.1172,-5.0508,-5.0859,-5.0723,-4.9316,-4.9609,-4.9414,-4.7812,-4.7598,-4.7266,-4.6387,-4.6308,-4.6308,-4.6308,-4.6308,-4.6308,-4.6308,-4.6308,-4.5853,-4.4874,-4.4763,-4.4217,-4.3111,-4.2976,-4.2918,-4.2918,-4.2918,-4.2918,-4.2918,-4.2918,-4.2918,-4.54,-4.5419,-4.5457,-4.5522,0.0,0.0,0.0,0.0,0.0,0.0,0.0,0.0,0.0,-4.597,-4.6721,-4.8048,-4.8894,-4.9702,-5.0577,-5.0712,-5.1144,-5.2346,0.0,-5.3683,-5.4934,-5.5434,-5.5511,-5.5068,-5.5049,-5.4857,-5.4376,-5.4799,-5.5049,-5.5049,-5.5472,-5.5703,-5.5703,-5.5703,-5.5703,-5.5703,-5.5703,-5.5703,-5.5703,-5.5703,-5.5703,-5.5684,0.0,-5.5049,-5.4991,-5.4145,-5.353,-5.3029,-5.2212,-5.1635,-5.1202,-5.0846,-5.0816,-5.0972,-5.1067,-5.1238,-5.1394,-5.1394,-5.1403,-5.1394,-5.1394,-5.1402,-5.1406,-5.1406,-5.1406,-5.1406,-5.1406,-5.1406,-5.1406,-5.1406,-5.1406,-5.1406,-5.1406,-5.1406,-5.1406,-5.1406,-5.1406,-5.1289,-5.0918,-5.0781,-5.0332,-4.9082,-4.9238,-4.8867,-4.7129,-4.7305,-4.7266,-4.6387,-4.6308,-4.6308,-4.6308,-4.6308,-4.6308,-4.6308,-4.6266,-4.6028,-4.5524,-4.4986,-4.4486,-4.4001,-4.3537,-4.3305,-4.3305,-4.3305,-4.3305,-4.3305,-4.3305,-4.3305,-4.539,-4.54,-4.5419,-4.5448,0.0,0.0,0.0,0.0,0.0,0.0,0.0,0.0,0.0,-4.6778,-4.7913,-4.9183,-4.9567,-4.9933,-5.0616,-5.0712,-5.0991,-5.1788,-5.2481,-5.3241,-5.4107,-5.4741,-5.4857,-5.4241,-5.4203,-5.3895,-5.3241,-5.3837,-5.4203,-5.4203,-5.478,-5.5107,-5.5107,-5.5107,-5.5299,-5.5703,-5.5703,-5.5703,-5.5684,-5.5491,-5.5415,-5.5376,-5.4549,-5.4203,-5.4126,-5.326,-5.25,-5.1885,-5.1692,-5.1241,-5.0712,-5.0712,-5.0827,-5.1002,-5.1002,-5.1187,-5.1394,-5.1394,-5.1402,-5.1409,-5.1409,-5.1397,-5.1404,-5.1404,-5.1405,-5.1406,-5.1406,-5.1406,-5.1406,-5.1406,-5.1406,-5.1406,-5.1406,-5.1406,-5.1406,-5.1406,-5.1406,-5.1406,-5.1406,-5.0898,-5.0117,-4.9062,-4.8906,-4.8262,-4.6523,-4.6875,-4.7031,-4.6367,-4.6308,-4.6308,-4.6308,-4.6308,-4.6308,-4.6308,-4.6239,-4.6165,-4.6102,-4.5395,-4.4971,-4.4871,-4.4233,-4.3885,-4.3885,-4.3885,-4.3885,-4.3885,-4.3885,-4.3885,-4.5317,-4.5348,-4.5409,-4.5419,-4.5467,0.0,-4.5586,-4.5594,0.0,-4.5594,0.0,-4.5845,-4.6663,-4.8125,-4.926,-4.9375,-5.0067,-5.0635,-5.0693,-5.0712,-5.0991,-5.1788,-5.1962,-5.2327,-5.3222,-5.3356,-5.3356,-5.3299,-5.3299,-5.328,-5.3203,-5.326,-5.3299,-5.3299,-5.3356,-5.3376,-5.3376,-5.3376,-5.4164,-5.5703,-5.5703,-5.5703,-5.5665,-5.4934,-5.4587,-5.453,-5.3664,-5.3299,-5.3241,-5.2346,-5.1962,-5.1827,-5.1087,-5.075,-5.0712,-5.0712,-5.0827,-5.1002,-5.1002,-5.1187,-5.1394,-5.1394,-5.1402,-5.1409,-5.1409,-5.1394,-5.1399,-5.1399,-5.1402,-5.1405,-5.1406,-5.1406,-5.1406,-5.1406,-5.1406,-5.1406,-5.1406,-5.1406,-5.1406,-5.1406,-5.1406,-5.1406,-5.1406,-5.1348,-5.0762,-4.9141,-4.8906,-4.8262,-4.6523,-4.6348,-4.6367,-4.6308,-4.6308,-4.6308,-4.6308,-4.6308,-4.6308,-4.6308,-4.6239,-4.6165,-4.6102,-4.5978,-4.585,-4.571,-4.5652,-4.5613,-4.5613,-4.5613,-4.5613,-4.5613,-4.5613,-4.5613,-4.5307,-4.5317,-4.5359,-4.5381,-4.5419,0.0,0.0,-4.5594,-4.5594,-4.5594,-4.6028,-4.6836,-4.8202,-4.8971,-4.9586,-5.0106,-5.0481,-5.0712,-5.0712,-5.0712,-5.0808,-5.1125,-5.1606,-5.2019,-5.2365,-5.2876,-5.2991,-5.2423,-5.2385,-5.2183,-5.1664,-5.2125,-5.2385,-5.2385,-5.2933,-5.3203,-5.3203,-5.3203,-5.353,-5.4145,-5.4145,-5.4145,-5.4145,-5.3837,-5.3683,-5.3645,-5.2779,-5.2385,-5.2327,-5.151,-5.1144,-5.1125,-5.0827,-5.0712,-5.0712,-5.0712,-5.0799,-5.0932,-5.0997,-5.1128,-5.1291,-5.1367,-5.1396,-5.14,-5.14,-5.1407,-5.1394,-5.1394,-5.1397,-5.1402,-5.1405,-5.1406,-5.1406,-5.1406,-5.1406,-5.1406,-5.1406,-5.1406,-5.1406,-5.1406,-5.1406,-5.1406,-5.1406,-5.1406,-5.082,-4.9141,-4.8906,-4.8262,-4.6523,-4.6308,-4.6308,-4.6308,-4.6308,-4.6308,-4.6308,-4.6308,-4.6308,-4.6308,-4.6239,-4.6165,-4.6102,-4.6036,-4.5947,-4.5807,-4.5807,-4.5807,-4.5807,-4.5807,-4.5807,-4.5807,-4.5807,-4.5807,-4.4953,-4.5086,-4.5251,-4.5045,0.0,0.0,-4.5532,-4.5568,-4.5663,-4.5933,-4.6885,-4.8048,-4.9183,-4.9625,-5.001,-5.0596,-5.0712,-5.0712,-5.0712,-5.0712,-5.0712,-5.0712,-5.1183,-5.1529,-5.1529,-5.2068,-5.2164,-5.1568,-5.1529,-5.1279,-5.0731,-5.1221,-5.1529,-5.1529,-5.2106,-5.2414,-5.2414,-5.2414,-5.2414,-5.2414,-5.2414,-5.2683,-5.3203,-5.2933,-5.2799,-5.2741,-5.1895,-5.1529,-5.1491,-5.0933,-5.0712,-5.0712,-5.0712,-5.0712,-5.0712,-5.0712,-5.0775,-5.0917,-5.0979,-5.1084,-5.1214,-5.136,-5.1394,-5.1394,-5.1394,-5.14,-5.1405,-5.1405,-5.1391,-5.1397,-5.1401,-5.1405,-5.1406,-5.1406,-5.1406,-5.1406,-5.1406,-5.1406,-5.1406,-5.1406,-5.1406,-5.1406,-5.1406,-5.1406,-5.082,-4.9141,-4.8906,-4.8262,-4.6523,-4.6308,-4.6308,-4.6308,-4.6308,-4.6308,-4.6308,-4.6308,-4.6308,-4.6308,-4.6239,-4.6165,-4.6102,-4.5983,-4.5886,-4.5807,-4.5807,-4.5807,-4.5807,-4.5807,-4.5807,-4.5807,-4.5807,-4.5807,-4.4236,-4.4628,-4.5107,-4.4306,0.0,0.0,-4.539,-4.5504,-4.5827,-4.6637,-4.8183,-4.9394,-4.9413,-5.0106,-5.0712,-5.0712,-5.0712,-5.0712,-5.0712,-5.0712,-5.0712,-5.0712,-5.0712,-5.0712,-5.0712,-5.0712,-5.0712,-5.0712,-5.0712,-5.0712,-5.0712,-5.0712,-5.0712,-5.0712,-5.0712,-5.0712,-5.0712,-5.0712,-5.0712,-5.0712,-5.0712,-5.1568,-5.3145,-5.2269,-5.1885,-5.1846,-5.1048,-5.0712,-5.0712,-5.0712,-5.0712,-5.0712,-5.0712,-5.0712,-5.0712,-5.0712,-5.0775,-5.0917,-5.0979,-5.1079,-5.1214,-5.136,-5.1394,-5.1394,-5.1394,-5.1394,-5.1394,-5.1394,-5.1402,-5.1409,-5.1409,-5.1399,-5.1405,-5.1406,-5.1406,-5.1406,-5.1406,-5.1406,-5.1406,-5.1406,-5.1406,-5.1406,-5.1406,-5.1406,-5.082,-4.9141,-4.8906,-4.8262,-4.6523,-4.6308,-4.6308,-4.6308,-4.6308,-4.6308,-4.6308,-4.6308,-4.6308,-4.6308,-4.6239,-4.6162,-4.6102,-4.5914,-4.5807,-4.5807,-4.5807,-4.5807,-4.5807,-4.5807,-4.5807,-4.5807,-4.5807,-4.5807,-4.4064,-4.4178,-4.4352,-4.4153,-4.4766,-4.5408,0.0,-4.5467,0.0,0.0,-4.8577,-4.9538,-5.0202,-5.0539,-5.0712,-5.0712,-5.0712,-5.0712,-5.0712,-5.0712,-5.0712,-5.0712,-5.0712,-5.0712,-5.0712,-5.0712,-5.0712,-5.0712,-5.0712,-5.0712,-5.0712,-5.0712,-5.0712,-5.0712,-5.0712,-5.0712,-5.0712,-5.0712,-5.0712,-5.0712,-5.0712,-5.0962,-5.1433,-5.1164,-5.1048,-5.1029,-5.0808,-5.0712,-5.0712,-5.0712,-5.0712,-5.0712,-5.0712,-5.0712,-5.0712,-5.0712,-5.0731,-5.0784,-5.0946,-5.1031,-5.1108,-5.1327,-5.1394,-5.1394,-5.1394,-5.1394,-5.1394,-5.1394,-5.1396,-5.1402,-5.1408,-5.1393,-5.1398,-5.1405,-5.1406,-5.1406,-5.1406,-5.1406,-5.1406,-5.1406,-5.1406,-5.1406,-5.1406,-5.1406,-5.082,-4.9141,-4.8906,-4.8262,-4.6523,-4.6308,-4.6308,-4.6308,-4.6308,-4.6308,-4.6308,-4.6308,-4.6308,-4.6308,-4.6199,-4.6122,-4.6102,-4.6008,-4.5905,-4.5807,-4.5807,-4.5807,-4.5807,-4.5807,-4.5807,-4.5807,-4.5807,-4.5807,-4.3185,-4.3491,-4.394,-4.3655,-4.4488,-4.5378,-4.5379,-4.5966,-4.681,-4.7876,-4.9048,-5.0028,-5.0606,-5.0712,-5.0712,-5.0712,-5.0712,-5.0712,-5.0712,-5.0712,-5.0712,-5.0712,-5.0712,-5.0712,-5.0712,-5.0712,-5.0712,-5.0712,-5.0385,-5.0327,-5.0673,-5.0366,-5.0346,-5.0693,-5.0712,-5.0712,-5.0712,-5.0712,-5.0712,-5.0712,-5.0712,-5.0712,-5.0712,-5.0712,-5.0712,-5.0712,-5.0712,-5.0712,-5.0712,-5.0712,-5.0712,-5.0712,-5.0712,-5.0712,-5.0712,-5.0712,-5.0712,-5.073,-5.0933,-5.1002,-5.1042,-5.1302,-5.1394,-5.1394,-5.1394,-5.1394,-5.1394,-5.1394,-5.1394,-5.1396,-5.1402,-5.1407,-5.1393,-5.1401,-5.1405,-5.1406,-5.1406,-5.1406,-5.1406,-5.1406,-5.1406,-5.1406,-5.1406,-5.1133,-5.0469,-4.9101,-4.8301,-4.748,-4.6445,-4.6308,-4.6308,-4.6308,-4.6308,-4.6308,-4.6308,-4.6308,-4.6308,-4.6308,-4.6167,-4.6098,-4.6098,-4.5978,-4.5873,-4.5807,-4.5807,-4.5807,-4.5807,-4.5807,-4.5807,-4.5807,-4.5807,-4.5807,-4.1934,-4.2679,-4.372,-4.2985,-4.4055,-4.5317,-4.5388,-4.6683,-4.7913,-4.8077,-4.9471,-5.0683,-5.0712,-5.0712,-5.0712,-5.0712,-5.0712,-5.0712,-5.0712,-5.0712,-5.0712,-5.0712,-5.0712,-5.0712,-5.0712,-5.0712,-5.0712,-5.0712,-4.9894,-4.974,-5.0539,-4.976,-4.9644,-5.0442,-5.0462,-5.05,-5.0577,-5.0577,-5.0616,-5.0712,-5.0712,-5.0712,-5.0712,-5.0712,-5.0712,-5.0712,-5.0712,-5.0712,-5.0712,-5.0712,-5.0712,-5.0712,-5.0712,-5.0712,-5.0712,-5.0712,-5.0712,-5.073,-5.0933,-5.1002,-5.1042,-5.1302,-5.1394,-5.1394,-5.1394,-5.1394,-5.1394,-5.1394,-5.1394,-5.1394,-5.1394,-5.1402,-5.1409,-5.1395,-5.1401,-5.1404,-5.1404,-5.1406,-5.1406,-5.1406,-5.1406,-5.1387,-5.1308,-5.0683,-4.9883,-4.8926,-4.7363,-4.6308,-4.6308,-4.6308,-4.6308,-4.6308,-4.6308,-4.6308,-4.6308,-4.6308,-4.6308,-4.6308,-4.6167,-4.6098,-4.6098,-4.5908,-4.5807,-4.5807,-4.5807,-4.5807,-4.5807,-4.5807,-4.5807,-4.5807,-4.5807,-4.5807,-4.1781,-4.2259,-4.3023,-4.2832,-4.4055,-4.5307,-4.5317,-4.6174,-4.7193,-4.7943,-4.9441,-5.0633,-5.0683,-5.0712,-5.0712,-5.0712,-5.0712,-5.0712,-5.0712,-5.0712,-5.0712,-5.0712,-5.0712,-5.0712,-5.0712,-5.0712,-5.0712,-5.0712,-4.9894,-4.9471,-4.9663,-4.8856,-4.8471,-4.8644,-4.8663,-4.899,-4.9663,-4.9683,-5.001,0.0,-5.0712,-5.0712,-5.0712,-5.0712,-5.0712,-5.0712,-5.0712,-5.0712,-5.0712,-5.0712,-5.0712,-5.0712,-5.0712,-5.0712,-5.0712,-5.0712,-5.0712,-5.073,-5.0933,-5.1002,-5.1042,-5.1302,-5.1394,-5.1394,-5.1394,-5.1394,-5.1394,-5.1394,-5.1394,-5.1394,-5.1394,-5.1396,-5.1398,-5.14,-5.1393,-5.14,-5.14,-5.1403,-5.1405,-5.1405,-5.1406,-5.1191,-5.0566,-5.0312,-4.9668,-4.8105,-4.6973,-4.6308,-4.6308,-4.6308,-4.6308,-4.6308,-4.6308,-4.6308,-4.6308,-4.6308,-4.6308,-4.6308,-4.6167,-4.6098,-4.6098,-4.5908,-4.5807,-4.5807,-4.5807,-4.5807,-4.5807,-4.5807,-4.5807,-4.5807,-4.5807,-4.5807,-4.1122,-4.1533,-4.2374,-4.3176,-4.4341,-4.5307,-4.5307,-4.603,-4.6838,-4.7338,-4.8817,-5.0038,-5.0067,-5.0423,-5.0712,-5.0712,-5.0712,-5.0712,-5.0712,-5.0346,-5.0231,-5.0654,-5.0327,-5.025,-5.0654,-5.0712,-5.0712,-5.0712,-4.951,-4.8952,-4.9375,-4.8221,-4.7702,-4.8086,-4.8105,-4.8317,-4.8779,-4.8779,-4.9009,-4.9452,-4.9875,-5.0308,-5.0712,-5.0712,-5.0712,-5.0712,-5.0712,-5.0712,-5.0712,-5.0712,-5.0712,-5.0712,-5.0712,-5.0712,-5.0712,-5.0712,-5.0712,-5.0712,-5.0894,-5.072,-5.0453,-5.0621,-5.044,-5.0165,-5.0165,-5.0165,-5.0165,-5.0165,-5.0165,-5.0165,-5.0165,-5.0165,-5.0262,-5.0672,-5.1093,-5.1395,-5.1395,-5.1399,-5.1402,-5.1404,-5.1093,-5.0683,-5.0273,-4.9512,-4.8516,-4.7187,-4.6582,-4.6308,-4.6308,-4.6308,-4.6308,-4.6308,-4.6308,-4.6308,-4.6308,-4.6308,-4.6308,-4.6308,-4.6167,-4.6098,-4.6098,-4.5908,-4.5807,-4.5807,-4.5807,-4.5807,-4.5807,-4.5807,-4.5807,-4.5807,-4.5807,-4.5807,-4.0395,-4.095,-4.2087,-4.3624,-4.4666,-4.5307,-4.5307,-4.5915,-4.6483,-4.6493,-4.7924,-4.9183,-4.9183,-4.976,-5.025,-5.025,-5.025,-5.025,-5.025,-4.976,-4.9663,-5.0385,-4.9971,-4.9913,-5.0635,-5.0712,-5.0712,-5.0712,-4.9221,-4.8567,-4.9144,-4.774,-4.7144,-4.7644,-4.7663,-4.774,-4.7894,-4.7894,-4.7971,-4.8105,-4.8836,-4.9548,-5.025,-5.025,-5.0423,-5.0712,-5.0712,-5.0712,-5.0712,-5.0712,-5.0712,-5.0712,-5.0712,-5.0712,-5.0673,-5.0539,-5.0481,-5.0471,-5.0463,-5.0079,-4.9587,-4.9675,-4.9282,-4.8798,-4.8798,-4.8798,-4.8798,-4.8798,-4.8798,-4.8798,-4.8798,-4.8798,-4.8974,-4.9694,-5.0424,-5.1036,-5.1348,-5.1275,-5.1183,-5.1188,-5.0408,-4.9745,-4.9746,-4.8437,-4.7129,-4.6406,-4.6308,-4.6308,-4.6308,-4.6308,-4.6308,-4.6308,-4.6308,-4.6308,-4.6308,-4.6308,-4.6308,-4.6308,-4.6167,-4.6098,-4.6098,-4.5908,-4.5807,-4.5807,-4.5807,-4.5807,-4.5807,-4.5807,-4.5807,-4.5807,-4.5807,-4.5807,-4.0163,-4.127,-4.2851,-4.3777,-4.4666,-4.5307,-4.5307,-4.5444,-4.5562,-4.5563,-4.7021,-4.8279,-4.8279,-4.8375,-4.8452,-4.8452,-4.8452,-4.8452,-4.8452,-4.899,-4.9433,-4.9548,-5.0144,-5.0577,-5.0693,-5.0712,-5.0712,-5.0712,-4.9779,-4.8952,-4.8317,-4.7413,-4.6605,-4.596,-4.5941,-4.6297,-4.7038,-4.7058,-4.7413,-4.8105,-4.8221,-4.8336,-4.8452,-4.8452,-4.926,-5.0712,-5.0712,-5.0712,-5.0712,-5.0712,-5.0712,-5.0712,-5.0712,-5.0712,-5.0616,-4.9856,-4.9567,-4.948,-4.8868,-4.8671,-4.8699,-4.8822,-4.8836,-4.8798,-4.8798,-4.8798,-4.8798,-4.8798,-4.8798,-4.8798,-4.8798,-4.8798,-4.8837,-4.8954,-4.9054,-4.9561,-5.1064,-5.0818,-5.0278,-5.0278,-4.9018,-4.7948,-4.7949,-4.7129,-4.6426,-4.6328,-4.6308,-4.6308,-4.6308,-4.6308,-4.6308,-4.6308,-4.6308,-4.6308,-4.6308,-4.6308,-4.6308,-4.6308,-4.6167,-4.6098,-4.6098,-4.5908,-4.5807,-4.5807,-4.5807,-4.5807,-4.5807,-4.5807,-4.5807,-4.5807,-4.5807,-4.5807,-3.9902,-4.0851,-4.2098,-4.3088,-4.3959,-4.4704,-4.5182,-4.5348,-4.5389,-4.54,-4.6033,-4.6752,-4.7327,-4.7789,-4.8087,-4.8096,-4.8105,-4.8105,-4.8105,-4.8001,-4.8308,-4.9279,-4.9317,-4.9635,-5.0606,-5.0712,-5.0712,-5.0712,-4.9894,-4.9029,-4.8144,-4.7336,-4.6509,-4.5633,-4.5594,-4.5787,-4.6163,-4.6163,-4.6586,-4.7432,-4.7432,-4.7663,-4.8105,-4.8105,-4.8529,-4.924,-4.924,-4.924,-4.924,-4.924,-4.924,-4.924,-4.924,-4.924,-4.9202,-4.8817,-4.8663,-4.8634,-4.83,-4.8007,-4.7784,-4.7835,-4.7652,-4.7393,-4.7393,-4.7393,-4.7393,-4.7393,-4.7393,-4.7393,-4.7393,-4.7393,-4.751,-4.8017,-4.8135,-4.8466,-4.9677,-4.9641,-4.9235,-4.879,-4.8096,-4.7438,-4.6951,-4.6542,-4.6308,-4.6308,-4.6308,-4.6308,-4.6308,-4.6308,-4.6308,-4.6308,-4.6308,-4.6308,-4.6308,-4.6308,-4.6308,-4.6308,-4.6207,-4.6139,-4.6102,-4.5973,-4.5886,-4.5807,-4.5807,-4.5807,-4.5807,-4.5807,-4.5807,-4.5807,-4.5807,-4.5807,-3.967,-4.0446,-4.1312,-4.2157,-4.304,-4.3911,0.0,0.0,-4.512,0.0,-4.539,-4.5611,-4.6377,-4.7031,-4.7434,-4.7443,-4.7433,-4.7433,-4.7433,-4.706,-4.7252,-4.8568,-4.8347,-4.8663,-5.0163,-5.0336,-5.0442,-5.0663,-5.0087,-4.9356,-4.849,-4.7663,-4.6817,-4.5951,-4.5729,-4.5594,-4.5594,-4.5594,-4.5932,-4.6567,-4.6567,-4.6874,-4.7451,-4.7451,-4.7451,-4.749,-4.7913,-4.8105,-4.8105,-4.8105,-4.8105,-4.8105,-4.8105,-4.8105,-4.8086,-4.7875,-4.7798,-4.7759,-4.7548,-4.7183,-4.6859,-4.6849,-4.6594,-4.6267,-4.6298,-4.63,-4.63,-4.63,-4.63,-4.63,-4.63,-4.63,-4.6456,-4.712,-4.7276,-4.749,-4.833,-4.8505,-4.8254,-4.7422,-4.7273,-4.7062,-4.6419,-4.6304,-4.6306,-4.6307,-4.6308,-4.6308,-4.6308,-4.6308,-4.6308,-4.6308,-4.6308,-4.6308,-4.6308,-4.6308,-4.6308,-4.6308,-4.6239,-4.6189,-4.6128,-4.6052,-4.5972,-4.5841,-4.5841,-4.5822,-4.5807,-4.5807,-4.5807,-4.5807,-4.5807,-4.5807,0.0,-4.0302,0.0,-4.1165,-4.2041,-4.308,0.0,0.0,-4.4332,-4.5216,-4.5348,-4.5348,-4.5448,-4.5563,-4.5638,-4.5638,-4.5638,-4.5638,-4.5638,-4.6244,-4.6742,-4.6819,-4.7538,-4.8344,-4.9198,-4.9335,-4.973,-5.0545,-5.0615,-5.025,-4.9375,-4.8509,-4.7682,-4.6855,-4.6028,-4.5594,-4.5594,-4.5594,-4.5614,-4.5671,-4.5671,-4.5691,-4.5729,-4.5729,-4.5729,-4.5825,-4.7413,-4.8105,-4.8105,-4.8105,-4.8105,-4.8105,-4.8105,-4.8105,-4.8009,-4.7231,-4.6962,-4.6836,-4.6009,-4.5788,-4.588,-4.5944,-4.6035,-4.6138,-4.6269,-4.63,-4.63,-4.63,-4.63,-4.63,-4.63,-4.63,-4.63,-4.6358,-4.6378,-4.6612,-4.7469,-4.7664,-4.7414,-4.6545,-4.6371,-4.6354,-4.6301,-4.6301,-4.6303,-4.6306,-4.6307,-4.6307,-4.6308,-4.6308,-4.6308,-4.6308,-4.6308,-4.6308,-4.6308,-4.6308,-4.6308,-4.6308,-4.6239,-4.6202,-4.6181,-4.6131,-4.6056,-4.5991,-4.5991,-4.5935,-4.5807,-4.5807,-4.5807,-4.5807,-4.5807,-4.5807,0.0,0.0,0.0,-4.0665,-4.1279,-4.192,-4.2775,-4.3111,-4.3463,-4.4324,-4.4485,-4.4638,-4.5234,-4.539,-4.5438,-4.5448,-4.5429,-4.5429,-4.5429,-4.5678,-4.607,-4.6636,-4.6942,-4.7449,-4.8334,-4.845,-4.8825,-4.97,-4.9778,-4.9673,-4.9413,-4.8567,-4.774,-4.6923,-4.6047,-4.5594,-4.5594,-4.5594,-4.5594,-4.5594,-4.5594,-4.5594,-4.5594,-4.5594,-4.5594,-4.5633,-4.622,-4.649,-4.649,-4.649,-4.649,-4.649,-4.649,-4.649,-4.6451,-4.6163,-4.6067,-4.6009,-4.571,-4.5692,-4.5808,-4.5886,-4.5992,-4.6131,-4.6269,-4.63,-4.63,-4.63,-4.63,-4.63,-4.63,-4.63,-4.63,-4.63,-4.63,-4.6397,-4.669,-4.6768,-4.6672,-4.6363,-4.6305,-4.6306,-4.6309,-4.6294,-4.6297,-4.63,-4.6305,-4.6307,-4.6308,-4.6308,-4.6308,-4.6308,-4.6308,-4.6308,-4.6308,-4.6308,-4.6308,-4.6308,-4.6288,-4.6242,-4.6204,-4.6189,-4.6134,-4.608,-4.6018,-4.5922,-4.5807,-4.5807,-4.5807,-4.5807,-4.5807,-4.5807,-3.8925,0.0,0.0,0.0,-4.0359,-4.0794,-4.1645,-4.2036,-4.2463,-4.3291,-4.3526,-4.3864,-4.4704,-4.4907,-4.5024,-4.5352,-4.54,-4.54,-4.54,-4.537,-4.5579,-4.6165,-4.6192,-4.6517,-4.742,-4.7517,-4.7882,-4.8767,-4.9114,0.0,-4.9346,-4.8846,-4.8029,-4.6923,-4.6047,-4.5594,-4.5594,-4.5594,-4.5594,-4.5594,-4.5594,-4.5594,-4.5594,-4.5594,-4.5594,-4.5594,-4.5594,-4.5594,-4.5594,-4.5594,-4.5594,-4.5594,-4.5594,-4.5594,-4.5594,-4.5594,-4.5594,-4.5594,-4.5594,-4.5651,-4.5745,-4.585,-4.5969,-4.6061,-4.6245,-4.63,-4.63,-4.63,-4.63,-4.63,-4.63,-4.63,-4.63,-4.63,-4.63,-4.63,-4.63,-4.63,-4.63,-4.63,-4.63,-4.63,-4.63,-4.6305,-4.6309,-4.6293,-4.63,-4.6305,-4.6307,-4.6308,-4.6308,-4.6308,-4.6308,-4.6308,-4.6308,-4.6308,-4.6308,-4.6308,-4.6308,-4.6288,-4.6239,-4.6238,-4.6204,-4.6137,-4.6087,-4.5998,-4.5874,-4.5827,-4.5807,-4.5807,-4.5807,-4.5807,0.0,0.0,0.0,0.0,0.0,0.0,-4.0459,0.0,-4.1294,-4.2166,-4.2552,-4.2984,-4.3805,-4.3939,-4.4246,-4.5158,-4.536,-4.5398,-4.5398,-4.5338,-4.5307,-4.5307,-4.5307,-4.5602,-4.6385,-4.6524,-4.6929,-4.7801,-4.8709,-4.9249,-4.9307,-4.9346,-4.8625,-4.6942,-4.6086,-4.5633,-4.5594,-4.5594,-4.5594,-4.5594,-4.5594,-4.5594,-4.5594,-4.5594,-4.5594,-4.5594,-4.5594,-4.5594,-4.5594,-4.5594,-4.5594,-4.5594,-4.5594,-4.5594,-4.5594,-4.5594,-4.5594,-4.5594,-4.5594,-4.5594,-4.5635,-4.584,-4.5899,-4.5954,-4.6211,-4.6298,-4.6298,-4.6298,-4.63,-4.63,-4.63,-4.63,-4.63,-4.63,-4.63,-4.63,-4.63,-4.63,-4.63,-4.63,-4.63,-4.63,-4.63,-4.63,-4.6303,-4.6291,-4.6293,-4.6297,-4.6306,-4.6307,-4.6307,-4.6308,-4.6308,-4.6308,-4.6308,-4.6308,-4.6308,-4.6308,-4.6308,-4.6308,-4.6308,-4.6308,-4.6267,-4.6206,-4.6204,-4.6137,-4.6012,-4.5861,-4.5807,-4.5807,-4.5807,-4.5807,-3.8707,0.0,0.0,0.0,0.0,0.0,0.0,0.0,-4.0188,-4.0998,-4.1228,-4.16,-4.2644,-4.2848,-4.2979,-4.3443,-4.4544,-4.5328,-4.5328,-4.5317,-4.5307,-4.5307,-4.5307,-4.5403,-4.5602,-4.5661,-4.6027,0.0,-4.724,-4.7971,-4.922,-4.9346,-4.8625,-4.6942,-4.6682,-4.624,-4.5614,-4.5594,-4.5594,-4.5594,-4.5594,-4.5594,-4.5594,-4.5594,-4.5594,-4.5594,-4.5594,-4.5594,-4.5594,-4.5594,-4.5594,-4.5594,-4.5594,-4.5594,-4.5594,-4.5594,-4.5594,-4.5594,-4.5594,-4.5594,-4.5629,-4.5787,-4.5829,-4.586,-4.5969,-4.6087,-4.6167,-4.6167,-4.6236,-4.63,-4.63,-4.63,-4.63,-4.63,-4.63,-4.63,-4.63,-4.63,-4.63,-4.63,-4.63,-4.63,-4.63,-4.63,-4.6302,-4.6303,-4.6309,-4.6294,-4.6297,-4.6304,-4.6307,-4.6307,-4.6308,-4.6308,-4.6308,-4.6308,-4.6308,-4.6308,-4.6308,-4.6308,-4.6308,-4.6308,-4.6289,-4.6267,-4.6215,-4.6171,-4.6145,-4.6008,-4.5886,-4.5807,-4.5807,-4.5807,0.0,0.0,0.0,0.0,0.0,0.0,-3.8935,-3.9142,-3.9468,0.0,-4.0114,-4.0503,-4.151,-4.1685,-4.1865,-4.2394,-4.3368,-4.4247,-4.4694,-4.5067,-4.5307,-4.5307,-4.5307,-4.5307,-4.5307,-4.5307,-4.5509,-4.6018,-4.6423,-4.7432,-4.9201,-4.9019,-4.8414,-4.7423,-4.7077,-4.649,-4.5614,-4.5594,-4.5594,-4.5594,-4.5594,-4.5594,-4.5594,-4.5594,-4.5594,-4.5594,-4.5594,-4.5594,-4.5594,-4.5594,-4.5594,-4.5594,-4.5594,-4.5594,-4.5594,-4.5594,-4.5594,-4.5594,-4.5594,-4.5594,-4.562,-4.5757,-4.5807,-4.5822,-4.5944,-4.6045,-4.6105,-4.6173,-4.6243,-4.63,-4.63,-4.63,-4.63,-4.63,-4.63,-4.63,-4.63,-4.63,-4.63,-4.63,-4.63,-4.63,-4.63,-4.63,-4.63,-4.63,-4.6305,-4.6309,-4.6293,-4.63,-4.6303,-4.6305,-4.6307,-4.6308,-4.6308,-4.6308,-4.6308,-4.6308,-4.6308,-4.6308,-4.6308,-4.6308,-4.6308,-4.6308,-4.6265,-4.6235,-4.6202,-4.6091,-4.5993,-4.5873,-4.5834,-4.5807,0.0,0.0,0.0,0.0,-3.8707,0.0,-3.8707,-3.8877,-3.9045,0.0,-3.9245,-3.9633,-4.0384,-4.0528,-4.0784,-4.1593,-4.2001,-4.2583,-4.3677,-4.4522,-4.501,-4.501,-4.5086,-4.5163,-4.5163,-4.5239,-4.5307,-4.5307,-4.6113,-4.7345,-4.9067,-4.8567,-4.8251,-4.824,-4.7471,-4.6624,-4.5748,-4.5652,-4.5594,-4.5594,-4.5594,-4.5594,-4.5594,-4.5594,-4.5594,-4.5594,-4.5594,-4.5594,-4.5594,-4.5594,-4.5594,-4.5594,-4.5594,-4.5594,-4.5594,-4.5594,-4.5594,-4.5594,-4.5594,-4.5594,-4.562,-4.5734,-4.5778,-4.5808,-4.5988,-4.6053,-4.6105,-4.6269,-4.63,-4.63,-4.63,-4.63,-4.63,-4.63,-4.63,-4.63,-4.63,-4.63,-4.63,-4.63,-4.63,-4.63,-4.63,-4.63,-4.63,-4.63,-4.63,-4.6303,-4.6291,-4.6293,-4.6295,-4.6301,-4.6305,-4.6306,-4.6306,-4.6308,-4.6308,-4.6308,-4.6308,-4.6308,-4.6308,-4.6308,-4.6308,-4.6308,-4.6308,-4.6267,-4.6209,-4.6137,-4.6064,-4.6017,-4.5873,-4.5827,0.0,0.0,0.0,-3.8707,-3.8707,0.0,-3.8707,-3.8735,-3.878,0.0,-3.8807,-3.8976,-3.9328,-3.942,-3.9538,-3.9927,-4.0578,-4.1417,-4.2553,-4.3035,-4.3291,-4.3291,-4.3864,-4.4255,-4.4255,-4.4895,-4.5307,-4.5307,-4.6113,-4.7115,-4.8279,-4.8808,-4.9096,-4.9144,-4.8317,-4.7471,-4.6644,-4.5951,-4.5594,-4.5594,-4.5594,-4.5594,-4.5594,-4.5594,-4.5594,-4.5594,-4.5594,-4.5594,-4.5594,-4.5594,-4.5594,-4.5594,-4.5594,-4.5594,-4.5594,-4.5594,-4.5594,-4.5594,-4.5594,-4.5594,-4.5594,-4.5637,-4.5646,-4.5662,-4.5688,-4.5816,-4.5992,-4.6238,-4.63,-4.63,-4.63,-4.63,-4.63,-4.63,-4.63,-4.63,-4.63,-4.63,-4.63,-4.63,-4.63,-4.63,-4.63,-4.63,-4.63,-4.63,-4.63,-4.6302,-4.6303,-4.6309,-4.6294,-4.6295,-4.6301,-4.6303,-4.6303,-4.6304,-4.6305,-4.6307,-4.6307,-4.6308,-4.6308,-4.6308,-4.6308,-4.6308,-4.6308,-4.6289,-4.6288,-4.6155,-4.6091,-4.6076,-4.5998,-4.5964,-3.8707,-3.8707,-3.8707,-3.8707,-3.8707,0.0,0.0,-3.8707,-3.8707,-3.8707,-3.8707,-3.8735,-3.8881,-3.891,-3.895,-3.9073,-3.9554,-4.0093,-4.0666,-4.1704,-4.2386,-4.2386,-4.2746,-4.2993,-4.2993,-4.3402,-4.382,-4.4218,-4.4659,-4.5478,-4.6827,-4.7703,-4.8207,-4.8289,-4.7869,-4.7324,-4.6665,-4.5822,-4.5476,-4.5594,-4.5594,-4.5594,-4.5594,-4.5594,-4.5594,-4.5594,-4.5594,-4.5594,-4.5594,-4.5594,-4.5594,-4.5594,-4.5594,-4.5594,-4.5594,-4.5594,-4.5594,-4.5594,-4.5594,-4.5594,-4.5594,-4.5594,-4.5594,-4.5612,-4.5676,-4.579,-4.5935,-4.6141,-4.6518,-4.6857,-4.6938,-4.7256,-4.7549,-4.7549,-4.7549,-4.7549,-4.7549,-4.7549,-4.7432,-4.7022,-4.6944,-4.6807,-4.6378,-4.63,-4.63,-4.63,-4.63,-4.63,-4.63,-4.6305,-4.6306,-4.6306,-4.6294,-4.6297,-4.6297,-4.6301,-4.6302,-4.6305,-4.6305,-4.6306,-4.6308,-4.6308,-4.6308,-4.6308,-4.6308,-4.6308,-4.6308,-4.6238,-4.6173,-4.6147,-4.6076,-4.6032,-3.8707,-3.8707,-3.8707,-3.8707,-3.8707,-3.8707,0.0,0.0,0.0,-3.8707,0.0,0.0,0.0,0.0,0.0,0.0,0.0,0.0,0.0,-4.0369,0.0,-4.1505,-4.1662,-4.1756,-4.1756,-4.1906,-4.2282,-4.2927,-4.2964,-4.363,-4.516,-4.62,-4.6891,-4.7178,-4.7197,-4.7005,-4.6572,-4.5666,-4.5312,-4.5522,-4.5577,-4.5594,-4.5594,-4.5594,-4.5594,-4.5594,-4.5594,-4.5594,-4.5594,-4.5594,-4.5594,-4.5594,-4.5594,-4.5594,-4.5594,-4.5594,-4.5594,-4.5594,-4.5594,-4.5594,-4.5594,-4.5594,-4.5594,-4.5629,-4.5757,-4.5938,-4.6147,-4.6306,-4.6975,-4.7674,-4.7791,-4.831,-4.8798,-4.8798,-4.8798,-4.8798,-4.8798,-4.8798,-4.8603,-4.7959,-4.782,-4.751,-4.6475,-4.63,-4.63,-4.63,-4.63,-4.63,-4.63,-4.63,-4.63,-4.63,-4.6306,-4.6291,-4.6291,-4.6296,-4.63,-4.6301,-4.6301,-4.6302,-4.6306,-4.6307,-4.6308,-4.6308,-4.6308,-4.6308,-4.6308,-4.6308,-4.6267,-4.6212,-4.615,-4.608,-3.8707,-3.8707,-3.8707,-3.8707,-3.8707,-3.8707,-3.8707,0.0,-3.8707,-3.8707,0.0,0.0,0.0,0.0,0.0,0.0,0.0,0.0,-3.8735,-3.8946,-3.9256,-3.9733,-4.0416,-4.086,-4.086,-4.1537,-4.2038,-4.2132,-4.2151,-4.2566,-4.3522,-4.5022,-4.6264,-4.718,-4.7191,-4.7212,-4.7207,-4.5875,-4.5211,-4.5243,-4.5495,-4.5594,-4.5594,-4.5594,-4.5594,-4.5594,-4.5594,-4.5594,-4.5594,-4.5594,-4.5594,-4.5594,-4.5594,-4.5594,-4.5594,-4.5594,-4.5594,-4.5594,-4.5594,-4.5594,-4.5594,-4.5594,-4.5594,-4.5629,-4.5757,-4.629,-4.6939,-4.7185,-4.7887,-4.8568,-4.863,-4.872,-4.8798,-4.8798,-4.8798,-4.8798,-4.8798,-4.8798,-4.8779,-4.8681,-4.8662,-4.8154,-4.6573,-4.63,-4.63,-4.63,-4.63,-4.63,-4.63,-4.63,-4.63,-4.63,-4.6302,-4.6302,-4.6302,-4.6303,-4.6306,-4.6294,-4.6294,-4.6297,-4.6302,-4.6306,-4.6308,-4.6308,-4.6308,-4.6308,-4.6308,-4.6308,-4.6308,-4.6289,-4.6213,-4.615,-3.8836,-3.8707,-3.8707,-3.8707,-3.8707,-3.8707,-3.8707,-3.8707,-3.8707,0.0,0.0,0.0,0.0,0.0,0.0,0.0,-3.8707,0.0,0.0,0.0,-3.878,0.0,0.0,0.0,-3.9546,-3.9861,-4.0284,-4.0748,-4.0785,-4.1134,-4.1995,-4.3113,-4.4178,-4.5136,-4.5207,-4.5548,-4.6257,-4.5249,-4.4896,-4.5201,-4.5312,-4.5448,-4.5594,-4.5594,-4.5594,-4.5594,-4.5594,-4.5594,-4.5594,-4.5594,-4.5594,-4.5594,-4.5594,-4.5594,-4.5594,-4.5594,-4.5594,-4.5594,-4.5594,-4.5594,-4.5594,-4.5594,-4.5932,-4.6373,-4.6422,-4.7006,-4.7692,-4.7869,-4.8545,-4.9252,-4.9406,-4.9806,-5.0204,-5.0295,-5.0301,-5.0301,-5.0301,-5.0301,-5.0165,-4.9657,-4.9558,-4.9169,-4.7959,-4.7354,-4.7042,-4.7042,-4.6612,-4.63,-4.63,-4.63,-4.63,-4.63,-4.63,-4.63,-4.63,-4.63,-4.6302,-4.6306,-4.6291,-4.6294,-4.6296,-4.6302,-4.6306,-4.6308,-4.6308,-4.6308,-4.6308,-4.6308,-4.6308,-4.6308,-4.6267,-4.6213,-3.9208,0.0,0.0,0.0,0.0,0.0,0.0,0.0,0.0,0.0,0.0,0.0,0.0,0.0,0.0,0.0,0.0,-3.8707,0.0,-3.8707,0.0,0.0,0.0,0.0,0.0,-3.8707,-3.8946,-3.9533,-3.957,-3.9827,-4.0398,-4.1423,-4.2391,-4.3319,-4.3609,-4.4267,-4.5391,-4.4716,-4.4585,-4.4977,-4.5129,-4.5302,-4.5495,-4.5568,-4.5594,-4.5594,-4.5594,-4.5594,-4.5594,-4.5594,-4.5594,-4.5594,-4.5594,-4.5594,-4.5594,-4.5594,-4.5594,-4.5594,-4.5594,-4.5594,-4.5633,-4.5883,-4.6374,-4.6942,-4.7154,-4.7798,-4.8469,-4.8628,-4.9281,-4.9986,-5.0165,-5.0679,-5.1163,-5.1262,-5.1325,-5.1355,-5.1355,-5.1367,-5.1219,-5.0573,-5.0455,-5.026,-4.9618,-4.8623,-4.7938,-4.7938,-4.7393,-4.6905,-4.6671,-4.6651,-4.6554,-4.6339,-4.63,-4.63,-4.63,-4.63,-4.63,-4.63,-4.6306,-4.6291,-4.6293,-4.6297,-4.6301,-4.6306,-4.6306,-4.6307,-4.6308,-4.6308,-4.6308,-4.6308,-4.6308,-4.6266,0.0,0.0,0.0,-3.8779,0.0,0.0,0.0,0.0,-3.8707,0.0,0.0,0.0,0.0,0.0,0.0,0.0,0.0,0.0,0.0,0.0,0.0,0.0,0.0,0.0,0.0,-3.8707,-3.8707,-3.8744,-3.8744,-3.8762,-3.8781,-4.027,-4.153,-4.24,-4.321,-4.4086,-4.5099,-4.4573,-4.4346,-4.4425,-4.4943,-4.5201,-4.5222,-4.5485,-4.5594,-4.5594,-4.5594,-4.5594,-4.5594,-4.5594,-4.5594,-4.5594,-4.5594,-4.5594,-4.5594,-4.5594,-4.5594,-4.5594,-4.5594,-4.5594,-4.5748,-4.6586,-4.6885,-4.7038,-4.7836,-4.8663,-4.9383,-4.9513,-5.0198,-5.0874,-5.0959,-5.0989,-5.1014,-5.1014,-5.1099,-5.1207,-5.1207,-5.1319,-5.1394,-5.1355,-5.1355,-5.1355,-5.1316,-4.9891,-4.8759,-4.8759,-4.874,-4.8447,-4.7664,-4.7567,-4.7237,-4.6397,-4.63,-4.63,-4.63,-4.63,-4.63,-4.63,-4.63,-4.6305,-4.6293,-4.6293,-4.6296,-4.6301,-4.6301,-4.6302,-4.6302,-4.6302,-4.6304,-4.6307,-4.6308,-4.6266,0.0,0.0,-3.8833,-3.8986,0.0,0.0,0.0,0.0,0.0,0.0,0.0,0.0,0.0,0.0,0.0,0.0,0.0,0.0,0.0,0.0,0.0,0.0,0.0,0.0,0.0,0.0,-3.8707,-3.8707,-3.8707,-3.8707,-3.8707,-3.9221,-4.012,-4.1493,-4.1852,-4.2726,-4.4225,-4.4088,-4.4166,-4.4397,-4.4763,-4.503,-4.5211,-4.5485,-4.5594,-4.5594,-4.5594,-4.5594,-4.5594,-4.5594,-4.5594,-4.5594,-4.5594,-4.5594,-4.5594,-4.5594,-4.5594,-4.5594,-4.5594,-4.597,-4.6509,-4.6797,-4.7644,-4.8606,-4.8875,-4.9567,-5.026,-5.0325,-5.0545,-5.0793,-5.0894,-5.093,-5.0958,-5.0984,-5.1036,-5.1084,-5.1191,-5.1241,-5.1294,-5.1388,-5.1394,-5.1394,-5.1394,-5.0906,-5.0321,-4.9753,-4.9169,-4.8701,-4.8427,-4.8388,-4.8076,-4.7256,-4.7159,-4.6924,-4.6358,-4.63,-4.63,-4.63,-4.63,-4.6302,-4.6305,-4.6305,-4.6308,-4.6296,-4.6296,-4.6299,-4.6301,-4.6301,-4.6302,-4.6304,-4.6305,-4.6289,-4.1929,-4.0712,0.0,-3.9784,-3.9032,0.0,-3.8787,0.0,-3.853,0.0,0.0,0.0,0.0,0.0,0.0,0.0,0.0,0.0,0.0,-3.8707,0.0,0.0,0.0,-3.8707,0.0,-3.8707,-3.8707,-3.8707,-3.8707,-3.8707,0.0,0.0,-3.9426,-4.104,-4.1142,-4.2014,-4.3786,-4.3835,-4.4005,-4.4265,-4.4519,-4.48,-4.5063,-4.5332,-4.5504,-4.5594,-4.5594,-4.5594,-4.5594,-4.5594,-4.5594,-4.5594,-4.5594,-4.5594,-4.5594,-4.5594,-4.5594,-4.5633,-4.5951,-4.6432,-4.7,-4.7605,-4.8529,-4.9452,-4.976,-5.025,-5.0712,-5.0712,-5.0712,-5.0721,-5.081,-5.0816,-5.085,-5.0874,-5.0939,-5.0979,-5.1061,-5.1108,-5.1163,-5.1297,-5.1327,-5.1335,-5.1392,-5.1394,-5.1219,-5.0651,-5.0087,-4.9618,-4.9306,-4.9267,-4.8935,-4.8115,-4.7762,-4.7256,-4.6378,-4.63,-4.63,-4.63,-4.63,-4.63,-4.63,-4.63,-4.6733,-4.7635,-4.6757,-4.674,-4.7642,-4.6744,-4.6297,-4.6299,-4.6299,-4.6303]},{"header":{"parameterUnit":"m.s-1","parameterCategory":1,"la1":30.6,"la2":29.2853,"lo1":-89.7004,"lo2":-87.6739,"dy":0.0162,"dx":0.0183,"nx":112,"ny":82,"refTime":"2023-02-22T18:00:00:Z","depth":0,"parameterNumber":3,"parameterNumberName":"V-component_of_WINDS"},"data":[0.0,0.0,0.0,0.0,0.0,0.0,0.0,0.0,0.0,0.0,0.0,0.0,0.0,0.0,0.0,0.0,0.0,0.0,0.0,0.0,0.0,0.0,0.0,0.0,0.0,0.0,0.0,0.0,0.0,0.0,0.0,0.0,0.0,0.0,0.0,0.0,0.0,0.0,0.0,0.0,0.0,0.0,0.0,0.0,0.0,0.0,0.0,0.0,0.0,0.0,0.0,0.0,0.0,0.0,0.0,0.0,0.0,0.0,0.0,0.0,0.0,0.0,0.0,0.0,0.0,0.0,0.0,0.0,0.0,0.0,0.0,0.0,0.0,0.0,0.0,0.0,0.0,0.0,0.0,0.0,0.0,0.0,0.0,0.0,0.0,0.0,0.0,0.0,0.0,0.0,-0.26,-0.1463,-0.0651,-0.0959,-0.2736,-0.3045,-0.3851,-0.5599,0.0,0.0,0.0,0.0,0.0,0.0,0.0,0.0,0.0,0.0,0.0,0.0,0.0,0.0,0.0,0.0,0.0,0.0,0.0,0.0,0.0,0.0,0.0,0.0,0.0,0.0,0.0,0.0,0.0,0.0,0.0,0.0,0.0,0.0,0.0,0.0,0.0,0.0,0.0,0.0,0.0,0.0,0.0,0.0,0.0,0.0,0.0,0.0,0.0,0.0,0.0,0.0,0.0,0.0,0.0,0.0,0.0,0.0,0.0,0.0,0.0,0.0,0.0,0.0,0.0,0.0,0.0,0.0,0.0,0.0,0.0,0.0,0.0,0.0,0.0,0.0,0.0,0.0,0.0,0.0,0.0,0.0,0.0,0.0,0.0,0.0,0.0,0.0,0.0,0.0,0.0,0.0,0.0,0.0,0.0,0.0,0.0,0.0,0.0,0.0,0.0,0.0,0.0,0.0,-0.2303,-0.0454,-0.0813,-0.1664,-0.2823,-0.3628,-0.4567,-0.5644,0.0,0.0,0.0,0.0,0.0,0.0,0.0,0.0,0.0,0.0,0.0,0.0,0.0,0.0,0.0,0.0,0.0,0.0,0.0,0.0,0.0,0.0,0.0,0.0,0.0,0.0,0.0,0.0,0.0,0.0,0.0,0.0,0.0,0.0,0.0,0.0,0.0,0.0,0.0,0.0,0.0,0.0,0.0,0.0,0.0,0.0,0.0,0.0,0.0,0.0,0.0,0.0,0.0,0.0,0.0,0.0,0.0,0.0,0.0,0.0,0.0,0.0,0.0,0.0,0.0,0.0,0.0,0.0,0.0,0.0,0.0,0.0,0.0,0.0,0.0,0.0,0.0,0.0,0.0,0.0,0.0,0.0,0.0,0.0,0.0,0.0,0.0,0.0,0.0,0.0,0.0,0.0,0.0,0.0,0.0,0.0,0.0,0.0,0.0,0.0,0.0,0.0,0.0,-0.277,-0.1585,-0.0135,-0.0853,-0.1793,-0.2823,-0.3762,-0.4701,-0.5644,-0.5688,0.0,0.0,0.0,0.0,0.0,0.0,0.0,0.0,0.0,0.0,0.0,0.0,0.0,0.0,0.0,0.0,0.0,0.0,0.0,0.0,0.0,0.0,0.0,0.0,0.0,0.0,0.0,0.0,0.0,0.0,0.0,0.0,0.0,0.0,0.0,0.0,0.0,0.0,0.0,0.0,0.0,0.0,0.0,0.0,0.0,0.0,0.0,0.0,0.0,0.0,0.0,0.0,0.0,0.0,0.0,0.0,0.0,0.0,0.0,0.0,0.0,0.0,0.0,0.0,0.0,0.0,0.0,0.0,0.0,0.0,0.0,0.0,0.0,0.0,0.0,0.0,0.0,0.0,0.0,0.0,0.0,0.0,0.0,0.0,0.0,0.0,0.0,0.0,0.0,0.0,0.0,0.0,0.0,0.0,0.0,0.0,0.0,0.0,0.0,0.0,0.0,0.0,-0.1838,-0.0898,-0.0404,-0.1166,-0.2152,-0.3135,-0.4074,-0.4926,-0.5644,-0.5688,0.0,0.0,0.0,0.0,0.0,0.0,0.0,0.0,0.0,0.0,0.0,0.0,0.0,0.0,0.0,0.0,0.0,0.0,0.0,0.0,0.0,0.0,0.0,0.0,0.0,0.0,0.0,0.0,0.0,0.0,0.0,0.0,0.0,0.0,0.0,0.0,0.0,0.0,0.0,0.0,0.0,0.0,0.0,0.0,0.0,0.0,0.0,0.0,0.0,0.0,0.0,0.0,0.0,0.0,0.0,0.0,0.0,0.0,0.0,0.0,0.0,0.0,0.0,0.0,0.0,0.0,0.0,0.0,0.0,0.0,0.0,0.0,0.0,0.0,0.0,0.0,0.0,0.0,0.0,0.0,0.0,0.0,0.0,0.0,0.0,0.0,0.0,0.0,0.0,0.0,0.0,0.0,0.0,0.0,0.0,0.0,0.0,0.0,0.0,0.0,0.0,0.0,-0.1256,-0.0404,-0.1211,-0.2196,-0.3179,-0.4119,-0.5062,-0.5644,-0.5688,-0.5688,0.0,0.0,0.0,0.0,0.0,0.0,0.0,0.0,0.0,0.0,0.0,0.0,0.0,0.0,0.0,0.0,0.0,0.0,0.0,0.0,0.0,0.0,0.0,0.0,0.0,0.0,0.0,0.0,0.0,0.0,0.0,0.0,0.0,0.0,0.0,0.0,0.0,0.0,0.0,0.0,0.0,0.0,0.0,0.0,0.0,0.0,0.0,0.0,0.0,0.0,0.0,0.0,0.0,0.0,0.0,0.0,0.0,0.0,0.0,0.0,0.0,0.0,0.0,0.0,0.0,0.0,0.0,0.0,0.0,0.0,0.0,0.0,0.0,0.0,0.0,0.0,0.0,0.0,0.0,0.0,0.0,0.0,0.0,0.0,0.0,0.0,0.0,0.0,0.0,0.0,0.0,0.0,0.0,0.0,0.0,0.0,0.0,0.0,0.0,0.0,0.0,0.0,-0.1704,-0.0763,-0.0539,-0.1973,-0.3045,-0.3403,-0.4837,-0.5688,-0.5688,0.0,0.0,0.0,0.0,0.0,0.0,0.0,0.0,0.0,0.0,0.0,0.0,0.0,0.0,0.0,0.0,0.0,0.0,0.0,0.0,0.0,0.0,0.0,0.0,0.0,0.0,0.0,0.0,0.0,0.0,0.0,0.0,0.0,0.0,0.0,0.0,0.0,0.0,0.0,0.0,0.0,0.0,0.0,0.0,0.0,0.0,0.0,0.0,0.0,0.0,0.0,0.0,0.0,0.0,0.0,0.0,0.0,0.0,0.0,0.0,0.0,0.0,0.0,0.0,0.0,0.0,0.0,0.0,0.0,0.0,0.0,0.0,0.0,0.0,0.0,0.0,0.0,0.0,0.0,0.0,0.0,0.0,0.0,0.0,0.0,0.0,0.0,0.0,0.0,0.0,0.0,0.0,0.0,0.0,0.0,0.0,0.0,0.0,0.0,0.0,0.0,0.0,-0.2957,-0.1749,-0.0808,-0.0494,-0.1614,-0.2688,-0.3314,-0.4523,-0.5374,-0.5688,0.0,0.0,0.0,0.0,0.0,0.0,0.0,0.0,0.0,0.0,0.0,0.0,0.0,0.0,0.0,0.0,0.0,0.0,0.0,0.0,0.0,0.0,0.0,0.0,0.0,0.0,0.0,0.0,0.0,0.0,0.0,0.0,0.0,0.0,0.0,0.0,0.0,0.0,0.0,0.0,0.0,0.0,0.0,0.0,0.0,0.0,0.0,0.0,0.0,0.0,0.0,0.0,0.0,0.0,0.0,0.0,0.0,0.0,0.0,0.0,0.0,0.0,0.0,0.0,0.0,0.0,0.0,0.0,0.0,0.0,0.0,0.0,0.0,0.0,0.0,0.0,0.0,0.0,0.0,0.0,0.0,0.0,0.0,0.0,0.0,0.0,0.0,0.0,0.0,0.0,0.0,0.0,0.0,0.0,0.0,0.0,0.0,0.0,0.0,0.0,0.0,0.0,-0.2732,-0.1211,-0.0359,-0.1301,-0.1391,-0.2196,-0.4119,-0.43,-0.4701,0.0,0.0,0.0,0.0,0.0,0.0,0.0,0.0,0.0,0.0,0.0,0.0,0.0,0.0,0.0,0.0,0.0,0.0,0.0,0.0,0.0,0.0,0.0,0.0,0.0,0.0,0.0,0.0,0.0,0.0,0.0,0.0,0.0,0.0,0.0,0.0,0.0,0.0,0.0,0.0,0.0,0.0,0.0,0.0,0.0,0.0,0.0,0.0,0.0,0.0,0.0,0.0,0.0,0.0,0.0,0.0,0.0,0.0,0.0,0.0,0.0,0.0,0.0,0.0,0.0,0.0,0.0,0.0,0.0,0.0,0.0,0.0,0.0,0.0,0.0,0.0,0.0,0.0,0.0,0.0,0.0,0.0,0.0,0.0,0.0,0.0,0.0,0.0,0.0,0.0,0.0,0.0,0.0,0.0,0.0,0.0,0.0,0.0,0.0,0.0,0.0,0.0,0.0,-0.1793,-0.0763,-0.009,-0.0404,-0.0987,-0.1928,-0.3226,-0.3315,-0.3985,-0.5599,0.0,0.0,0.0,0.0,0.0,0.0,0.0,0.0,0.0,0.0,0.0,0.0,0.0,0.0,0.0,0.0,0.0,0.0,0.0,0.0,0.0,0.0,0.0,0.0,0.0,0.0,0.0,0.0,0.0,0.0,0.0,0.0,0.0,0.0,0.0,0.0,0.0,0.0,0.0,0.0,0.0,0.0,0.0,0.0,0.0,0.0,0.0,0.0,0.0,0.0,0.0,0.0,0.0,0.0,0.0,0.0,0.0,0.0,0.0,0.0,0.0,0.0,0.0,0.0,0.0,0.0,0.0,0.0,0.0,0.0,0.0,0.0,0.0,0.0,0.0,0.0,0.0,0.0,0.0,0.0,0.0,0.0,0.0,0.0,0.0,0.0,0.0,0.0,0.0,0.0,0.0,0.0,0.0,0.0,0.0,0.0,0.0,0.0,0.0,0.0,0.0,0.0,-0.1345,-0.0584,0.0,0.0,-0.0494,-0.1256,-0.2196,-0.2286,-0.3135,-0.5015,0.0,0.0,0.0,0.0,0.0,0.0,0.0,0.0,0.0,0.0,0.0,0.0,0.0,0.0,0.0,0.0,0.0,0.0,0.0,0.0,0.0,0.0,0.0,0.0,0.0,0.0,0.0,0.0,0.0,0.0,0.0,0.0,0.0,0.0,0.0,0.0,0.0,0.0,0.0,0.0,0.0,0.0,0.0,0.0,0.0,0.0,0.0,0.0,0.0,0.0,0.0,0.0,0.0,0.0,0.0,0.0,0.0,0.0,0.0,0.0,0.0,0.0,0.0,0.0,0.0,0.0,0.0,0.0,0.0,0.0,0.0,0.0,0.0,0.0,0.0,0.0,0.0,0.0,0.0,0.0,0.0,0.0,0.0,0.0,0.0,0.0,0.0,0.0,0.0,0.0,0.0,0.0,0.0,0.0,0.0,0.0,0.0,0.0,0.0,0.0,0.0,0.0,-0.1166,-0.0539,0.0,0.0,0.0,-0.0359,-0.1301,-0.1301,-0.2107,-0.403,0.0,0.0,0.0,0.0,0.0,0.0,0.0,0.0,0.0,0.0,0.0,0.0,0.0,0.0,0.0,0.0,0.0,0.0,0.0,0.0,0.0,0.0,0.0,0.0,0.0,0.0,0.0,0.0,0.0,0.0,0.0,0.0,0.0,0.0,0.0,0.0,0.0,0.0,0.0,0.0,0.0,0.0,0.0,0.0,0.0,0.0,0.0,0.0,0.0,0.0,0.0,0.0,0.0,0.0,0.0,0.0,0.0,0.0,0.0,0.0,0.6531,0.0,0.0,0.0,0.0,0.0,0.0,0.0,0.0,0.0,0.0,0.0,0.0,0.0,0.0,0.0,0.0,0.0,0.0,0.0,0.0,0.0,0.0,0.0,0.0,0.0,0.0,0.0,0.0,0.0,0.0,0.0,0.0,0.0,0.0,0.0,0.0,0.0,0.0,0.0,0.0,0.0,-0.0269,-0.0135,0.0,0.0,0.0,-0.0359,-0.1301,-0.0718,-0.1122,-0.3092,-0.3181,0.0,0.0,0.0,0.0,0.0,0.0,0.0,0.0,0.0,0.0,0.0,0.0,0.0,0.0,0.0,0.0,0.0,0.0,0.0,0.0,0.0,0.0,0.0,0.0,0.0,0.0,0.0,0.0,0.0,0.0,0.0,0.0,0.0,0.0,0.0,0.0,0.0,0.0,0.0,0.0,0.0,0.0,0.0,0.0,0.0,0.0,0.0,0.0,0.0,0.0,0.0,0.0,0.0,0.0,0.0,0.0,0.0,0.0,0.0,0.0,0.6581,0.0,0.0,0.0,0.0,0.0,0.0,0.0,0.0,0.0,0.0,0.0,0.0,0.0,0.0,0.0,0.0,0.0,0.0,0.0,0.0,0.0,0.0,0.0,0.0,0.0,0.0,0.0,0.0,0.0,0.0,0.0,0.0,0.0,0.0,0.0,0.0,0.0,0.0,0.0,0.0,0.0,0.0,0.0,0.0,0.0,-0.018,-0.0673,-0.0269,-0.0629,-0.2106,-0.2196,0.0,0.0,0.0,0.0,0.0,0.0,0.0,0.0,0.0,0.0,0.0,0.0,0.0,0.0,0.0,0.0,0.0,0.0,0.0,0.0,0.0,0.0,0.0,0.0,0.0,0.0,0.0,0.0,0.0,0.0,0.0,0.0,0.0,0.0,0.0,0.0,0.0,0.0,0.0,0.0,0.0,0.0,0.0,0.0,0.0,0.0,0.0,0.0,0.0,0.0,0.0,0.0,0.0,0.7988,0.7988,0.7988,0.7988,0.7988,0.7988,0.7988,0.7385,0.6229,0.4955,0.0,0.0,0.0,0.0,0.0,0.0,0.0,0.0,0.0,0.0,0.0,0.0,0.0,0.0,0.0,0.0,0.0,0.0,0.0,0.0,0.0,0.0,0.0,0.0,0.0,0.0,0.0,0.0,0.0,0.0,0.0,0.0,0.0,0.0,0.0,0.0,0.0,0.0,0.0,0.0,0.0,0.0,0.0,0.0,0.0,0.0,-0.0314,-0.1122,-0.1301,-0.2196,0.0,0.0,0.0,0.0,0.0,0.0,0.0,0.0,0.0,0.0,0.0,0.0,0.0,0.0,0.0,0.0,0.0,0.0,0.0,0.0,0.0,0.0,0.0,0.0,0.0,0.0,0.0,0.0,0.0,0.0,0.0,0.0,1.2093,1.0967,0.0,0.0,0.0,0.0,0.0,0.0,0.0,0.0,0.0,0.0,0.0,0.0,0.0,0.7988,0.7988,0.7988,0.7988,0.7988,0.7988,0.7988,0.7988,0.7988,0.7988,0.7988,0.7988,0.0,0.7577,0.5335,0.0,0.0,0.0,0.0,0.0,0.0,0.0,0.0,0.0,0.0,0.0,0.0,0.0,0.0,0.0,0.0,0.0,0.0,0.0,0.0,0.0,0.0,0.0,0.0,0.0,0.0,0.0,0.0,0.0,0.0,0.0,0.0,0.0,0.0,0.0,0.0,0.0,0.0,0.0,0.0,0.0,0.0,0.0,0.0,0.0,0.0,-0.0045,-0.018,-0.0942,-0.1928,-0.3045,-0.3851,0.0,0.0,0.0,0.0,0.0,0.0,0.0,0.0,0.0,0.0,0.0,0.0,0.0,0.0,0.0,0.0,0.0,0.0,0.0,0.0,0.0,0.0,0.0,0.0,0.0,0.0,0.0,0.0,0.0,1.1609,1.0779,1.0342,0.9361,0.8531,0.0,0.0,0.0,0.0,0.0,0.0,0.0,0.0,0.0,0.8167,0.817,0.8208,0.8286,0.8289,0.8289,0.8289,0.8289,0.8289,0.8289,0.8289,0.8289,0.8282,0.8204,0.817,0.8056,0.6258,0.5183,0.4438,0.0,0.0,0.0,0.0,0.0412,0.0409,0.0546,0.0497,0.0404,0.0404,0.0,0.0,0.0,0.0,0.0,0.0,0.0,0.0,0.0,0.0,0.0,0.0,0.0,0.0,0.0,0.0,0.0,0.0,0.0,0.0,0.0,0.0,0.0,0.0,0.0,0.0,0.0,0.0,0.0,0.0,0.0,0.0,0.0,0.0,0.0,0.0,-0.0404,-0.1032,-0.2017,-0.2464,-0.3358,0.0,0.0,0.0,0.0,0.0,0.0,0.0,0.0,0.0,0.0,0.0,0.0,0.0,0.0,0.0,0.0,0.0,0.0,0.0,0.0,0.0,0.0,0.0,0.0,0.0,0.0,0.0,0.0,1.073,1.0194,0.9657,0.8874,0.8283,0.0,0.0,0.0,0.0,0.0,0.0,0.815,0.8153,0.8208,0.8323,0.8378,0.8374,0.8479,0.8482,0.8482,0.8482,0.8482,0.8482,0.8482,0.8482,0.8482,0.8476,0.837,0.8378,0.8255,0.6868,0.5839,0.4922,0.3255,0.2122,0.1349,0.0825,0.0684,0.0729,0.0729,0.0729,0.0683,0.0453,0.036,0.0269,0.0045,0.0,0.0,0.0,0.0,0.0,0.0,0.0,0.0,0.0,0.0,0.0,0.0,0.0,0.0,0.0,0.0,0.0,0.0,0.0,0.0,0.0,0.0,0.0,0.0,0.0,0.0,0.0,0.0,0.0,0.0,0.0,0.0,0.0,0.0,-0.0404,-0.1345,-0.1659,-0.2598,-0.4253,0.0,0.0,0.0,0.0,0.0,0.0,0.0,0.0,0.0,0.0,0.0,0.0,0.0,0.0,0.0,0.0,0.0,0.0,0.0,0.0,0.0,0.0,0.0,0.0,0.0,0.0,0.0,0.0,0.0,0.985,0.9558,0.0,0.0,0.0,0.0,0.8248,0.831,0.8319,0.8452,0.8459,0.8462,0.8472,0.8472,0.8476,0.8482,0.8482,0.8482,0.8482,0.8482,0.8482,0.8482,0.8482,0.8482,0.8482,0.8476,0.8472,0.8386,0.6702,0.6012,0.5703,0.3065,0.2141,0.2187,0.0903,0.057,0.0808,0.0808,0.0808,0.0758,0.0465,0.0228,0.0,0.0,0.0,0.0,0.0,0.0,0.0,0.0,0.0,0.0,0.0,0.0,0.0,0.0,0.0,0.0,0.0,0.0,0.0,0.0,0.0,0.0,0.0,0.0,0.0,0.0,0.0,0.0,0.0,0.0,0.0,0.0,0.0,0.0,0.0,0.0,-0.0404,-0.1345,-0.2331,-0.3269,-0.43,-0.5196,0.0,0.0,0.0,0.0,0.0,0.0,0.0,0.0,0.0,0.0,0.0,0.0,0.0,0.0,0.0,0.0,0.0,0.0,0.0,0.0,0.0,0.0,0.0,0.0,0.0,0.0,0.0,0.0,0.982,0.9136,0.0,0.8368,0.8323,0.8347,0.8404,0.8408,0.8428,0.8479,0.8482,0.8526,0.8625,0.8723,0.8821,0.8968,0.8968,0.8968,0.8968,0.8821,0.8774,0.8774,0.8774,0.8774,0.8771,0.8672,0.8628,0.8555,0.7726,0.6457,0.4965,0.3754,0.2452,0.1239,0.0763,0.0668,0.0715,0.0715,0.0715,0.0714,0.0473,0.0235,0.0,0.0,0.0,0.0,0.0,0.0,0.0,0.0,0.0,0.0,0.0,0.0,0.0,0.0,0.0,0.0,0.0,0.0,0.0,0.0,0.0,0.0,0.0,0.0,0.0,0.0,0.0,0.0,0.0,0.0,0.0,0.0,0.0,0.0,0.0,0.0,-0.0135,-0.0494,-0.0853,-0.1793,-0.336,-0.3717,-0.4478,0.0,0.0,0.0,0.0,0.0,0.0,0.0,0.0,0.0,0.0,0.0,0.0,0.0,0.0,0.0,0.0,0.0,0.0,0.0,0.0,0.0,0.0,0.0,0.0,0.0,1.0145,0.9566,0.9387,0.8749,0.8397,0.8547,0.856,0.8601,0.8753,0.8763,0.873,0.8781,0.8784,0.8832,0.8933,0.9035,0.9133,0.9286,0.9286,0.9262,0.9207,0.9055,0.8984,0.8885,0.8885,0.8885,0.8878,0.8832,0.8788,0.8723,0.8358,0.6967,0.5101,0.4277,0.3019,0.1666,0.0877,0.0632,0.073,0.073,0.0629,0.0433,0.0433,0.024,0.0,0.0,0.0,0.0,0.0,0.0,0.0,0.0,0.0,0.0,0.0,0.0,0.0,0.0,0.0,0.0,0.0,0.0,0.0,0.0,0.0,0.0,0.0,0.0,0.0,0.0,0.0,0.0,0.0,0.0,0.0,0.0,0.0,0.0,0.0,0.0,0.0,0.0,-0.0629,-0.1569,-0.2867,-0.3539,-0.4478,-0.5688,0.0,0.0,0.0,0.0,0.0,0.0,0.0,0.0,0.0,0.0,0.0,0.0,0.0,0.0,0.0,0.0,0.0,0.0,0.0,0.0,0.0,0.0,0.0,0.9778,0.9782,0.9449,0.8633,0.8496,0.8557,0.8716,0.873,0.8849,0.9197,0.9217,0.9282,0.9371,0.9381,0.9381,0.9381,0.9388,0.9388,0.9388,0.9388,0.9313,0.9224,0.9214,0.9079,0.8892,0.8885,0.8885,0.8885,0.8885,0.8885,0.8871,0.8455,0.7522,0.6185,0.4458,0.3777,0.3461,0.1221,0.0556,0.0758,0.0758,0.0449,0.0049,0.0295,0.0194,0.0,0.0,0.0,0.0,0.0,0.0,0.0,0.0,0.0,0.0,0.0,0.0,0.0,0.0,0.0,0.0,0.0,0.0,0.0,0.0,0.0,0.0,0.0,0.0,0.0,0.0,0.0,0.0,0.0,0.0,0.0,0.0,0.0,0.0,0.0,0.0,0.0,0.0,-0.1793,-0.2822,-0.2911,-0.4748,-0.5688,-0.5688,0.0,0.0,0.0,0.0,0.0,0.0,0.0,0.0,0.0,0.0,0.0,0.0,0.0,0.0,0.0,0.0,0.0,0.0,0.0,0.0,0.0,0.9349,0.8976,0.9681,0.9274,0.8832,0.8781,0.8815,0.8913,0.9171,0.9198,0.9232,0.9313,0.9317,0.9337,0.9381,0.9381,0.9381,0.9381,0.949,0.9547,0.9547,0.9547,0.9527,0.9483,0.9316,0.9187,0.9089,0.8988,0.8885,0.8885,0.8885,0.8885,0.8878,0.8783,0.8265,0.7295,0.4756,0.3217,0.2161,0.0684,0.0156,0.0206,0.0203,0.0101,0.0,0.01,0.005,0.0,0.0,0.0,0.0,0.0,0.0,0.0,0.0,0.0,0.0,0.0,0.0,0.0,0.0,0.0,0.0,0.0,0.0,0.0,0.0,0.0,0.0,0.0,0.0,0.0,0.0,0.0,0.0,0.0,0.0,0.0,0.0,0.0,0.0,0.0,0.0,0.0,0.0,-0.0494,-0.148,-0.2867,-0.4748,-0.5688,0.0,0.0,0.0,0.0,0.0,0.0,0.0,0.0,0.0,0.0,0.0,0.0,0.0,0.0,0.0,0.0,0.0,0.0,0.0,0.0,0.0,0.0,0.888,0.8758,0.9331,0.8991,0.8788,0.9086,0.9123,0.9215,0.9452,0.9476,0.95,0.9561,0.9564,0.9564,0.9564,0.9564,0.9564,0.9564,0.9652,0.9696,0.9696,0.9696,0.9666,0.9605,0.9364,0.9272,0.9204,0.9005,0.8885,0.8885,0.8885,0.8885,0.8885,0.8885,0.8546,0.0,0.0,0.0,0.0,0.0,0.0,0.0,0.0,0.0,0.0,0.0,0.0,0.0,0.0,0.0,0.0,0.0,0.0,0.0,0.0,0.0,0.0,0.0,0.0,0.0,0.0,0.0,0.0,0.0,0.0,0.0,0.0,0.0,0.0,0.0,0.0,0.0,0.0,0.0,0.0,0.0,0.0,0.0,0.0,0.0,0.0,0.0,0.0,-0.0359,-0.1166,-0.1211,0.0,0.0,0.0,-0.5688,-0.5688,0.0,0.0,0.0,-0.5688,-0.5863,0.0,0.0,0.0,0.0,0.0,0.0,0.0,0.0,0.0,0.0,0.0,0.0,0.0,0.0,0.0,0.0,0.876,0.8902,0.8952,0.8959,0.9113,0.9374,0.9408,0.9466,0.9618,0.9635,0.9686,0.9812,0.9822,0.9822,0.9822,0.9822,0.0,0.0,0.0,0.9822,0.9822,0.9822,0.9758,0.9632,0.9462,0.931,0.9231,0.9011,0.8885,0.8885,0.8885,0.8885,0.8885,0.8885,0.8546,0.7864,0.6533,0.486,0.2948,0.0807,0.0,0.0,0.0,0.0,0.0,0.0,0.0,0.0,0.0,0.0,0.0,0.0,0.0,0.0,0.0,0.0,0.0,0.0,0.0,0.0,0.0,0.0,0.0,0.0,0.0,0.0,0.0,0.0,0.0,0.0,0.0,0.0,0.0,0.0,0.0,0.0,0.0,0.0,0.0,0.0,0.0,0.0,0.0,-0.0763,-0.251,-0.2778,-0.3673,-0.5374,-0.5599,-0.5688,-0.5688,-0.5688,-0.5688,-0.5688,-0.5688,-0.5863,0.0,0.0,0.0,0.0,0.0,0.0,0.0,0.0,0.0,0.0,0.0,0.0,0.0,0.0,0.0,0.8804,0.8844,0.901,0.9429,0.9479,0.9503,0.9557,0.9564,0.9622,0.9768,0.9781,0.9791,0.9819,0.9822,0.9822,0.9822,0.9822,0.9822,0.9822,0.9822,0.9822,0.9822,0.9822,0.9805,0.9778,0.0,0.0,0.9327,0.9062,0.8885,0.8885,0.8885,0.8885,0.8885,0.8885,0.8546,0.7762,0.5123,0.2728,0.0612,0.0164,0.0,0.0,0.0,0.0,0.0,0.0,0.0,0.0,0.0,0.0,0.0,0.0,0.0,0.0,0.0,0.0,0.0,0.0,0.0,0.0,0.0,0.0,0.0,0.0,0.0,0.0,0.0,0.0,0.0,0.0,0.0,0.0,0.0,0.0,0.0,0.0,0.0,0.0,0.0,0.0,0.0,0.0,0.0,-0.018,-0.0539,-0.2062,-0.3092,-0.3449,-0.4926,-0.5688,-0.5688,-0.5688,-0.5688,-0.5688,-0.5688,-0.5863,0.0,0.0,0.0,0.0,0.0,0.0,0.0,0.0,0.0,0.0,0.0,0.8425,0.8577,0.0,0.8808,0.911,0.9225,0.9354,0.9578,0.9673,0.9717,0.9717,0.9717,0.9744,0.9815,0.9822,0.9822,0.9822,0.9822,0.9822,0.9822,0.9822,0.9822,0.9822,0.9822,0.9822,0.9822,0.9822,0.9822,0.9819,0.9598,0.9496,0.9486,0.9184,0.9045,0.9042,0.8967,0.8885,0.8881,0.8549,0.7931,0.6922,0.4528,0.2854,0.1678,0.0444,0.0,0.0,0.0,0.0,0.0,0.0,0.0,0.0,0.0,0.0,0.0,0.0,0.0,0.0,0.0,0.0,0.0,0.0,0.0,0.0,0.0,0.0,0.0,0.0,0.0,0.0,0.0,0.0,0.0,0.0,0.0,0.0,0.0,0.0,0.0,0.0,0.0,0.0,0.0,0.0,0.0,0.0,0.0,-0.0456,-0.141,-0.2388,-0.336,-0.43,-0.524,-0.5688,-0.5688,-0.5688,-0.5688,-0.5688,-0.5822,-0.6038,0.0,0.0,0.0,0.0,0.0,0.0,0.0,0.8221,0.8364,0.8364,0.8448,0.8645,0.8838,0.8932,0.9113,0.9381,0.953,0.9618,0.9646,0.9747,0.9822,0.9822,0.9822,0.9822,0.9822,0.9822,0.9822,0.9822,0.9822,0.9822,0.9822,0.9822,0.9822,0.9822,0.9822,0.9822,0.9822,0.9822,0.9822,0.9819,0.9676,0.9608,0.9602,0.9323,0.9255,0.9248,0.9045,0.8981,0.8922,0.839,0.754,0.642,0.4528,0.3692,0.3301,0.0896,0.0,0.0,0.0,0.0,0.0,0.0,0.0,0.0,0.0,0.0,0.0,0.0,0.0,0.0,0.0,0.0,0.0,0.0,0.0,0.0,0.0,0.0,0.0,0.0,0.0,0.0,0.0,0.0,0.0,0.0,0.0,0.0,0.0,0.0,0.0,0.0,0.0,0.0,0.0,0.0,0.0,0.0,0.0,-0.079,-0.2552,-0.2834,-0.3716,-0.5485,-0.5644,-0.5721,-0.5721,-0.5699,-0.5688,-0.5688,-0.5997,-0.6213,0.8025,0.814,0.8245,0.8245,0.834,0.8431,0.0,0.8445,0.8459,0.8459,0.8686,0.8844,0.8875,0.9154,0.9388,0.9557,0.9598,0.9652,0.9781,0.9812,0.9822,0.9822,0.9822,0.9822,0.9822,0.9822,0.9822,0.9822,0.9822,0.9822,0.9822,0.9822,0.9822,0.9822,0.9822,0.9822,0.9822,0.9822,0.9822,0.9819,0.9676,0.9608,0.9605,0.9435,0.9354,0.9347,0.9251,0.9187,0.9176,0.888,0.8436,0.7595,0.5308,0.4081,0.3301,0.0896,0.0,0.0,0.0,0.0,0.0,0.0,0.0,0.0,0.0,0.0,0.0,0.0,0.0,0.0,0.0,0.0,0.0,0.0,0.0,0.0,0.0,0.0,0.0,0.0,0.0,0.0,0.0,0.0,0.0,0.0,0.0,0.0,0.0,0.0,0.0,0.0,0.0,0.0,0.0,0.0,0.0,0.0,0.0,-0.0522,-0.1707,-0.2554,-0.3542,-0.477,-0.5522,-0.5885,-0.5882,-0.5737,-0.5688,-0.5688,-0.5997,-0.6213,0.8313,0.8343,0.8394,0.8394,0.8438,0.8482,0.8482,0.855,0.8638,0.873,0.8916,0.9117,0.9296,0.9429,0.9561,0.9707,0.9734,0.9754,0.9812,0.9822,0.9822,0.9822,0.9822,0.9822,0.9822,0.9822,0.9822,0.9822,0.9822,0.9822,0.9822,0.9822,0.9822,0.9822,0.9822,0.9822,0.9822,0.9822,0.9822,0.9822,0.9761,0.9734,0.9727,0.9581,0.9466,0.9378,0.9313,0.9344,0.9273,0.8957,0.8102,0.6907,0.4989,0.3522,0.2351,0.0616,0.0,0.0,0.0,0.0,0.0,0.0,0.0,0.0,0.0,0.0,0.0,0.0,0.0,0.0,0.0,0.0,0.0,0.0,0.0,0.0,0.0,0.0,0.0,0.0,0.0,0.0,0.0,0.0,0.0,0.0,0.0,0.0,0.0,0.0,0.0,0.0,0.0,0.0,0.0,0.0,0.0,0.0,0.0,-0.0727,-0.237,-0.2774,-0.3801,-0.5467,-0.5847,-0.601,-0.601,-0.5961,-0.5937,-0.5937,-0.6164,-0.6299,0.8482,0.8513,0.8557,0.8598,0.8638,0.8679,0.872,0.8815,0.8927,0.9039,0.9178,0.9347,0.9568,0.9642,0.97,0.9805,0.9822,0.9822,0.9822,0.9822,0.9822,0.9822,0.9822,0.9822,0.9822,0.9822,0.9822,0.9822,0.9822,0.9822,0.9822,0.9822,0.9822,0.9822,0.9822,0.9822,0.9822,0.9822,0.9822,0.9822,0.9822,0.9822,0.9819,0.9713,0.9608,0.95,0.9459,0.9445,0.9432,0.905,0.8163,0.6803,0.4914,0.3423,0.2127,0.056,0.0,0.0,0.0,0.0,0.0,0.0,0.0,0.0,0.0,0.0,0.0,0.0,0.0,0.0,0.0,0.0,0.0,0.0,0.0,0.0,0.0,0.0,0.0,0.0,0.0,0.0,0.0,0.0,0.0,0.0,0.0,0.0,0.0,0.0,0.0,0.0,0.0,0.0,0.0,0.0,0.0,0.0,0.0,-0.0939,-0.296,-0.3066,-0.4057,-0.6133,-0.6151,-0.6135,-0.6135,-0.6102,-0.6086,-0.6086,-0.6317,-0.6408,0.8482,0.8591,0.8737,0.8834,0.9028,0.9228,0.932,0.9357,0.9361,0.9367,0.949,0.9598,0.9608,0.9724,0.9815,0.9822,0.9822,0.9822,0.9822,0.9822,0.9822,0.9822,0.9822,0.9822,0.9822,0.9822,0.9822,0.9822,0.9822,0.9822,0.9822,0.9822,0.9822,0.9822,0.9822,0.9822,0.9822,0.9822,0.9822,0.9822,0.9822,0.9822,0.9822,0.9815,0.9812,0.9798,0.9663,0.9602,0.9591,0.9439,0.8944,0.8019,0.5604,0.4192,0.3245,0.0896,0.0,0.0,0.0,0.0,0.0,0.0,0.0,0.0,0.0,0.0,0.0,0.0,0.0,0.0,0.0,0.0,0.0,0.0,0.0,0.0,0.0,0.0,0.0,0.0,0.0,0.0,0.0,0.0,0.0,0.0,0.0,0.0,0.0,0.0,0.0,0.0,0.0,0.0,0.0,0.0,0.0,0.0,0.0,-0.0958,-0.312,-0.3169,-0.4219,-0.6326,-0.632,-0.6311,-0.6311,-0.6143,-0.6086,-0.6086,-0.6317,-0.6408,0.8903,0.9019,0.9042,0.9195,0.9269,0.9317,0.9367,0.9381,0.9408,0.951,0.9574,0.9639,0.9734,0.9788,0.9822,0.9822,0.9822,0.9822,0.9822,0.9822,0.9822,0.9822,0.9822,0.9822,0.9822,0.9822,0.9822,0.9822,0.9822,0.9822,0.9822,0.9822,0.9822,0.9822,0.9822,0.9822,0.9822,0.9822,0.9822,0.9822,0.9822,0.9822,0.9822,0.9822,0.9822,0.9819,0.9771,0.9751,0.9737,0.9591,0.867,0.7192,0.5422,0.3824,0.2331,0.0619,0.0,0.0,0.0,0.0,0.0,0.0,0.0,0.0,0.0,0.0,0.0,0.0,0.0,0.0,0.0,0.0,0.0,0.0,0.0,0.0,0.0,0.0,0.0,0.0,0.0,0.0,0.0,0.0,0.0,0.0,0.0,0.0,0.0,0.0,0.0,0.0,0.0,0.0,0.0,0.0,0.0,0.0,0.0,-0.0958,-0.3123,-0.3224,-0.4228,-0.6334,-0.6399,-0.638,-0.638,-0.6339,-0.6317,-0.6317,-0.6366,-0.6415,0.9183,0.9251,0.9326,0.9425,0.9462,0.9476,0.9527,0.95,0.949,0.9588,0.9564,0.9554,0.9646,0.9707,0.9744,0.9744,0.9788,0.9822,0.9822,0.9822,0.9822,0.9822,0.9822,0.9822,0.9822,0.9822,0.9822,0.9822,0.9822,0.9822,0.9822,0.9822,0.9822,0.9822,0.9822,0.9822,0.9822,0.9822,0.9822,0.9822,0.9822,0.9822,0.9822,0.9822,0.9822,0.9822,0.9822,0.9822,0.9815,0.9724,0.8806,0.7365,0.5516,0.3878,0.2407,0.0681,0.0,0.0,0.0,0.0,0.0,0.0,0.0,0.0,0.0,0.0,0.0,0.0,0.0,0.0,0.0,0.0,0.0,0.0,0.0,0.0,0.0,0.0,0.0,0.0,0.0,0.0,0.0,0.0,0.0,0.0,0.0,0.0,0.0,0.0,0.0,0.0,0.0,0.0,0.0,0.0,0.0,0.0,0.0,-0.0958,-0.3123,-0.3224,-0.4228,-0.6334,-0.6387,-0.6387,-0.6387,-0.6396,-0.6377,-0.6374,-0.6331,-0.6312,0.9228,0.934,0.9429,0.9581,0.9618,0.9656,0.9791,0.971,0.9608,0.9608,0.949,0.9381,0.9381,0.95,0.9602,0.9608,0.9724,0.9812,0.9819,0.9822,0.9822,0.9822,0.9822,0.9822,0.9822,0.9822,0.9822,0.9822,0.0,0.9822,0.9822,0.9822,0.9822,0.9822,0.9822,0.9822,0.9822,0.9822,0.9822,0.9822,0.9822,0.9822,0.9822,0.9822,0.9822,0.9822,0.9822,0.9822,0.9822,0.9822,0.9376,0.8477,0.5885,0.4423,0.3504,0.0919,0.0,0.0,0.0,0.0,0.0,0.0,0.0,0.0,0.0,0.0,0.0,0.0,0.0,0.0,0.0,0.0,0.0,0.0,0.0,0.0,0.0,0.0,0.0,0.0,0.0,0.0,0.0,0.0,0.0,0.0,0.0,0.0,0.0,0.0,0.0,0.0,0.0,0.0,0.0,0.0,0.0,0.0,0.0,-0.0958,-0.3123,-0.3224,-0.4228,-0.6334,-0.6387,-0.6387,-0.6387,-0.6323,-0.6317,-0.6314,-0.6143,-0.6086,0.9432,0.952,0.9588,0.973,0.9768,0.9778,0.9812,0.971,0.9608,0.9608,0.949,0.9381,0.9381,0.9412,0.9476,0.9591,0.9639,0.97,0.9805,0.9822,0.9822,0.9822,0.9822,0.9822,0.9822,0.9822,0.9822,0.9822,0.9822,0.9822,0.9822,0.9822,0.9822,0.9822,0.9822,0.9822,0.9822,0.9822,0.9822,0.9822,0.9822,0.9822,0.9822,0.9822,0.9822,0.9822,0.9822,0.9822,0.9822,0.9822,0.9438,0.8606,0.591,0.4452,0.3554,0.098,0.0,0.0,0.0,0.0,0.0,0.0,0.0,0.0,0.0,0.0,0.0,0.0,0.0,0.0,0.0,0.0,0.0,0.0,0.0,0.0,0.0,0.0,0.0,0.0,0.0,0.0,0.0,0.0,0.0,0.0,0.0,0.0,0.0,0.0,0.0,0.0,0.0,0.0,0.0,0.0,0.0,0.0,0.0,-0.0958,-0.3123,-0.3224,-0.4228,-0.6334,-0.6387,-0.6387,-0.6387,-0.6323,-0.6317,-0.6314,-0.6143,-0.6086,0.9561,0.9656,0.9724,0.9802,0.9822,0.9805,0.9741,0.9615,0.949,0.9422,0.9289,0.9188,0.9188,0.9239,0.931,0.9395,0.952,0.9639,0.9717,0.9781,0.9822,0.9822,0.9822,0.9822,0.9822,0.9822,0.9822,0.9822,0.9822,0.9822,0.9822,0.9822,0.9822,0.9822,0.9822,0.9822,0.9822,0.9822,0.9822,0.9822,0.9822,0.9822,0.9822,0.9822,0.9822,0.9822,0.0,0.9822,0.9822,0.9822,0.9518,0.8781,0.5964,0.4609,0.3812,0.099,0.0,0.0,0.0,0.0,0.0,0.0,0.0,0.0,0.0,0.0,0.0,0.0,0.0,0.0,0.0,0.0,0.0,0.0,0.0,0.0,0.0,0.0,0.0,0.0,0.0,0.0,0.0,0.0,0.0,0.0,0.0,0.0,0.0,0.0,0.0,0.0,0.0,0.0,0.0,0.0,0.0,0.0,0.0,-0.0958,-0.3123,-0.3224,-0.4228,-0.6334,-0.6387,-0.6363,-0.6363,-0.6246,-0.6159,-0.6105,-0.5988,-0.5931,0.9632,0.9727,0.9822,0.9822,0.9822,0.9785,0.9642,0.9493,0.9337,0.9241,0.9039,0.8885,0.8885,0.9042,0.9187,0.9207,0.9374,0.9564,0.9605,0.9717,0.9798,0.9819,0.9822,0.9822,0.9822,0.9822,0.9822,0.9822,0.9822,0.9822,0.9822,0.9822,0.9822,0.9822,0.9822,0.9822,0.9822,0.9822,0.9822,0.9822,0.9822,0.9822,0.9822,0.9822,0.9822,0.9822,0.9822,0.9822,0.9822,0.9822,0.9579,0.9028,0.6082,0.4706,0.4051,0.1059,0.0,0.0,0.0,0.0,0.0,0.0,0.0,0.0,0.0,0.0,0.0,0.0,0.0,0.0,0.0,0.0,0.0,0.0,0.0,0.0,0.0,0.0,0.0,0.0,0.0,0.0,0.0,0.0,0.0,0.0,0.0,0.0,0.0,0.0,0.0,0.0,0.0,0.0,0.0,0.0,0.0,0.0,0.0,-0.0958,-0.3123,-0.3224,-0.4228,-0.6334,-0.6387,-0.638,-0.6317,-0.6146,-0.6024,-0.5899,-0.5739,-0.5688,0.9751,0.9802,0.9822,0.9822,0.9822,0.9785,0.9642,0.9493,0.9337,0.9241,0.9039,0.8885,0.8885,0.8902,0.9015,0.919,0.9255,0.932,0.9574,0.9632,0.969,0.9805,0.9822,0.9822,0.9822,0.9822,0.9822,0.9822,0.9822,0.9822,0.9822,0.9822,0.9822,0.9822,0.9822,0.9822,0.9822,0.9822,0.9822,0.9822,0.9822,0.9822,0.9822,0.9822,0.9822,0.9822,0.9822,0.0,0.9822,0.9822,0.9579,0.9028,0.6082,0.4706,0.4051,0.1059,0.0,0.0,0.0,0.0,0.0,0.0,0.0,0.0,0.0,0.0,0.0,0.0,0.0,0.0,0.0,0.0,0.0,0.0,0.0,0.0,0.0,0.0,0.0,0.0,0.0,0.0,0.0,0.0,0.0,0.0,0.0,0.0,0.0,0.0,0.0,0.0,0.0,0.0,0.0,0.0,0.0,0.0,0.0,-0.0958,-0.3123,-0.3224,-0.4228,-0.6334,-0.6387,-0.638,-0.6317,-0.6146,-0.6024,-0.5899,-0.5739,-0.5688,0.9781,0.9822,0.9822,0.9822,0.9768,0.9673,0.9523,0.9371,0.9255,0.8971,0.8869,0.8818,0.8818,0.8818,0.8869,0.9018,0.9103,0.9262,0.9351,0.951,0.9635,0.9703,0.9778,0.9822,0.9822,0.9822,0.9822,0.9822,0.9822,0.9822,0.9822,0.9822,0.9822,0.9822,0.9822,0.9822,0.9822,0.9822,0.9822,0.9822,0.9822,0.9822,0.9822,0.9822,0.9822,0.9822,0.9822,0.9451,0.8839,0.9515,0.9329,0.841,0.6813,0.5573,0.4392,0.2122,0.0753,0.0,0.0,0.0,0.0,0.0,0.0,0.0,0.0,0.0,0.0,0.0,0.0,0.0,0.0,0.0,0.0,0.0,0.0,0.0,0.0,0.0,0.0,0.0,0.0,0.0,0.0,0.0,0.0,0.0,0.0,0.0,0.0,0.0,0.0,0.0,0.0,0.0,0.0,0.0,0.0,0.0,0.0,-0.0944,-0.3126,-0.3207,-0.4228,-0.6334,-0.638,-0.629,-0.6173,-0.6051,-0.5928,-0.5814,-0.5715,-0.5688,0.9744,0.9798,0.9815,0.9785,0.9693,0.9561,0.9374,0.9215,0.9032,0.8764,0.8682,0.8662,0.8662,0.8686,0.875,0.8814,0.9011,0.9173,0.9207,0.9388,0.9571,0.9605,0.9734,0.9822,0.9822,0.9822,0.9822,0.9822,0.9822,0.9822,0.9822,0.9822,0.9822,0.9822,0.9822,0.9822,0.9822,0.9822,0.9822,0.9822,0.9822,0.9822,0.9822,0.9822,0.9822,0.9822,0.9822,0.9207,0.841,0.939,0.9207,0.8224,0.7667,0.6445,0.4795,0.3129,0.1513,0.0115,0.0,0.0,0.0,0.0,0.0,0.0,0.0,0.0,0.0,0.0,0.0,0.0,0.0,0.0,0.0,0.0,0.0,0.0,0.0,0.0,0.0,0.0,0.0,0.0,0.0,0.0,0.0,0.0,0.0,0.0,0.0,0.0,0.0,0.0,0.0,0.0,0.0,0.0,0.0,0.0,0.0,-0.0926,-0.3065,-0.3159,-0.4177,-0.6311,-0.6274,-0.6168,-0.6045,-0.595,-0.5844,-0.5688,-0.5688,-0.5688,0.9625,0.9724,0.9788,0.9659,0.9618,0.9534,0.9299,0.9062,0.891,0.8743,0.8601,0.8503,0.8503,0.8618,0.8716,0.0,0.0,0.9005,0.919,0.9354,0.9452,0.9595,0.9734,0.9822,0.9822,0.9822,0.9822,0.9822,0.9822,0.9822,0.9822,0.9822,0.9822,0.9822,0.9822,0.9822,0.9822,0.9822,0.9822,0.9822,0.9822,0.9822,0.9822,0.9822,0.9822,0.9822,0.9822,0.9761,0.0,0.9761,0.9761,0.9451,0.7975,0.6568,0.5096,0.3188,0.163,0.0401,0.0113,0.0,0.0,0.0,0.0,0.0,0.0,0.0,0.0,0.0,0.0,0.0,0.0,0.0,0.0,0.0,0.0,0.0,0.0,0.0,0.0,0.0,0.0,0.0,0.0,0.0,0.0,0.0,0.0,0.0,0.0,0.0,0.0,0.0,0.0,0.0,0.0,0.0,0.0,0.0,0.0,-0.0907,-0.2955,-0.3008,-0.4012,-0.6069,-0.6108,-0.6043,-0.592,-0.5909,-0.5844,-0.5688,-0.5688,-0.5688,0.9445,0.9513,0.9544,0.9486,0.9401,0.9361,0.9238,0.8971,0.8757,0.8604,0.8459,0.8357,0.8357,0.8404,0.0,0.0,0.0,0.0,0.9005,0.915,0.93,0.9452,0.9602,0.9727,0.9812,0.9822,0.9822,0.9822,0.9822,0.9822,0.9822,0.9822,0.9822,0.9822,0.9822,0.9822,0.9822,0.9822,0.9822,0.9822,0.9822,0.9822,0.9822,0.9822,0.9822,0.9822,0.9822,0.939,0.0,0.9511,0.9329,0.8653,0.8775,0.7947,0.6429,0.4854,0.3274,0.1799,0.0622,0.0224,0.0224,0.0056,0.0,0.0,0.0,0.0,0.0,0.0,0.0,0.0,0.0,0.0,0.0,0.0,0.0,0.0,0.0,0.0,0.0,0.0,0.0,0.0,0.0,0.0,0.0,0.0,0.0,0.0,0.0,0.0,0.0,0.0,0.0,0.0,0.0,0.0,0.0,0.0,0.0,-0.0888,-0.2893,-0.3022,-0.3991,-0.6039,-0.6013,-0.5953,-0.5904,-0.5833,-0.5731,-0.5688,-0.5688,-0.5688,0.9273,0.9347,0.9371,0.9323,0.9289,0.9187,0.9098,0.8825,0.8601,0.8452,0.8303,0.8204,0.8204,0.8241,0.0,0.0,0.0,0.8747,0.8801,0.9035,0.9251,0.9357,0.949,0.9649,0.9747,0.9795,0.9822,0.9822,0.9822,0.9822,0.9822,0.9822,0.9822,0.9822,0.9822,0.9822,0.9822,0.9822,0.9822,0.9822,0.9822,0.9822,0.9822,0.9822,0.9822,0.9822,0.9822,0.9268,0.0,0.9451,0.9268,0.8532,0.9454,0.8815,0.7291,0.5922,0.4388,0.2731,0.1132,0.0505,0.0393,0.0168,0.0056,0.0,0.0,0.0,0.0,0.0,0.0,0.0,0.0,0.0,0.0,0.0,0.0,0.0,0.0,0.0,0.0,0.0,0.0,0.0,0.0,0.0,0.0,0.0,0.0,0.0,0.0,0.0,0.0,0.0,0.0,0.0,0.0,0.0,0.0,0.0,0.0,-0.0876,-0.2881,-0.2967,-0.3923,-0.5934,-0.5896,-0.5852,-0.5852,-0.5729,-0.5688,-0.5688,-0.5688,-0.5688,0.9173,0.9323,0.9344,0.9251,0.921,0.9132,0.8781,0.8598,0.8445,0.8354,0.815,0.7992,0.7992,0.8167,0.0,0.0,0.0,0.0,0.8713,0.8967,0.921,0.921,0.9422,0.9608,0.9612,0.9737,0.9822,0.9822,0.9822,0.0,0.9822,0.9822,0.9822,0.9822,0.9822,0.9822,0.9822,0.9822,0.9822,0.9822,0.9822,0.9822,0.9822,0.9822,0.9822,0.9822,0.9822,0.9822,0.0,0.9822,0.9822,0.9758,0.9822,0.8883,0.7433,0.5959,0.4473,0.2976,0.1409,0.0673,0.0393,0.0393,0.0224,0.0,0.0,0.0,0.0,0.0,0.0,0.0,0.0,0.0,0.0,0.0,0.0,0.0,0.0,0.0,0.0,0.0,0.0,0.0,0.0,0.0,0.0,0.0,0.0,0.0,0.0,0.0,0.0,0.0,0.0,0.0,0.0,0.0,0.0,0.0,0.0,-0.087,-0.2826,-0.2913,-0.3764,-0.5649,-0.5691,-0.5691,-0.5691,-0.5688,-0.5688,-0.5688,-0.5688,-0.5688,0.8682,0.873,0.8754,0.8706,0.8746,0.8669,0.8574,0.8442,0.8378,0.833,0.8147,0.7988,0.7988,0.8029,0.0,0.0,0.0,0.0,0.0,0.8882,0.9042,0.9197,0.9422,0.9649,0.9744,0.9795,0.9822,0.9822,0.9822,0.9822,0.9822,0.9822,0.9822,0.9822,0.9822,0.9822,0.9822,0.9822,0.9822,0.9822,0.9822,0.9822,0.9822,0.9822,0.9822,0.9822,0.9822,0.9822,0.9822,0.9822,0.9822,0.9822,0.9822,0.9429,0.881,0.7434,0.6038,0.4629,0.2982,0.1792,0.0953,0.0561,0.0336,0.0224,0.0056,0.0,0.0,0.0,0.0,0.0,0.0,0.0,0.0,0.0,0.0,0.0,0.0,0.0,0.0,0.0,0.0,0.0,0.0,0.0,0.0,0.0,0.0,0.0,0.0,0.0,0.0,0.0,0.0,0.0,0.0,0.0,0.0,0.0,0.0,-0.0876,-0.2834,-0.2887,-0.3762,-0.5644,-0.5688,-0.5688,-0.5688,-0.5688,-0.5688,-0.5688,-0.5688,-0.5688,0.0,0.8482,0.8482,0.8482,0.8482,0.8469,0.8414,0.8385,0.8255,0.8197,0.8106,0.7988,0.7988,0.7988,0.0,0.0,0.0,0.0,0.0,0.8804,0.9015,0.9272,0.9408,0.9602,0.9802,0.9822,0.9822,0.9822,0.9822,0.9822,0.9822,0.9822,0.9822,0.9822,0.9822,0.9822,0.9822,0.9822,0.9822,0.9822,0.9822,0.9822,0.9822,0.9822,0.9822,0.9822,0.9822,0.9822,0.0,0.9822,0.9822,0.9815,0.9764,0.9652,0.9386,0.8009,0.6672,0.5326,0.3815,0.2408,0.1234,0.0841,0.0561,0.0336,0.0056,0.0,0.0,0.0,0.0,0.0,0.0,0.0,0.0,0.0,0.0,0.0,0.0,0.0,0.0,0.0,0.0,0.0,0.0,0.0,0.0,0.0,0.0,0.0,0.0,0.0,0.0,0.0,0.0,0.0,0.0,0.0,0.0,0.0,0.0,-0.0704,-0.2261,-0.2689,-0.361,-0.5151,-0.5508,-0.5688,-0.5688,-0.5688,-0.5688,-0.5688,-0.5688,-0.5688,0.0,0.0,0.0,0.8448,0.8448,0.8418,0.8286,0.8255,0.0,0.8019,0.7988,0.7988,0.7988,0.7988,0.7988,0.0,0.0,0.8482,0.8482,0.8747,0.9049,0.9347,0.9381,0.9496,0.9791,0.9822,0.9822,0.9822,0.9822,0.9822,0.9822,0.9822,0.9822,0.9822,0.9822,0.9822,0.9822,0.9822,0.9822,0.9822,0.9822,0.9822,0.9822,0.9822,0.9822,0.0,0.9822,0.9822,0.9822,0.9822,0.9822,0.9805,0.9663,0.9517,0.9245,0.8001,0.6625,0.525,0.4137,0.2687,0.1346,0.129,0.0897,0.0336,0.0112,0.0,0.0,0.0,0.0,0.0,0.0,0.0,0.0,0.0,0.0,0.0,0.0,0.0,0.0,0.0,0.0,0.0,0.0,0.0,0.0,0.0,0.0,0.0,0.0,0.0,0.0,0.0,0.0,0.0,0.0,0.0,0.0,0.0,0.0,-0.0434,-0.1486,-0.2402,-0.3383,-0.4399,-0.5243,-0.5688,-0.5688,-0.5688,-0.5688,-0.5688,-0.5688,-0.5688,0.0,0.0,0.0,0.0,0.0,0.0,0.0,0.0,0.0,0.0,0.0,0.7988,0.7988,0.7988,0.7988,0.7988,0.8289,0.8482,0.8482,0.8747,0.9049,0.9347,0.9381,0.9496,0.9791,0.9822,0.9822,0.9822,0.9822,0.9822,0.9822,0.9822,0.9822,0.9822,0.9822,0.9822,0.9822,0.9822,0.9822,0.9822,0.9822,0.9822,0.9822,0.9822,0.9822,0.9822,0.9822,0.9822,0.9822,0.9822,0.9822,0.9805,0.9663,0.9517,0.9364,0.8923,0.7359,0.5361,0.5083,0.3525,0.1627,0.1402,0.0897,0.0393,0.0336,0.0168,0.0,0.0,0.0,0.0,0.0,0.0,0.0,0.0,0.0,0.0,0.0,0.0,0.0,0.0,0.0,0.0,0.0,0.0,0.0,0.0,0.0,0.0,0.0,0.0,0.0,0.0,0.0,0.0,0.0,0.0,0.0,0.0,0.0,-0.0781,-0.256,-0.2813,-0.3726,-0.5496,-0.5642,-0.5688,-0.5688,-0.5688,-0.5688,-0.5688,-0.5688,-0.5688,0.0,0.0,0.0,0.0,0.0,0.0,0.0,0.0,0.0,0.0,0.0,0.7988,0.7988,0.7988,0.7988,0.7988,0.8289,0.853,0.8672,0.8835,0.9049,0.9347,0.9381,0.9496,0.0,0.9822,0.9822,0.9822,0.9822,0.9822,0.9822,0.9822,0.9822,0.9822,0.9822,0.9822,0.9822,0.9822,0.9822,0.9822,0.9822,0.9822,0.9822,0.9822,0.9822,0.9822,0.9822,0.9822,0.9822,0.9822,0.9781,0.971,0.9561,0.9412,0.9316,0.911,0.7821,0.6089,0.5584,0.3804,0.1739,0.1402,0.1009,0.0617,0.0449,0.0224,0.0,0.0,0.0,0.0,0.0,0.0,0.0,0.0,0.0,0.0,0.0,0.0,0.0,0.0,0.0,0.0,0.0,0.0,0.0,0.0,0.0,0.0,0.0,0.0,0.0,0.0,0.0,0.0,0.0,0.0,0.0,0.0,0.0,-0.0495,-0.1568,-0.2495,-0.3899,-0.5858,-0.5748,-0.5688,-0.5688,-0.5688,-0.5688,-0.5688,-0.5688,-0.5688,0.0,0.0,0.0,0.0,0.0,0.0,0.0,0.0,0.0,0.0,0.0,0.0,0.7988,0.7988,0.7995,0.8022,0.8323,0.8615,0.8844,0.8885,0.9049,0.9347,0.9381,0.0,0.9791,0.9822,0.9822,0.9822,0.9822,0.9822,0.9822,0.9822,0.9822,0.9822,0.9822,0.9822,0.9822,0.9822,0.9822,0.9822,0.9822,0.9822,0.9822,0.9822,0.9822,0.9822,0.0,0.0,0.9819,0.9798,0.972,0.9591,0.9415,0.9323,0.919,0.8991,0.8156,0.6927,0.5586,0.3692,0.1739,0.1458,0.1177,0.0841,0.0561,0.028,0.0,0.0,0.0,0.0,0.0,0.0,0.0,0.0,0.0,0.0,0.0,0.0,0.0,0.0,0.0,0.0,0.0,0.0,0.0,0.0,0.0,0.0,0.0,0.0,0.0,0.0,0.0,0.0,0.0,0.0,0.0,0.0,0.0,-0.015,-0.0442,-0.2252,-0.4089,-0.5888,-0.5836,-0.5742,-0.5742,-0.5742,-0.5742,-0.5742,-0.5742,-0.5742,0.8676,0.8528,0.8283,0.8038,0.0,0.0,0.0,0.0,0.0,0.0,0.0,0.0,0.0,0.7988,0.8032,0.8214,0.8482,0.8737,0.8858,0.8885,0.9049,0.9347,0.0,0.9496,0.9791,0.9822,0.9822,0.9822,0.9822,0.9822,0.9822,0.9822,0.9822,0.9822,0.9822,0.9822,0.9822,0.9822,0.9822,0.9822,0.9822,0.9822,0.9822,0.9822,0.9822,0.9822,0.0,0.9822,0.9812,0.9693,0.9629,0.9581,0.93,0.9231,0.919,0.8991,0.8156,0.6818,0.4641,0.2967,0.1795,0.1739,0.1346,0.0897,0.0841,0.0449,0.0,0.0,0.0,0.0,0.0,0.0,0.0,0.0,0.0,0.0,0.0,0.0,0.0,0.0,0.0,0.0,0.0,0.0,0.0,0.0,0.0,0.0,0.0,0.0,0.0,0.0,0.0,0.0,0.0,0.0,0.0,0.0,0.0,-0.075,-0.245,-0.3769,-0.494,-0.6059,-0.604,-0.6032,-0.6032,-0.6032,-0.6032,-0.6032,-0.6032,-0.6032,0.8825,0.8726,0.8528,0.8283,0.0,0.0,0.0,0.0,0.0,0.0,0.0,0.0,0.0,0.8106,0.8238,0.8472,0.8621,0.8764,0.8861,0.8885,0.9018,0.9289,0.0,0.9466,0.9686,0.9774,0.9788,0.971,0.9707,0.9673,0.9588,0.9663,0.9707,0.9707,0.9781,0.9822,0.9822,0.9822,0.9822,0.9822,0.9822,0.9822,0.9822,0.9822,0.9822,0.9819,0.0,0.9707,0.9696,0.9547,0.9439,0.9351,0.9265,0.9163,0.9028,0.8908,0.7765,0.6033,0.4973,0.3358,0.1795,0.1795,0.1514,0.1121,0.1121,0.0673,0.0224,0.0224,0.0112,0.0,0.0,0.0,0.0,0.0,0.0,0.0,0.0,0.0,0.0,0.0,0.0,0.0,0.0,0.0,0.0,0.0,0.0,0.0,0.0,0.0,0.0,0.0,0.0,0.0,0.0,0.0,0.0,0.0,-0.0555,-0.1557,-0.3034,-0.4134,-0.5167,-0.6184,-0.6119,-0.6086,-0.6086,-0.6086,-0.6086,-0.6086,-0.6086,-0.6086,0.8977,0.8928,0.8829,0.8577,0.0,0.0,0.0,0.0,0.0,0.0,0.0,0.0,0.0,0.8248,0.8448,0.8672,0.874,0.8804,0.8868,0.8885,0.8991,0.919,0.9313,0.9388,0.954,0.9652,0.9673,0.9564,0.9557,0.9503,0.9388,0.9493,0.9557,0.9557,0.9659,0.9717,0.9717,0.9717,0.9751,0.9822,0.9822,0.9822,0.9819,0.9785,0.9771,0.9764,0.9618,0.9557,0.9544,0.9391,0.9316,0.9207,0.9173,0.9035,0.8885,0.8885,0.7426,0.5417,0.5417,0.3804,0.1795,0.1795,0.157,0.129,0.129,0.0953,0.0505,0.0505,0.0336,0.0056,0.0,0.0,0.0,0.0,0.0,0.0,0.0,0.0,0.0,0.0,0.0,0.0,0.0,0.0,0.0,0.0,0.0,0.0,0.0,0.0,0.0,0.0,0.0,0.0,0.0,0.0,0.0,0.0,-0.1009,-0.2066,-0.3173,-0.4171,-0.5223,-0.6306,-0.6217,-0.6168,-0.6168,-0.6168,-0.6168,-0.6168,-0.6168,-0.6168,0.9529,0.9381,0.9084,0.8829,0.8581,0.0,0.8038,0.7988,0.0,0.7988,0.0,0.8032,0.8228,0.8486,0.8686,0.8706,0.8828,0.8871,0.8881,0.8885,0.8991,0.919,0.9221,0.9286,0.9384,0.9408,0.9408,0.9398,0.9398,0.9395,0.9381,0.9391,0.9398,0.9398,0.9408,0.9412,0.9412,0.9412,0.9551,0.9822,0.9822,0.9822,0.9815,0.9686,0.9625,0.9615,0.9462,0.9398,0.9388,0.9289,0.9221,0.9197,0.9008,0.8892,0.8885,0.8885,0.7426,0.5417,0.5417,0.3804,0.1795,0.1795,0.157,0.129,0.129,0.1121,0.0841,0.0841,0.0617,0.0336,0.0056,0.0,0.0,0.0,0.0,0.0,0.0,0.0,0.0,0.0,0.0,0.0,0.0,0.0,0.0,0.0,0.0,0.0,0.0,0.0,0.0,0.0,0.0,0.0,0.0,0.0,0.0,0.0,-0.1009,-0.2066,-0.3173,-0.4225,-0.5275,-0.6373,-0.6365,-0.636,-0.636,-0.636,-0.636,-0.636,-0.636,-0.636,0.9579,0.9529,0.9331,0.8924,0.8726,0.0,0.0,0.7988,0.7988,0.7988,0.8116,0.8258,0.8499,0.8635,0.8743,0.8835,0.8844,0.8885,0.8885,0.8885,0.8902,0.9015,0.91,0.9231,0.9292,0.9323,0.9344,0.9303,0.9296,0.9201,0.911,0.9191,0.9296,0.9296,0.9334,0.9381,0.9381,0.9381,0.9439,0.9547,0.9547,0.9547,0.9547,0.9493,0.9466,0.9459,0.9306,0.9296,0.9286,0.9083,0.9018,0.9015,0.8905,0.8885,0.8885,0.8885,0.7875,0.6366,0.5641,0.4305,0.28,0.2018,0.1739,0.1627,0.1627,0.1402,0.1121,0.1121,0.0953,0.0617,0.0336,0.0112,0.0,0.0,0.0,0.0,0.0,0.0,0.0,0.0,0.0,0.0,0.0,0.0,0.0,0.0,0.0,0.0,0.0,0.0,0.0,0.0,0.0,0.0,0.0,0.0,0.0,0.0,-0.1009,-0.2066,-0.3173,-0.423,-0.5286,-0.6387,-0.6387,-0.6387,-0.6387,-0.6387,-0.6387,-0.6387,-0.6387,-0.6387,0.9555,0.9583,0.9464,0.9011,0.0,0.0,0.8336,0.8137,0.8052,0.8203,0.832,0.8472,0.8672,0.875,0.8818,0.8865,0.8885,0.8885,0.8885,0.8885,0.8885,0.8885,0.9025,0.9086,0.9086,0.9181,0.9198,0.9093,0.9086,0.9042,0.8888,0.9032,0.9086,0.9086,0.9188,0.9242,0.9242,0.9242,0.9242,0.9242,0.9242,0.9289,0.9381,0.9334,0.931,0.93,0.915,0.9086,0.9079,0.8981,0.8885,0.8885,0.8885,0.8885,0.8885,0.8885,0.8156,0.693,0.5808,0.4582,0.3413,0.2186,0.1795,0.1795,0.1795,0.1627,0.1458,0.1458,0.1234,0.0953,0.0729,0.0393,0.0112,0.0,0.0,0.0,0.0,0.0,0.0,0.0,0.0,0.0,0.0,0.0,0.0,0.0,0.0,0.0,0.0,0.0,0.0,0.0,0.0,0.0,0.0,0.0,0.0,0.0,-0.1009,-0.2066,-0.3173,-0.458,-0.5634,-0.6387,-0.6387,-0.6387,-0.6387,-0.6387,-0.6387,-0.6387,-0.6387,-0.6387,0.9453,0.9486,0.9485,0.9115,0.0,0.0,0.8874,0.8382,0.8132,0.8591,0.8713,0.871,0.8713,0.8835,0.8885,0.8885,0.8885,0.8885,0.8885,0.8885,0.8885,0.8885,0.8885,0.8885,0.8885,0.8885,0.8885,0.8885,0.8885,0.8885,0.8885,0.8885,0.8885,0.8885,0.8885,0.8885,0.8885,0.8885,0.8885,0.8885,0.8885,0.9093,0.9371,0.9275,0.9207,0.92,0.9001,0.8885,0.8885,0.8885,0.8885,0.8885,0.8885,0.8885,0.8885,0.8885,0.8156,0.693,0.5808,0.4637,0.3413,0.2186,0.1795,0.1795,0.1795,0.1795,0.1795,0.1795,0.157,0.129,0.129,0.0841,0.0336,0.0056,0.0,0.0,0.0,0.0,0.0,0.0,0.0,0.0,0.0,0.0,0.0,0.0,0.0,0.0,0.0,0.0,0.0,0.0,0.0,0.0,0.0,0.0,0.0,0.0,-0.1009,-0.2116,-0.3173,-0.5231,-0.6387,-0.6387,-0.6387,-0.6387,-0.6387,-0.6387,-0.6387,-0.6387,-0.6387,-0.6387,0.9416,0.9441,0.9377,0.9083,0.9108,0.9187,0.0,0.8684,0.0,0.0,0.8839,0.9014,0.8852,0.8854,0.8885,0.8885,0.8885,0.8885,0.8885,0.8885,0.8885,0.8885,0.8885,0.8885,0.8885,0.8885,0.8885,0.8885,0.8885,0.8885,0.8885,0.8885,0.8885,0.8885,0.8885,0.8885,0.8885,0.8885,0.8885,0.8885,0.8885,0.8929,0.9069,0.9022,0.9001,0.8998,0.8902,0.8885,0.8885,0.8885,0.8885,0.8885,0.8885,0.8885,0.8885,0.8885,0.866,0.81,0.6086,0.5139,0.4528,0.2465,0.1795,0.1795,0.1795,0.1795,0.1795,0.1795,0.1739,0.157,0.1346,0.1177,0.0897,0.0393,0.0112,0.0,0.0,0.0,0.0,0.0,0.0,0.0,0.0,0.0,0.0,0.0,0.0,0.0,0.0,0.0,0.0,0.0,0.0,0.0,0.0,0.0,0.0,0.0,-0.1714,-0.2871,-0.3173,-0.4531,-0.5636,-0.6387,-0.6387,-0.6387,-0.6387,-0.6387,-0.6387,-0.6387,-0.6387,-0.6387,0.9229,0.9294,0.934,0.908,0.9203,0.9335,0.9232,0.8987,0.8729,0.8657,0.8869,0.9047,0.8923,0.8885,0.8885,0.8885,0.8885,0.8885,0.8885,0.8885,0.8885,0.8885,0.8885,0.8885,0.8885,0.8885,0.8885,0.8885,0.8828,0.8817,0.8878,0.8824,0.8821,0.8881,0.8885,0.8885,0.8885,0.8885,0.8885,0.8885,0.8885,0.8885,0.8885,0.8885,0.8885,0.8885,0.8885,0.8885,0.8885,0.8885,0.8885,0.8885,0.8885,0.8885,0.8885,0.8885,0.8885,0.8546,0.6197,0.5417,0.5027,0.2576,0.1795,0.1795,0.1795,0.1795,0.1795,0.1795,0.1795,0.1739,0.157,0.1402,0.1177,0.0729,0.0393,0.0168,0.0168,0.0056,0.0,0.0,0.0,0.0,0.0,0.0,0.0,0.0,0.0,0.0,0.0,0.0,0.0,0.0,0.0,0.0,0.0,0.0,0.0,0.0,-0.2016,-0.3224,-0.3224,-0.463,-0.5734,-0.6387,-0.6387,-0.6387,-0.6387,-0.6387,-0.6387,-0.6387,-0.6387,-0.6387,0.8913,0.9072,0.9343,0.9137,0.9364,0.9529,0.9286,0.9286,0.9205,0.8965,0.8946,0.8937,0.8885,0.8885,0.8885,0.8885,0.8885,0.8885,0.8885,0.8885,0.8885,0.8885,0.8885,0.8885,0.8885,0.8885,0.8885,0.8885,0.8798,0.8771,0.8854,0.8774,0.8754,0.8838,0.8841,0.8848,0.8861,0.8861,0.8868,0.8885,0.8885,0.8885,0.8885,0.8885,0.8885,0.8885,0.8885,0.8885,0.8885,0.8885,0.8885,0.8885,0.8885,0.8885,0.8885,0.8885,0.8885,0.8546,0.6197,0.5417,0.5027,0.2576,0.1795,0.1795,0.1795,0.1795,0.1795,0.1795,0.1795,0.1795,0.1795,0.157,0.129,0.1065,0.0729,0.0449,0.0449,0.0224,0.0056,0.0056,0.0,0.0,0.0,0.0,0.0,0.0,0.0,0.0,0.0,0.0,0.0,0.0,0.0,0.0,0.0,0.0,0.0,0.0,-0.2016,-0.3224,-0.3224,-0.5281,-0.6387,-0.6387,-0.6387,-0.6387,-0.6387,-0.6387,-0.6387,-0.6387,-0.6387,-0.6387,0.8881,0.8982,0.9145,0.9104,0.9364,0.9579,0.9529,0.9342,0.912,0.894,0.9108,0.9213,0.8937,0.8885,0.8885,0.8885,0.8885,0.8885,0.8885,0.8885,0.8885,0.8885,0.8885,0.8885,0.8885,0.8885,0.8885,0.8885,0.8798,0.8723,0.8757,0.8615,0.8547,0.8577,0.8581,0.8638,0.8757,0.876,0.8818,0.0,0.8885,0.8885,0.8885,0.8885,0.8885,0.8885,0.8885,0.8885,0.8885,0.8885,0.8885,0.8885,0.8885,0.8885,0.8885,0.8885,0.8885,0.8546,0.6197,0.5417,0.5027,0.2576,0.1795,0.1795,0.1795,0.1795,0.1795,0.1795,0.1795,0.1795,0.1795,0.1739,0.1683,0.1627,0.1177,0.0785,0.0785,0.0561,0.0336,0.0336,0.0168,0.0,0.0,0.0,0.0,0.0,0.0,0.0,0.0,0.0,0.0,0.0,0.0,0.0,0.0,0.0,0.0,0.0,-0.2016,-0.3224,-0.3224,-0.5281,-0.6387,-0.6387,-0.6387,-0.6387,-0.6387,-0.6387,-0.6387,-0.6387,-0.6387,-0.6387,0.8882,0.8828,0.9007,0.9177,0.9425,0.9579,0.9579,0.9365,0.9104,0.8987,0.9048,0.8992,0.8828,0.8834,0.8885,0.8885,0.8885,0.8885,0.8885,0.8821,0.8801,0.8875,0.8817,0.8804,0.8875,0.8885,0.8885,0.8885,0.873,0.8632,0.8706,0.8503,0.8411,0.8479,0.8482,0.852,0.8601,0.8601,0.8642,0.872,0.8794,0.8814,0.8885,0.8885,0.8885,0.8885,0.8885,0.8885,0.8885,0.8885,0.8885,0.8885,0.8885,0.8885,0.8885,0.8885,0.8885,0.8657,0.6813,0.5835,0.5025,0.3207,0.2202,0.1752,0.1752,0.1752,0.1752,0.1752,0.1752,0.1752,0.1752,0.1752,0.1755,0.177,0.1449,0.1065,0.1065,0.0841,0.0617,0.0449,0.0279,0.0166,0.0,0.0,0.0,0.0,0.0,0.0,0.0,0.0,0.0,0.0,0.0,0.0,0.0,0.0,0.0,0.0,-0.2016,-0.3224,-0.3224,-0.5281,-0.6387,-0.6387,-0.6387,-0.6387,-0.6387,-0.6387,-0.6387,-0.6387,-0.6387,-0.6387,0.9094,0.8844,0.8946,0.9322,0.9494,0.9579,0.9579,0.9341,0.9088,0.9037,0.8828,0.8672,0.8672,0.8774,0.8804,0.8804,0.8804,0.8804,0.8804,0.8774,0.8757,0.8828,0.8811,0.8801,0.8871,0.8885,0.8885,0.8885,0.8679,0.8564,0.8665,0.8418,0.8313,0.8401,0.8404,0.8418,0.8445,0.8445,0.8459,0.8482,0.8611,0.8737,0.8804,0.8804,0.8834,0.8885,0.8885,0.8885,0.8885,0.8885,0.8885,0.8885,0.8885,0.8885,0.8878,0.8854,0.8844,0.8673,0.7486,0.626,0.5048,0.3855,0.2691,0.1704,0.1704,0.1704,0.1704,0.1704,0.1704,0.1704,0.1704,0.1704,0.171,0.179,0.1596,0.1392,0.1401,0.1175,0.0893,0.0614,0.0495,0.0326,0.0054,0.0,0.0,0.0,0.0,0.0,0.0,0.0,0.0,0.0,0.0,0.0,0.0,0.0,0.0,0.0,-0.2016,-0.3224,-0.3224,-0.5281,-0.6387,-0.6387,-0.6387,-0.6387,-0.6387,-0.6387,-0.6387,-0.6387,-0.6387,-0.6387,0.9828,0.9386,0.9108,0.9355,0.9494,0.9579,0.9579,0.9401,0.9115,0.8908,0.8662,0.8513,0.8513,0.853,0.8543,0.8543,0.8543,0.8543,0.8543,0.8638,0.8716,0.8737,0.8842,0.8861,0.8881,0.8885,0.8885,0.8885,0.8777,0.8632,0.852,0.836,0.8218,0.8052,0.8049,0.8163,0.8347,0.835,0.836,0.8482,0.8503,0.8523,0.8543,0.8543,0.8686,0.8885,0.8885,0.8885,0.8885,0.8885,0.8885,0.8885,0.8885,0.8885,0.8868,0.8791,0.874,0.8558,0.7194,0.603,0.4904,0.3735,0.2613,0.1704,0.1704,0.1704,0.1704,0.1704,0.1704,0.1704,0.1704,0.1704,0.1705,0.171,0.1659,0.1677,0.1727,0.1497,0.1207,0.1207,0.0749,0.0314,0.0052,0.0,0.0,0.0,0.0,0.0,0.0,0.0,0.0,0.0,0.0,0.0,0.0,0.0,0.0,0.0,-0.2016,-0.3224,-0.3224,-0.5281,-0.6387,-0.6387,-0.6387,-0.6387,-0.6387,-0.6387,-0.6387,-0.6387,-0.6387,-0.6387,1.0226,0.9807,0.9622,0.9306,0.9344,0.9502,0.9604,0.9381,0.9183,0.9031,0.8844,0.8612,0.8398,0.8588,0.8696,0.8535,0.8482,0.8482,0.8482,0.8626,0.8681,0.8689,0.8807,0.8919,0.8923,0.8885,0.8885,0.8885,0.8798,0.8645,0.8489,0.8347,0.8201,0.7995,0.7988,0.8022,0.814,0.814,0.8214,0.8364,0.8364,0.8404,0.8482,0.8482,0.8557,0.8682,0.8682,0.8682,0.8682,0.8682,0.8682,0.8682,0.8682,0.8682,0.8676,0.8608,0.8581,0.8521,0.792,0.6587,0.5022,0.4501,0.3123,0.1655,0.1655,0.1655,0.1655,0.1655,0.1655,0.1655,0.1655,0.1655,0.1659,0.1677,0.1681,0.1692,0.1735,0.1625,0.1504,0.1331,0.0944,0.0569,0.0461,0.0305,0.0202,0.0202,0.0101,0.0,0.0,0.0,0.0,0.0,0.0,0.0,0.0,0.0,0.0,0.0,-0.1462,-0.2569,-0.3173,-0.468,-0.5787,-0.6387,-0.6387,-0.6387,-0.6387,-0.6387,-0.6387,-0.6387,-0.6387,-0.6387,1.0722,1.0225,1.0061,0.9539,0.9345,0.9384,0.0,0.0,0.9231,0.0,0.908,0.8866,0.8491,0.8611,0.8684,0.8526,0.847,0.847,0.847,0.8669,0.8811,0.8782,0.8906,0.9019,0.9071,0.8989,0.8951,0.9047,0.8832,0.8703,0.855,0.8404,0.8255,0.8102,0.8012,0.7988,0.7988,0.7988,0.8099,0.8211,0.8211,0.8265,0.8367,0.8367,0.8367,0.8374,0.8448,0.8482,0.8482,0.8482,0.8482,0.8482,0.8482,0.8482,0.8479,0.8442,0.8428,0.8421,0.8384,0.7104,0.5391,0.5131,0.3667,0.1969,0.1667,0.1617,0.1617,0.1617,0.1617,0.1617,0.1617,0.1617,0.1622,0.1645,0.1651,0.1658,0.1688,0.1694,0.1632,0.1345,0.1083,0.0873,0.081,0.0657,0.0455,0.0404,0.0253,0.0101,0.0,0.0,0.0,0.0,0.0,0.0,0.0,0.0,0.0,0.0,-0.1009,-0.1966,-0.2771,-0.3827,-0.4883,-0.5984,-0.5984,-0.6134,-0.6387,-0.6387,-0.6387,-0.6387,-0.6387,-0.6387,0.0,1.0705,0.0,1.0168,0.9609,0.9157,0.0,0.0,0.9373,0.9251,0.9381,0.9381,0.8886,0.8599,0.8407,0.8407,0.8407,0.8407,0.8407,0.878,0.9086,0.9101,0.9187,0.9342,0.9452,0.9255,0.9161,0.9368,0.9096,0.8804,0.8706,0.8554,0.8408,0.8262,0.8116,0.7988,0.7988,0.7988,0.7992,0.8002,0.8002,0.8005,0.8012,0.8012,0.8012,0.8029,0.836,0.8482,0.8482,0.8482,0.8482,0.8482,0.8482,0.8482,0.8465,0.8381,0.8333,0.8258,0.8113,0.7303,0.6142,0.5133,0.4028,0.2923,0.1919,0.1617,0.1617,0.1617,0.1617,0.1617,0.1617,0.1617,0.1617,0.1619,0.162,0.1628,0.171,0.1717,0.1604,0.127,0.1214,0.1113,0.0859,0.0808,0.0707,0.0455,0.0404,0.0303,0.0051,0.0,0.0,0.0,0.0,0.0,0.0,0.0,0.0,0.0,-0.1009,-0.1613,-0.1663,-0.272,-0.3776,-0.4885,-0.4885,-0.5386,-0.6387,-0.6387,-0.6387,-0.6387,-0.6387,-0.6387,0.0,0.0,0.0,1.123,1.0436,0.9871,1.0072,0.9656,0.9238,0.932,0.9405,0.9437,0.9357,0.908,0.8832,0.868,0.8676,0.8676,0.8676,0.8931,0.9164,0.9118,0.9284,0.9438,0.9395,0.9308,0.9215,0.9211,0.9114,0.8926,0.8713,0.8564,0.8418,0.8327,0.8119,0.7988,0.7988,0.7988,0.7988,0.7988,0.7988,0.7988,0.7988,0.7988,0.7988,0.7995,0.815,0.8197,0.8197,0.8197,0.8197,0.8197,0.8197,0.8197,0.8191,0.814,0.8123,0.8113,0.8008,0.7288,0.6234,0.5127,0.4074,0.3024,0.1919,0.1617,0.1617,0.1617,0.1617,0.1617,0.1617,0.1617,0.1617,0.1617,0.1617,0.162,0.163,0.1633,0.1579,0.1467,0.1465,0.1415,0.1314,0.1162,0.101,0.0909,0.0606,0.0354,0.0253,0.0101,0.0,0.0,0.0,0.0,0.0,0.0,0.0,0.0,-0.0353,-0.0858,-0.1563,-0.1966,-0.267,-0.3728,-0.4431,-0.5334,-0.6387,-0.6387,-0.6387,-0.6387,-0.6387,-0.6387,1.3355,0.0,0.0,0.0,1.124,1.0598,1.0819,1.0141,0.9511,0.9746,0.95,0.9324,0.9502,0.9392,0.9211,0.897,0.8928,0.8928,0.8928,0.9179,0.9325,0.9287,0.945,0.9517,0.9486,0.9398,0.9362,0.9314,0.9158,0.0,0.8868,0.8668,0.8469,0.8327,0.8119,0.7988,0.7988,0.7988,0.7988,0.7988,0.7988,0.7988,0.7988,0.7988,0.7988,0.7988,0.7988,0.7988,0.7988,0.7988,0.7988,0.7988,0.7988,0.7988,0.7988,0.7988,0.7988,0.7988,0.7988,0.7537,0.6684,0.5275,0.4325,0.3473,0.2019,0.1617,0.1617,0.1617,0.1617,0.1617,0.1617,0.1617,0.1617,0.1617,0.1617,0.1617,0.1617,0.1617,0.1617,0.1617,0.1617,0.1617,0.1617,0.1465,0.1314,0.1212,0.0909,0.0606,0.0404,0.0253,0.0101,0.0,0.0,0.0,0.0,0.0,0.0,0.0,0.0,-0.0303,-0.1009,-0.1059,-0.1563,-0.262,-0.3374,-0.4429,-0.5887,-0.6237,-0.6387,-0.6387,-0.6387,-0.6387,0.0,0.0,0.0,0.0,0.0,0.0,1.1602,0.0,1.0296,1.0513,0.9824,0.9235,0.9411,0.944,0.9405,0.9239,0.9229,0.9236,0.9236,0.943,0.9579,0.9579,0.9579,0.9693,0.986,0.9677,0.9548,0.9671,0.9303,0.9072,0.9083,0.8868,0.8574,0.833,0.8126,0.7995,0.7988,0.7988,0.7988,0.7988,0.7988,0.7988,0.7988,0.7988,0.7988,0.7988,0.7988,0.7988,0.7988,0.7988,0.7988,0.7988,0.7988,0.7988,0.7988,0.7988,0.7988,0.7988,0.7988,0.7988,0.7637,0.5527,0.4824,0.4475,0.2321,0.1667,0.1667,0.1667,0.1617,0.1617,0.1617,0.1617,0.1617,0.1617,0.1617,0.1617,0.1617,0.1617,0.1617,0.1617,0.1617,0.1617,0.1617,0.1617,0.1516,0.1263,0.1212,0.101,0.0505,0.0404,0.0303,0.0051,0.0,0.0,0.0,0.0,0.0,0.0,0.0,0.0,0.0,0.0,-0.0505,-0.1513,-0.1563,-0.262,-0.4684,-0.5834,-0.6387,-0.6387,-0.6387,-0.6387,1.4088,0.0,0.0,0.0,0.0,0.0,0.0,0.0,1.1051,1.1273,1.1095,1.0758,1.0287,1.0188,0.9972,0.9234,0.9316,0.948,0.948,0.9529,0.9579,0.9579,0.9579,0.9599,0.9693,0.9602,0.9574,0.0,0.9289,0.9108,0.9122,0.8868,0.8574,0.833,0.8231,0.8153,0.7992,0.7988,0.7988,0.7988,0.7988,0.7988,0.7988,0.7988,0.7988,0.7988,0.7988,0.7988,0.7988,0.7988,0.7988,0.7988,0.7988,0.7988,0.7988,0.7988,0.7988,0.7988,0.7988,0.7988,0.7789,0.6384,0.5932,0.5682,0.4325,0.3374,0.2773,0.2773,0.2221,0.1617,0.1617,0.1617,0.1617,0.1617,0.1617,0.1617,0.1617,0.1617,0.1617,0.1617,0.1617,0.1617,0.1617,0.1617,0.1566,0.1516,0.1314,0.1162,0.101,0.0657,0.0354,0.0303,0.0101,0.0,0.0,0.0,0.0,0.0,0.0,0.0,0.0,0.0,-0.0151,-0.0454,-0.121,-0.1915,-0.2469,-0.4329,-0.5634,-0.6387,-0.6387,-0.6387,0.0,0.0,0.0,0.0,0.0,0.0,1.3264,1.2577,1.1926,0.0,1.174,1.1375,1.1026,1.0975,1.0827,1.0325,1.0112,0.986,0.9551,0.9579,0.9579,0.9579,0.9579,0.9579,0.9579,0.9579,0.9569,0.9519,0.9392,0.922,0.9119,0.8919,0.8646,0.8415,0.8354,0.8197,0.7992,0.7988,0.7988,0.7988,0.7988,0.7988,0.7988,0.7988,0.7988,0.7988,0.7988,0.7988,0.7988,0.7988,0.7988,0.7988,0.7988,0.7988,0.7988,0.7988,0.7988,0.7988,0.7988,0.7988,0.7839,0.6736,0.6387,0.6134,0.4576,0.3674,0.3123,0.2672,0.207,0.1617,0.1617,0.1617,0.1617,0.1617,0.1617,0.1617,0.1617,0.1617,0.1617,0.1617,0.1617,0.1617,0.1617,0.1617,0.1617,0.1617,0.1465,0.1314,0.1212,0.0909,0.0707,0.0556,0.0303,0.0152,0.0152,0.0051,0.0,0.0,0.0,0.0,0.0,0.0,0.0,0.0,-0.0606,-0.116,-0.1613,-0.3324,-0.4682,-0.5734,-0.6187,-0.6387,0.0,0.0,0.0,0.0,1.4088,0.0,1.4088,1.3434,1.2875,0.0,1.2186,1.1646,1.1723,1.1717,1.1743,1.1828,1.1156,1.0371,0.9633,0.9514,0.9567,0.9567,0.9583,0.96,0.96,0.9616,0.9579,0.9579,0.9539,0.9364,0.9094,0.9001,0.8779,0.8506,0.837,0.8221,0.8015,0.7998,0.7988,0.7988,0.7988,0.7988,0.7988,0.7988,0.7988,0.7988,0.7988,0.7988,0.7988,0.7988,0.7988,0.7988,0.7988,0.7988,0.7988,0.7988,0.7988,0.7988,0.7988,0.7988,0.7839,0.6886,0.6587,0.6234,0.4327,0.3574,0.3123,0.1919,0.1617,0.1617,0.1617,0.1617,0.1617,0.1617,0.1617,0.1617,0.1617,0.1617,0.1617,0.1617,0.1617,0.1617,0.1617,0.1617,0.1617,0.1617,0.1617,0.1516,0.1263,0.1212,0.1111,0.0859,0.0606,0.0455,0.0455,0.0202,0.0101,0.0051,0.0051,0.0051,0.0,0.0,0.0,0.0,0.0,-0.0454,-0.1412,-0.262,-0.3676,-0.4634,-0.5734,-0.6237,0.0,0.0,0.0,1.4088,1.4088,0.0,1.4088,1.3955,1.3828,0.0,1.3695,1.3326,1.2636,1.2476,1.223,1.1543,1.1397,1.1146,1.0413,0.9639,0.9202,0.9202,0.9324,0.9457,0.9457,0.9543,0.9579,0.9579,0.9539,0.9318,0.8948,0.8991,0.8933,0.8665,0.852,0.837,0.8225,0.8102,0.7988,0.7988,0.7988,0.7988,0.7988,0.7988,0.7988,0.7988,0.7988,0.7988,0.7988,0.7988,0.7988,0.7988,0.7988,0.7988,0.7988,0.7988,0.7988,0.7988,0.7988,0.7988,0.7988,0.7739,0.769,0.759,0.7185,0.5879,0.4074,0.217,0.1617,0.1617,0.1617,0.1617,0.1617,0.1617,0.1617,0.1617,0.1617,0.1617,0.1617,0.1617,0.1617,0.1617,0.1617,0.1617,0.1617,0.1617,0.1617,0.1566,0.1516,0.1314,0.1162,0.1111,0.0859,0.0707,0.0707,0.0657,0.0556,0.0354,0.0303,0.0202,0.0,0.0,0.0,0.0,0.0,-0.0101,-0.0303,-0.2267,-0.3324,-0.3525,-0.4632,-0.5135,1.4088,1.4088,1.4088,1.4088,1.4088,0.0,0.0,1.4088,1.4088,1.4088,1.4088,1.3955,1.3483,1.3398,1.3222,1.279,1.2377,1.2019,1.1661,1.098,1.0519,1.0519,1.0608,1.0669,1.0669,1.0721,1.0824,1.0922,1.0928,1.0866,1.0757,1.0958,1.0853,1.0485,1.0393,0.9951,0.9176,0.8907,0.8531,0.7988,0.7988,0.7988,0.7988,0.7988,0.7988,0.7988,0.7988,0.7988,0.7988,0.7988,0.7988,0.7988,0.7988,0.7988,0.7988,0.7988,0.7988,0.7988,0.7988,0.7988,0.7988,0.7988,0.7988,0.7889,0.7388,0.6079,0.4474,0.2873,0.2438,0.2302,0.1793,0.165,0.166,0.166,0.166,0.166,0.166,0.166,0.1656,0.1642,0.1639,0.1635,0.162,0.1617,0.1617,0.1617,0.1617,0.1617,0.1617,0.1465,0.1415,0.1415,0.1162,0.101,0.101,0.0859,0.0758,0.0606,0.0606,0.0455,0.0202,0.0202,0.0152,0.0,0.0,0.0,0.0,-0.1059,-0.1865,-0.2418,-0.3525,-0.428,1.4088,1.4088,1.4088,1.4088,1.4088,1.4088,0.0,0.0,0.0,1.4088,0.0,0.0,0.0,0.0,0.0,0.0,0.0,0.0,0.0,1.2583,0.0,1.1852,1.1799,1.1826,1.1826,1.1868,1.1975,1.2208,1.2218,1.2305,1.2418,1.2758,1.2674,1.2201,1.2206,1.1611,1.0378,0.9863,0.9167,0.8283,0.8088,0.7988,0.7988,0.7988,0.7988,0.7988,0.7988,0.7988,0.7988,0.7988,0.7988,0.7988,0.7988,0.7988,0.7988,0.7988,0.7988,0.7988,0.7988,0.7988,0.7988,0.7988,0.7988,0.7789,0.6736,0.5844,0.4901,0.3594,0.3285,0.3073,0.1982,0.1687,0.1704,0.1704,0.1704,0.1704,0.1704,0.1704,0.1697,0.1675,0.1722,0.1659,0.1623,0.1617,0.1617,0.1617,0.1617,0.1617,0.1617,0.1617,0.1617,0.1617,0.1415,0.1263,0.1263,0.1061,0.0909,0.0859,0.0859,0.0758,0.0505,0.0404,0.0253,0.0,0.0,0.0,0.0,0.0,-0.0454,-0.1311,-0.2368,-0.3475,1.4088,1.4088,1.4088,1.4088,1.4088,1.4088,1.4088,0.0,1.4088,1.4088,0.0,0.0,0.0,0.0,0.0,0.0,0.0,0.0,1.3955,1.3887,1.323,1.1581,1.1541,1.162,1.162,1.1812,1.1905,1.1932,1.1937,1.1905,1.1815,1.2327,1.2451,1.2037,1.215,1.199,1.1606,1.0275,0.9558,0.941,0.8432,0.7988,0.7988,0.7988,0.7988,0.7988,0.7988,0.7988,0.7988,0.7988,0.7988,0.7988,0.7988,0.7988,0.7988,0.7988,0.7988,0.7988,0.7988,0.7988,0.7988,0.7988,0.7988,0.7789,0.6736,0.6454,0.6023,0.3869,0.3401,0.3183,0.2017,0.1701,0.1704,0.1704,0.1704,0.1704,0.1704,0.1704,0.1703,0.17,0.1699,0.1682,0.1626,0.1617,0.1617,0.1617,0.1617,0.1617,0.1617,0.1617,0.1617,0.1617,0.1566,0.1566,0.1566,0.1516,0.1415,0.1162,0.1162,0.101,0.0758,0.0505,0.0253,0.0,0.0,0.0,0.0,0.0,-0.0051,-0.0202,-0.1261,-0.2368,1.4135,1.4088,1.4088,1.4088,1.4088,1.4088,1.4088,1.4088,1.4088,0.0,0.0,0.0,0.0,0.0,0.0,0.0,1.4088,0.0,0.0,0.0,1.3828,0.0,0.0,0.0,1.304,1.3144,1.3235,1.3387,1.34,1.3464,1.3594,1.4008,1.4142,1.3961,1.3929,1.3546,1.2774,1.186,1.0779,0.9608,0.9167,0.8577,0.7988,0.7988,0.7988,0.7988,0.7988,0.7988,0.7988,0.7988,0.7988,0.7988,0.7988,0.7988,0.7988,0.7988,0.7988,0.7988,0.7988,0.7988,0.7988,0.7988,0.8099,0.8073,0.7664,0.7603,0.7394,0.5825,0.5424,0.5068,0.3238,0.2774,0.2631,0.1921,0.1757,0.1757,0.1757,0.1757,0.1752,0.1734,0.1785,0.1717,0.1675,0.1654,0.1643,0.1643,0.1628,0.1617,0.1617,0.1617,0.1617,0.1617,0.1617,0.1617,0.1617,0.1617,0.1566,0.1415,0.1263,0.1162,0.1061,0.0758,0.0505,0.0253,0.0253,0.0152,0.0,0.0,0.0,0.0,-0.0454,-0.1261,1.4368,0.0,0.0,0.0,0.0,0.0,0.0,0.0,0.0,0.0,0.0,0.0,0.0,0.0,0.0,0.0,0.0,1.4088,0.0,1.4088,0.0,0.0,0.0,0.0,0.0,1.4088,1.4175,1.4389,1.4402,1.4496,1.4754,1.5077,1.5272,1.5287,1.5229,1.4812,1.3931,1.3192,1.1999,1.0435,0.985,0.9217,0.8432,0.8137,0.7988,0.7988,0.7988,0.7988,0.7988,0.7988,0.7988,0.7988,0.7988,0.7988,0.7988,0.7988,0.7988,0.7988,0.7988,0.7988,0.7995,0.8039,0.8177,0.833,0.8368,0.8428,0.8329,0.7213,0.6926,0.6525,0.4554,0.4044,0.3858,0.2967,0.2521,0.2298,0.2298,0.2018,0.1789,0.1821,0.1817,0.181,0.1733,0.1698,0.1726,0.1726,0.1655,0.1638,0.163,0.1629,0.1626,0.1618,0.1617,0.1617,0.1617,0.1617,0.1617,0.1617,0.1415,0.1263,0.1212,0.101,0.0808,0.0505,0.0505,0.0404,0.0202,0.0202,0.0202,0.0101,0.0051,-0.0555,0.0,0.0,0.0,1.4402,0.0,0.0,0.0,0.0,1.4088,0.0,0.0,0.0,0.0,0.0,0.0,0.0,0.0,0.0,0.0,0.0,0.0,0.0,0.0,0.0,0.0,1.4088,1.4088,1.4102,1.4102,1.4108,1.4115,1.4707,1.5013,1.5015,1.5302,1.5342,1.5035,1.3734,1.2926,1.2581,1.0583,0.9608,0.9509,0.8482,0.7988,0.7988,0.7988,0.7988,0.7988,0.7988,0.7988,0.7988,0.7988,0.7988,0.7988,0.7988,0.7988,0.7988,0.7988,0.7988,0.8015,0.8214,0.832,0.8347,0.8435,0.8581,0.843,0.7234,0.6999,0.6811,0.5637,0.5359,0.5306,0.5306,0.4414,0.3525,0.3525,0.2633,0.1795,0.1793,0.1793,0.1793,0.1792,0.1742,0.1703,0.1703,0.1702,0.1692,0.1717,0.1713,0.165,0.162,0.1617,0.1617,0.1617,0.1617,0.1617,0.1617,0.1617,0.1465,0.1212,0.1212,0.1061,0.0808,0.0808,0.0758,0.0758,0.0758,0.0657,0.0404,0.0101,-0.0555,0.0,0.0,1.6634,1.5603,0.0,0.0,0.0,0.0,0.0,0.0,0.0,0.0,0.0,0.0,0.0,0.0,0.0,0.0,0.0,0.0,0.0,0.0,0.0,0.0,0.0,0.0,1.4088,1.4088,1.4088,1.4088,1.4088,1.4275,1.4603,1.5,1.4924,1.4973,1.512,1.4485,1.3661,1.2678,1.1317,1.0293,0.9558,0.8482,0.7988,0.7988,0.7988,0.7988,0.7988,0.7988,0.7988,0.7988,0.7988,0.7988,0.7988,0.7988,0.7988,0.7988,0.7988,0.8106,0.8201,0.8252,0.8401,0.857,0.8618,0.874,0.8749,0.8365,0.8232,0.8045,0.6813,0.6536,0.6313,0.5584,0.5083,0.4582,0.3748,0.3302,0.2744,0.1963,0.1795,0.1795,0.1795,0.1778,0.1757,0.1792,0.1717,0.1701,0.1691,0.169,0.1679,0.165,0.1647,0.1639,0.1619,0.1617,0.1617,0.1617,0.1617,0.1566,0.1465,0.1465,0.1364,0.1061,0.1061,0.096,0.0808,0.0808,0.0758,0.0657,0.0556,0.0151,1.9053,1.8661,0.0,1.7144,1.6468,0.0,1.4986,0.0,1.4454,0.0,0.0,0.0,0.0,0.0,0.0,0.0,0.0,0.0,0.0,1.4088,0.0,0.0,0.0,1.4088,0.0,1.4088,1.4088,1.4088,1.4088,1.4088,0.0,0.0,1.4398,1.4988,1.4822,1.4878,1.5077,1.4933,1.4298,1.327,1.2242,1.117,1.0145,0.9069,0.8382,0.7988,0.7988,0.7988,0.7988,0.7988,0.7988,0.7988,0.7988,0.7988,0.7988,0.7988,0.7988,0.7995,0.8102,0.8187,0.834,0.8394,0.8557,0.872,0.8774,0.8804,0.8885,0.8885,0.8885,0.8716,0.7934,0.7765,0.7543,0.6811,0.6311,0.5808,0.5029,0.4528,0.3858,0.2688,0.2465,0.2297,0.1851,0.1795,0.1789,0.1824,0.1749,0.1733,0.1722,0.172,0.1709,0.168,0.172,0.165,0.162,0.1617,0.1617,0.1617,0.1617,0.1617,0.1617,0.1617,0.153,0.1403,0.1378,0.1275,0.1144,0.1122,0.101,0.096,0.096,0.0707]}]]